GFSNE_sfc_wetblb_000.txt.gz
Wetbulb
37.20 36.70 37.28 38.35 38.67 39.05 38.36 36.97 34.47 30.79 32.54 36.94 37.59 41.73 42.39 42.90 45.29 46.13 46.98 48.61 48.16 46.73 47.05 47.94 49.18 50.51 51.14 51.92 52.25 53.42 54.87 58.59 58.53 58.66 58.49 58.80 59.10 59.33
37.02 35.97 36.75 37.55 37.81 38.36 38.28 37.51 36.74 34.40 30.95 35.87 37.46 39.99 41.83 43.12 44.31 43.99 44.63 47.41 46.50 45.49 44.60 44.20 46.17 47.36 47.51 49.22 49.67 50.39 50.72 52.98 56.89 57.53 57.66 58.08 58.47 58.61
34.57 34.64 34.67 35.56 35.44 35.61 36.15 36.37 35.52 35.14 32.42 34.86 37.39 38.79 39.13 39.79 41.39 42.28 43.35 43.81 44.66 44.40 42.15 42.92 43.32 43.73 44.01 44.21 46.03 46.86 48.19 51.02 50.47 54.68 56.70 57.38 57.95 58.26
32.33 32.36 33.08 35.15 33.37 33.21 33.43 33.32 33.69 33.75 32.88 31.02 33.54 34.93 35.66 37.88 38.56 38.43 40.23 42.99 43.45 44.51 44.67 44.61 44.20 43.03 43.79 43.77 43.00 43.22 45.03 46.22 47.24 48.84 53.40 55.62 56.53 57.15
31.95 31.36 31.62 31.58 30.08 30.32 30.08 30.15 31.08 33.34 31.67 30.90 30.28 33.19 34.68 35.91 35.92 37.00 37.46 38.06 41.32 44.83 43.77 42.84 41.51 42.14 42.14 43.11 42.50 42.57 43.22 43.98 43.97 44.90 45.46 50.78 53.19 54.51
29.43 29.36 29.57 29.23 28.50 28.06 28.55 28.25 29.11 28.76 29.57 29.38 29.55 30.38 31.29 33.80 33.82 32.32 33.55 35.22 35.21 38.90 42.64 41.22 41.24 42.43 42.10 41.74 41.32 42.62 43.28 43.24 43.56 43.83 43.10 43.84 46.85 51.03
28.17 28.27 28.80 30.03 32.68 32.35 30.55 29.11 28.23 27.41 27.13 26.60 26.65 27.75 28.22 28.86 28.84 30.82 30.25 31.44 33.32 34.08 35.45 36.48 37.24 37.13 38.56 40.63 42.28 42.68 42.70 43.20 42.69 43.23 43.45 42.74 43.28 46.85
26.15 26.93 27.48 29.40 29.42 30.85 31.58 32.14 30.65 27.04 25.87 25.35 25.40 25.02 25.67 26.85 28.71 29.68 30.43 29.95 30.12 32.88 34.41 32.44 36.40 36.51 37.13 36.47 39.37 38.29 39.04 40.12 41.42 42.53 43.05 42.72 43.12 43.43
26.12 25.98 26.31 27.80 28.73 28.03 29.34 30.69 30.90 31.44 29.45 27.78 26.21 26.72 27.01 28.53 28.26 27.56 28.50 29.13 30.20 34.06 33.75 32.53 31.40 32.94 31.12 34.96 36.75 37.51 38.34 38.99 39.46 40.63 42.01 41.95 41.29 42.03
26.77 26.75 26.19 26.36 27.29 27.74 27.15 26.83 27.20 27.64 28.10 28.49 28.38 28.98 29.56 30.36 29.57 29.20 28.50 28.73 29.65 33.81 34.26 30.85 29.68 23.29 23.10 27.45 34.71 36.01 36.68 37.07 37.32 38.76 40.18 41.27 41.19 40.37
27.64 27.77 28.00 27.87 29.52 30.94 29.02 28.03 27.40 28.32 30.78 32.11 32.30 32.24 32.42 33.03 32.04 29.53 27.57 26.54 25.37 26.83 31.58 31.55 29.26 27.93 21.29 22.66 24.03 32.94 34.56 35.50 36.38 36.67 39.10 40.69 41.01 40.14
25.35 26.23 28.22 27.85 29.29 29.66 27.54 27.22 26.57 27.56 28.47 28.30 28.40 30.54 32.20 31.70 32.73 32.42 30.76 27.14 26.01 19.12 27.61 29.13 22.80 23.65 23.42 18.06 19.66 21.56 25.51 32.87 34.73 36.25 38.60 40.48 40.69 42.09
24.88 25.41 26.29 28.46 29.14 29.82 29.57 27.85 27.48 28.94 28.93 28.70 28.37 28.77 29.15 29.00 29.99 31.36 31.80 31.15 28.60 27.02 28.49 28.94 23.01 20.82 21.10 20.29 18.13 19.64 22.44 26.38 32.05 33.34 36.52 39.45 40.53 41.69
25.54 26.81 27.46 29.42 29.81 30.73 30.09 29.38 29.66 29.12 29.03 28.02 27.09 27.05 27.80 28.05 29.95 30.62 30.98 31.81 32.25 30.68 30.04 29.83 25.35 23.60 20.13 15.73 19.21 18.37 18.66 22.29 30.35 30.21 31.33 34.71 37.69 39.43
27.84 27.92 28.34 27.73 27.44 27.68 28.71 29.27 28.27 28.11 27.45 26.30 25.81 25.75 27.87 29.16 29.84 29.87 27.99 30.07 30.14 31.60 32.08 30.88 29.85 25.82 27.47 23.74 20.29 16.28 18.47 19.15 23.77 27.03 27.13 28.34 29.68 31.88
25.84 24.89 23.73 24.63 23.21 22.75 23.97 25.29 25.81 27.05 27.39 26.76 25.95 26.48 27.73 28.22 28.56 28.05 25.58 28.49 29.15 29.81 32.36 32.39 31.16 30.20 27.18 22.08 24.80 17.55 21.82 21.74 18.92 25.96 26.13 26.29 27.53 28.28
24.99 21.11 20.97 20.59 20.66 21.33 21.89 23.06 24.56 26.37 25.95 27.13 27.39 25.74 26.09 26.49 27.12 27.17 29.13 29.42 28.47 23.68 25.99 29.31 30.85 30.54 28.57 25.99 21.46 25.38 20.23 23.26 22.74 23.97 25.73 24.22 24.73 26.25
23.74 19.50 18.51 18.74 18.75 20.04 19.57 20.42 22.49 23.50 25.42 22.11 19.26 22.44 23.11 24.67 25.48 27.34 27.77 28.02 26.30 24.85 24.21 24.26 24.94 24.78 25.18 23.86 27.12 23.69 22.03 23.82 21.21 23.63 25.51 23.10 22.47 24.94
22.04 20.48 18.88 18.75 18.44 19.67 19.71 19.78 19.81 22.17 24.54 24.37 27.52 27.52 26.90 25.53 29.11 27.24 27.28 26.14 24.30 24.57 24.13 24.22 25.27 23.56 19.14 14.72 19.71 26.36 22.73 23.74 21.85 23.22 24.68 23.87 22.55 23.46
19.99 19.60 18.82 18.96 20.05 19.61 18.99 18.39 18.86 20.22 20.43 22.08 22.56 24.40 24.60 24.22 21.56 23.49 23.14 21.92 20.99 20.62 21.70 23.18 23.61 23.70 20.73 15.84 12.91 14.22 26.20 22.96 23.32 21.52 21.43 23.63 24.79 27.07
17.28 17.84 17.67 17.92 17.99 19.47 18.53 17.28 16.23 17.82 18.47 18.98 19.32 20.42 21.10 17.27 19.20 19.24 18.88 18.50 17.52 20.28 19.63 20.27 20.14 21.62 20.33 18.55 13.88 12.70 18.28 27.43 25.87 22.82 22.34 21.20 20.06 20.02
14.93 15.65 16.05 16.48 15.79 16.33 17.24 18.01 16.40 16.54 16.71 16.58 17.60 17.78 19.08 18.55 18.98 20.40 17.64 15.87 16.69 15.48 17.62 20.08 22.08 22.02 17.26 17.32 10.61 6.21 13.22 18.30 24.52 25.70 25.56 23.82 19.76 16.98
13.20 13.12 13.36 13.56 14.76 14.66 15.39 16.16 18.14 16.48 16.66 15.81 15.29 15.59 16.76 16.92 16.36 15.60 14.54 15.95 17.98 18.78 19.33 18.35 19.44 18.66 17.45 15.47 13.97 11.09 12.39 14.65 15.50 14.69 13.55 22.06 25.83 25.33

GFSNE_sfc_wetblb_003.txt.gz
Wetbulb
37.31 35.83 34.35 35.23 35.70 36.38 36.97 36.12 33.81 29.35 29.69 33.51 34.47 39.09 40.39 41.74 43.54 44.65 45.40 46.29 46.31 45.26 45.04 48.08 49.02 49.77 50.16 50.46 51.08 51.71 51.86 52.36 54.90 58.92 59.06 59.21 59.60 59.67
37.06 35.23 34.51 35.17 35.54 35.95 36.71 36.81 35.82 33.12 29.54 32.80 34.29 35.37 38.86 40.64 42.70 42.84 42.88 46.04 45.44 45.01 43.64 43.95 44.27 46.80 47.34 47.23 48.63 49.29 50.13 50.61 50.96 53.55 57.59 58.18 58.86 59.08
34.02 34.04 33.21 33.78 33.03 32.92 33.95 34.72 34.38 34.40 31.15 33.11 34.08 36.56 36.83 36.99 38.14 40.23 41.74 41.25 43.10 43.43 42.66 41.71 42.50 43.44 43.93 42.99 43.44 46.32 46.79 47.23 50.29 51.23 53.04 56.67 58.49 58.77
31.94 31.27 31.26 33.66 31.59 32.01 32.15 31.94 32.42 32.99 32.04 30.13 31.16 32.40 33.56 36.32 36.96 36.77 39.27 40.54 40.15 41.80 42.54 42.68 43.14 43.08 41.89 42.62 42.96 42.09 42.66 43.90 44.67 47.43 48.55 50.63 52.37 57.66
30.84 30.53 30.72 30.45 29.49 29.69 29.80 29.31 29.53 31.71 30.32 28.85 28.42 31.81 32.48 33.53 33.98 35.37 35.75 36.18 38.27 40.70 39.79 40.77 42.13 42.21 41.66 40.74 41.84 41.90 41.94 42.64 42.95 42.90 43.34 44.90 47.61 50.46
28.81 28.52 28.07 27.65 27.37 27.64 28.05 27.71 28.33 27.95 28.11 27.69 27.71 28.36 29.95 31.24 31.22 30.89 31.40 33.14 33.89 37.41 39.32 38.81 40.21 41.46 42.08 41.78 41.03 40.89 42.02 42.39 42.27 42.00 41.35 41.06 41.47 44.37
27.73 27.81 27.81 28.95 31.40 30.65 29.27 28.31 27.77 27.33 27.16 26.39 25.69 25.80 26.04 26.91 27.58 29.20 28.64 30.10 32.17 33.72 34.44 35.61 36.21 38.64 38.89 40.30 41.45 41.88 40.84 40.53 42.03 42.09 41.93 41.37 40.75 42.00
25.48 26.34 26.87 28.66 28.54 29.72 29.94 30.43 29.60 26.57 25.58 24.91 24.72 23.57 24.27 24.63 25.25 25.98 26.62 27.03 26.31 33.47 34.65 33.59 34.29 35.71 36.71 35.83 38.25 39.04 38.76 38.79 39.68 40.43 40.81 41.19 41.26 40.93
25.86 25.93 26.43 27.45 28.36 27.18 28.38 29.26 29.76 30.31 29.02 27.51 25.87 25.69 25.15 26.53 28.27 27.92 27.28 26.79 27.48 30.13 32.94 29.09 28.63 31.99 32.85 35.14 37.73 37.96 37.84 38.12 38.71 38.77 38.33 38.81 39.66 39.84
25.96 26.18 25.87 26.17 26.99 27.22 26.99 26.71 27.20 27.76 27.51 27.64 27.02 27.54 28.11 28.76 28.37 28.46 27.69 27.72 28.12 28.96 31.45 28.53 25.82 26.77 28.74 30.73 34.81 36.34 37.02 36.47 36.31 36.57 36.66 37.61 38.17 38.83
26.11 26.32 26.10 26.00 27.87 29.66 26.96 26.12 26.25 27.17 30.27 31.24 31.53 31.07 31.31 32.01 31.28 29.14 27.88 26.79 24.40 25.67 25.98 28.75 26.54 20.89 20.16 27.62 26.51 33.89 34.69 34.87 35.21 36.34 36.49 36.93 37.65 38.52
24.88 25.72 27.29 26.90 28.25 28.54 26.61 26.04 25.17 26.11 27.00 27.58 28.30 29.61 31.76 31.08 31.93 31.05 30.30 26.75 25.61 22.64 24.77 26.52 24.56 24.42 27.48 17.78 18.02 20.69 23.25 31.63 33.83 34.37 35.61 36.55 37.68 38.66
24.07 24.71 26.41 28.34 28.70 29.19 29.69 28.38 27.63 27.97 26.99 27.09 27.19 28.59 28.43 27.99 28.96 30.31 30.96 30.37 28.35 26.75 27.85 28.41 24.04 22.79 22.10 21.68 15.98 17.43 23.17 20.63 25.96 28.41 33.22 34.38 36.51 38.57
24.65 27.00 26.84 27.66 27.93 27.31 27.23 28.78 28.92 29.14 27.60 26.60 26.68 26.70 27.26 27.90 29.10 29.69 30.34 31.06 31.53 30.72 30.49 29.87 25.98 24.29 21.49 21.89 22.69 15.67 14.52 16.23 18.83 19.86 23.93 30.90 32.99 34.92
27.98 26.47 26.11 25.82 25.51 24.39 25.44 26.33 24.99 26.18 26.72 25.11 25.57 26.10 27.23 28.29 29.21 29.03 30.16 30.73 31.47 32.02 32.25 31.54 29.51 25.41 25.78 26.47 19.91 19.18 17.71 15.50 15.04 15.86 17.80 21.40 27.09 29.31
25.84 24.39 22.45 23.28 21.53 21.72 22.69 23.55 24.04 24.39 24.38 24.77 25.45 26.09 27.37 27.16 28.02 28.98 28.31 27.77 28.46 29.07 31.71 32.34 31.77 30.72 27.81 26.24 25.89 25.26 14.63 20.21 18.29 15.00 16.27 15.42 19.33 24.82
23.52 21.49 20.81 18.95 18.31 19.36 19.90 20.49 21.48 22.57 22.95 24.83 24.87 25.81 25.72 26.19 26.00 26.23 27.53 26.19 26.62 23.91 26.52 29.25 31.98 31.96 31.06 30.11 24.35 22.95 20.16 16.66 18.76 17.21 15.91 15.49 17.06 19.28
22.98 19.71 17.23 16.92 15.72 17.73 17.26 17.21 18.51 20.19 21.00 22.66 21.53 22.25 22.43 23.58 22.36 24.23 27.63 27.17 26.35 25.07 23.43 23.93 24.92 25.30 25.26 24.50 27.79 21.57 22.54 23.29 20.58 15.55 16.23 14.89 16.35 20.68
19.05 18.15 16.95 15.00 16.36 18.22 17.60 16.74 16.66 18.70 20.25 20.96 21.81 24.90 25.87 23.85 24.84 25.36 26.69 26.99 24.95 24.47 23.39 24.05 24.65 24.68 21.53 17.67 20.34 26.02 22.61 22.39 16.66 16.58 15.89 15.85 16.91 20.55
17.55 16.75 15.40 15.76 15.57 16.20 17.17 16.26 15.17 15.35 16.58 17.81 18.74 19.96 20.59 21.79 22.86 23.97 24.86 22.68 20.04 19.94 20.13 22.43 23.82 23.80 22.49 20.74 18.58 18.75 25.96 17.17 12.34 12.13 15.88 20.13 23.98 26.60
14.83 15.20 14.83 14.87 14.90 14.44 14.26 15.13 12.63 13.28 12.46 13.58 14.60 15.87 15.94 19.89 19.24 18.32 19.23 18.00 19.95 21.24 19.87 19.36 19.34 22.37 20.74 20.03 15.77 15.40 17.16 27.15 21.89 14.57 17.29 17.36 17.60 18.30
12.60 12.99 13.53 13.94 13.38 13.25 13.12 12.84 15.56 14.70 14.06 13.91 13.39 13.42 13.29 12.69 12.56 18.82 15.68 13.91 16.01 13.30 16.31 18.62 22.15 22.60 19.67 18.19 13.17 9.74 12.00 15.31 21.77 22.79 24.31 23.32 19.49 15.99
11.10 11.16 11.42 11.62 12.46 12.98 13.10 12.56 12.95 14.21 14.29 11.39 11.06 11.54 9.04 8.78 13.23 11.64 9.87 11.47 12.70 12.03 12.53 14.78 17.75 17.41 16.57 15.47 14.19 12.10 11.41 12.49 13.78 15.15 14.33 20.85 25.74 25.19

GFSNE_sfc_wetblb_006.txt.gz
Wetbulb
37.28 37.57 37.36 37.71 37.68 37.76 37.23 35.79 33.03 28.83 29.28 32.29 32.85 38.02 38.88 40.07 41.04 42.67 43.53 43.57 44.26 44.21 44.27 44.83 47.33 48.60 48.92 49.49 49.79 50.30 50.82 51.08 51.12 51.43 55.01 59.94 59.95 60.12
37.86 36.80 36.04 36.28 35.98 36.05 35.91 35.70 35.12 33.14 29.06 32.43 33.48 35.57 37.51 39.27 41.35 40.71 39.98 43.96 43.28 42.84 42.08 42.82 42.73 43.61 45.58 46.91 47.43 47.81 48.59 49.23 49.53 51.82 52.40 54.38 59.25 59.42
34.71 33.80 32.69 33.28 32.53 32.84 32.92 33.25 32.85 33.03 30.44 32.32 33.75 35.47 36.47 37.49 38.14 39.13 40.65 40.50 42.01 41.91 41.45 42.23 42.11 42.31 42.63 42.78 43.55 44.68 46.47 46.29 46.70 47.58 50.60 51.49 54.07 59.20
31.07 30.72 30.92 33.03 31.52 31.99 31.77 30.94 31.52 31.93 31.12 29.45 31.53 32.61 33.73 36.44 37.21 37.02 38.25 39.80 39.34 40.09 40.80 40.67 40.95 41.67 42.06 41.86 41.46 42.40 43.03 43.52 43.74 44.51 45.18 47.54 50.25 52.41
29.72 29.20 29.35 29.31 28.24 28.94 28.96 28.86 29.34 30.81 29.94 29.54 28.70 31.13 32.37 33.95 34.26 35.37 35.99 37.26 37.64 39.45 39.08 38.68 39.81 40.93 41.94 41.94 41.83 41.39 42.45 42.51 42.27 42.26 42.11 42.12 43.91 46.88
28.65 28.01 27.44 27.23 26.76 26.67 27.07 27.06 27.80 27.44 27.96 27.56 27.71 28.15 29.66 31.33 31.78 30.66 30.70 33.48 33.56 35.72 37.33 37.57 39.03 40.15 41.22 41.40 41.56 41.55 41.34 41.94 41.87 41.51 40.78 40.35 39.89 41.48
27.58 27.58 27.78 28.67 30.75 29.98 28.20 27.36 27.00 26.97 27.38 27.20 26.76 26.99 26.77 26.67 27.41 29.07 28.69 29.83 31.38 32.93 33.02 34.21 36.63 37.64 38.74 39.87 41.21 41.52 41.02 41.80 41.26 41.56 41.11 40.74 40.87 40.98
26.04 26.30 26.58 28.48 28.20 29.28 29.78 30.08 29.20 26.18 25.41 24.92 24.99 24.42 24.93 25.02 26.30 25.91 26.12 25.82 24.66 31.66 31.17 31.83 35.55 34.85 36.55 37.60 38.04 38.93 40.00 39.85 39.42 39.69 39.74 39.10 38.91 39.20
25.41 25.49 26.05 27.08 27.88 27.11 28.07 28.69 28.71 29.27 28.02 27.61 26.29 26.33 25.79 27.14 27.14 26.14 26.61 26.25 25.81 29.01 31.59 30.01 32.19 32.85 34.73 35.89 37.02 38.20 38.36 38.27 37.69 38.09 38.53 37.96 37.52 37.48
25.22 25.37 25.37 25.68 26.78 27.14 27.09 26.91 27.22 27.58 27.57 27.37 26.83 27.10 28.28 28.82 28.14 28.28 27.84 28.29 28.85 29.21 30.84 26.70 30.00 28.79 30.78 32.86 35.75 36.72 37.54 37.64 37.02 36.51 36.53 36.65 36.51 36.75
25.25 25.78 25.65 25.94 27.59 28.91 27.05 26.25 26.17 27.11 29.58 30.52 31.04 30.81 30.45 30.71 30.47 28.30 26.86 26.25 25.02 26.21 28.11 27.74 28.17 26.82 27.71 31.14 33.11 35.15 35.91 36.94 36.30 36.36 36.74 36.69 37.02 36.82
24.12 26.02 26.81 26.79 28.36 29.07 27.36 26.48 25.19 26.45 27.85 28.15 28.06 28.92 30.77 30.86 31.52 30.44 29.38 26.40 25.84 24.53 26.95 26.64 26.99 26.72 26.55 27.30 28.90 31.64 33.36 34.75 34.50 34.91 35.36 35.18 35.81 36.87
24.60 24.36 25.81 28.30 27.78 27.89 27.77 25.86 25.57 27.78 28.36 28.94 27.93 27.51 28.49 28.65 30.05 30.77 31.05 29.78 27.30 27.29 29.10 28.48 26.04 25.74 27.10 27.02 26.82 27.23 28.08 29.28 30.51 31.89 33.90 33.44 34.00 35.69
24.89 26.25 26.51 26.86 26.58 26.20 25.43 25.94 26.49 26.38 26.16 26.48 26.33 26.07 26.58 27.45 29.01 29.68 30.11 30.34 31.10 29.70 31.06 29.90 28.33 27.54 26.61 25.78 25.16 25.32 25.81 25.76 27.58 28.43 29.46 29.91 31.61 32.39
27.20 27.77 26.45 24.93 24.22 23.03 24.26 25.08 24.33 23.79 23.48 24.37 25.27 25.84 27.12 28.56 30.04 30.04 30.31 30.24 30.73 31.42 31.70 31.30 30.39 27.86 28.26 27.51 26.78 26.64 27.34 25.33 25.93 26.29 26.45 26.92 28.06 29.16
25.94 24.97 23.87 23.55 20.47 20.28 21.68 22.26 22.15 22.86 22.70 23.37 24.56 26.59 27.96 28.10 28.01 29.38 28.30 28.41 28.33 28.93 31.83 32.65 32.18 31.18 28.72 28.21 28.92 28.41 24.54 27.91 25.92 24.53 24.84 24.35 25.60 26.64
24.60 22.64 20.38 18.94 17.79 18.89 19.30 19.17 20.07 21.05 21.24 22.32 23.42 24.25 25.89 26.43 26.24 28.23 28.72 28.32 26.96 26.67 27.64 30.21 32.09 32.09 31.90 31.06 26.11 28.38 28.15 24.32 25.51 25.77 24.04 24.69 24.98 25.55
21.37 18.50 17.37 16.25 15.05 17.19 17.09 16.54 17.51 17.95 19.05 20.49 21.94 23.93 23.84 24.21 24.56 25.17 26.72 26.89 25.90 26.24 26.81 27.52 27.60 26.95 25.89 26.22 28.80 27.69 25.71 26.38 25.90 25.38 24.35 23.50 23.58 25.24
17.53 17.04 15.59 15.20 14.94 15.89 16.46 16.58 15.38 16.37 18.10 18.70 19.49 20.17 21.81 24.59 24.20 24.14 25.45 26.70 26.60 27.14 25.88 25.56 25.38 25.61 22.28 20.92 22.77 26.61 25.17 24.69 24.85 24.07 24.78 22.76 22.56 23.71
15.85 15.21 14.06 14.39 15.11 14.86 14.63 14.20 15.36 15.42 15.45 15.34 16.88 17.69 17.77 20.74 20.46 22.02 22.97 22.36 22.66 22.47 22.26 23.93 24.39 24.11 23.12 22.06 20.78 22.05 26.29 24.57 23.83 22.18 22.98 23.63 24.94 26.17
13.36 13.68 13.84 13.88 13.90 14.37 13.37 13.18 12.90 14.51 14.00 12.14 13.94 14.44 14.63 18.29 21.84 18.67 18.38 16.29 18.22 21.03 19.03 18.59 19.29 21.17 21.30 21.18 18.08 17.53 19.43 27.20 24.65 22.79 22.16 20.84 20.36 21.47
11.66 11.98 12.51 12.77 12.77 13.10 13.38 13.22 13.48 13.84 14.37 12.97 11.07 11.12 11.62 13.38 13.91 16.06 14.01 14.54 15.63 15.73 17.40 19.40 21.18 22.29 19.70 19.60 15.26 15.08 17.01 18.95 22.34 23.70 24.86 24.13 21.82 18.79
10.35 10.52 10.66 11.01 11.64 11.83 12.22 10.89 11.75 12.83 13.84 13.37 10.84 11.10 7.80 10.32 12.79 13.12 13.40 14.52 15.33 15.52 16.84 17.46 17.54 17.20 16.64 16.42 15.91 15.65 15.93 16.06 17.00 18.67 18.35 24.29 25.79 25.27

GFSNE_sfc_wetblb_012.txt.gz
Wetbulb
40.70 40.46 39.73 40.23 39.95 39.53 39.48 38.86 35.30 32.18 35.53 41.21 41.93 46.24 45.74 45.92 45.47 45.58 45.90 44.82 43.23 44.62 43.33 44.40 44.34 43.90 43.61 43.79 44.22 45.20 48.45 49.72 48.50 49.38 50.54 50.65 50.93 53.17
40.78 40.57 41.38 41.39 40.33 40.06 39.61 38.95 37.96 35.39 32.55 38.33 39.68 41.83 43.22 42.61 43.89 43.81 44.01 43.82 42.83 43.42 43.56 43.10 43.21 42.79 42.69 42.69 42.58 43.13 44.13 46.87 48.03 48.18 47.98 49.26 50.22 50.96
39.90 39.53 39.24 39.83 39.42 39.65 39.82 38.85 37.72 37.44 34.85 37.44 39.86 41.46 41.61 41.88 42.46 43.47 43.63 43.83 44.32 42.35 42.16 42.09 42.14 41.86 41.58 41.45 42.15 42.51 42.89 43.22 44.60 46.65 47.39 47.42 48.55 49.64
37.68 38.13 37.42 37.56 37.99 38.46 38.35 38.10 38.06 38.58 36.67 34.74 37.78 38.60 39.61 41.26 41.79 41.62 41.79 42.47 43.34 42.44 42.07 41.33 41.15 41.02 40.42 40.10 40.25 41.37 41.89 42.28 42.19 42.43 44.09 45.55 46.06 46.77
37.75 37.11 36.76 36.92 36.20 36.58 36.65 36.30 36.45 36.42 36.60 35.22 34.94 37.82 38.45 39.53 39.08 40.18 40.42 41.34 41.57 41.14 40.37 39.87 40.23 40.39 40.35 40.17 40.42 40.42 40.92 41.39 41.17 41.09 40.89 41.88 42.76 43.23
37.01 36.75 36.06 35.43 34.53 34.58 34.50 34.26 34.27 34.56 34.79 34.31 34.19 34.66 36.16 37.65 37.90 36.42 36.60 38.96 38.78 40.21 39.69 38.17 38.61 39.25 39.80 39.68 39.56 39.80 39.92 40.03 40.53 40.85 40.16 39.79 40.06 41.32
35.75 35.38 35.53 34.73 32.46 32.34 32.10 32.44 33.38 33.40 33.77 33.53 33.10 33.96 33.88 34.29 33.79 35.88 34.49 35.96 37.65 39.08 38.43 39.64 40.20 40.52 40.73 38.60 38.49 38.75 38.35 38.63 40.08 41.22 40.41 40.29 39.98 39.92
33.68 34.25 34.48 33.38 33.11 32.21 31.05 30.57 30.88 30.73 29.95 29.53 29.49 29.24 31.31 32.26 33.30 32.71 32.22 30.80 29.49 38.02 36.69 36.53 38.44 37.84 39.53 40.81 38.73 38.48 39.15 39.17 40.02 40.45 40.04 39.65 39.33 39.25
32.72 32.71 32.30 32.58 32.42 32.53 31.26 31.05 30.21 29.75 28.74 30.04 27.82 29.09 29.24 31.10 32.15 30.78 31.27 30.80 30.61 33.99 35.36 33.18 36.81 35.62 37.66 37.99 37.58 38.19 38.62 38.74 39.07 38.87 39.13 38.66 37.68 37.54
32.25 32.10 31.87 31.96 31.53 30.60 29.62 29.07 29.83 31.34 31.63 31.13 30.84 30.47 31.21 31.74 31.70 32.45 32.61 32.33 33.56 33.51 34.76 30.05 34.94 34.23 36.47 36.99 37.31 37.76 38.41 38.15 38.07 38.43 37.80 37.38 36.94 36.54
30.25 30.31 29.55 29.38 29.71 29.86 29.55 29.06 29.28 30.34 32.09 32.62 32.18 31.78 31.72 31.91 32.18 31.94 30.40 29.54 29.47 30.42 33.96 31.81 33.10 33.60 35.55 36.54 39.01 36.63 36.73 36.69 36.56 37.40 37.90 37.41 36.85 36.34
28.77 29.50 29.83 30.29 29.80 29.16 29.49 29.40 27.32 28.20 29.79 30.74 30.91 31.71 32.85 32.42 31.33 32.37 32.17 29.26 29.10 29.25 33.01 31.23 31.31 31.66 30.33 36.79 37.04 38.04 39.89 35.76 35.61 36.47 37.42 37.71 37.16 39.42
26.84 28.11 30.70 29.77 28.11 27.53 27.06 27.46 26.80 28.36 27.24 28.43 28.87 29.22 30.73 32.21 33.05 34.01 33.87 32.45 29.96 29.71 33.63 32.53 32.55 31.86 31.70 32.00 35.36 37.45 37.54 38.45 38.33 38.32 36.31 36.44 36.03 36.54
27.05 29.10 30.56 26.97 26.64 25.92 25.78 25.77 25.43 26.28 27.90 28.88 29.32 28.82 29.68 30.87 32.06 33.55 33.89 34.24 34.80 32.99 34.90 34.10 32.28 31.86 31.25 31.00 31.12 35.40 37.57 38.21 37.14 36.44 39.02 38.30 35.00 34.25
28.93 28.03 26.35 25.65 25.59 25.98 25.20 24.84 25.42 28.32 27.86 27.09 27.76 29.17 31.50 32.82 33.43 33.55 33.84 34.01 34.23 34.62 34.19 34.61 33.65 32.67 32.09 31.67 31.51 33.65 34.39 36.77 36.26 35.50 36.39 38.32 38.38 39.64
26.54 28.76 26.56 25.31 26.03 26.41 26.50 26.45 27.08 27.53 26.63 26.68 27.38 29.07 31.38 32.29 32.09 32.86 31.63 32.51 31.22 31.35 34.89 34.94 33.56 32.82 31.22 31.31 31.83 32.41 34.22 32.66 36.11 35.81 36.00 36.59 37.67 37.93
25.26 26.42 24.73 23.62 24.69 25.14 25.00 25.32 26.58 26.45 26.26 26.97 27.91 28.11 29.24 31.13 31.85 32.23 31.73 31.73 30.69 30.59 31.35 33.11 35.10 33.60 33.57 32.71 31.19 33.42 33.11 33.76 35.77 36.06 34.82 34.53 36.52 37.91
24.16 22.31 21.52 21.63 22.29 23.20 23.52 23.94 24.89 24.58 25.22 26.44 27.58 27.57 27.66 29.70 30.48 31.12 30.40 30.92 30.49 31.22 30.97 32.97 33.36 31.71 31.01 32.14 31.63 31.38 32.08 33.79 34.75 35.82 35.22 31.83 33.58 37.43
21.05 20.67 20.30 20.72 21.40 21.97 22.30 22.70 22.38 23.91 25.22 25.09 25.99 26.25 27.05 28.53 30.38 30.61 30.37 30.56 30.23 30.67 31.86 33.28 32.28 30.49 28.26 27.57 29.71 27.21 29.79 31.85 34.74 33.69 34.29 31.43 32.00 35.22
19.34 19.16 19.09 19.84 20.33 20.96 21.51 21.33 22.34 23.27 23.60 23.86 24.63 25.47 26.03 26.74 27.62 28.43 29.60 29.87 30.35 31.22 30.20 30.07 30.08 30.69 29.32 29.18 30.27 28.07 27.37 28.80 30.94 31.01 32.25 32.32 30.36 25.88
17.65 18.12 18.88 19.24 19.71 20.45 21.12 21.29 22.57 22.64 23.11 23.86 24.07 24.14 24.78 25.93 26.04 26.90 28.04 27.61 28.36 29.63 27.75 27.67 27.11 26.00 30.49 31.45 28.20 27.03 27.36 27.06 28.36 30.18 31.64 30.38 29.36 29.82
17.51 17.77 18.46 18.95 19.27 19.93 20.77 21.35 22.29 22.01 22.16 22.60 23.15 24.05 24.69 25.65 25.06 25.28 25.90 25.94 26.08 26.75 26.00 27.25 28.59 28.74 28.13 26.33 27.29 25.07 26.35 27.00 26.45 25.86 25.63 26.07 27.67 27.82
17.37 17.63 18.32 18.88 19.06 19.17 19.62 20.40 20.95 21.42 21.50 21.43 22.23 23.48 25.17 24.06 25.06 25.42 25.60 26.00 25.44 25.72 25.52 25.79 27.18 28.26 26.71 26.09 26.07 26.58 23.24 24.66 26.40 27.61 26.70 24.90 26.30 26.04

GFSNE_sfc_wetblb_015.txt.gz
Wetbulb
42.36 41.98 40.85 40.33 40.41 39.86 39.70 38.04 35.21 32.44 34.72 38.87 39.07 44.76 46.46 46.28 46.96 47.36 46.75 45.98 44.79 44.18 44.51 44.97 45.85 46.24 45.82 45.19 44.85 44.41 45.57 48.38 49.99 49.09 48.92 50.08 50.71 51.15
42.21 41.25 40.90 41.00 40.85 40.76 39.56 39.11 38.62 35.62 31.79 37.20 38.73 41.19 42.45 42.68 44.83 44.98 44.63 44.39 43.73 42.99 43.15 43.91 44.15 45.17 44.70 44.00 43.38 42.93 43.02 43.57 45.64 47.91 48.15 48.25 48.43 49.20
40.15 39.24 39.20 39.90 39.12 39.61 40.05 39.89 38.83 37.70 34.40 37.26 39.69 41.51 42.37 42.72 42.63 44.16 44.26 44.57 44.53 42.21 41.76 42.74 42.77 43.51 43.24 42.58 42.40 42.93 43.07 43.25 43.38 43.71 44.68 46.87 48.09 48.44
38.91 38.82 38.47 38.53 38.18 38.59 38.32 37.57 37.71 38.75 37.24 34.92 37.79 38.91 39.88 41.74 42.36 42.43 41.68 42.39 43.58 42.81 41.91 41.88 42.04 41.77 41.34 40.84 40.83 40.77 41.33 41.91 42.12 42.50 42.81 42.98 44.10 46.45
37.70 37.10 37.12 37.03 36.24 36.74 37.02 36.58 36.53 36.59 37.04 35.68 35.38 38.33 38.87 39.86 39.69 40.76 41.15 42.35 42.02 42.27 41.73 41.17 41.48 41.35 41.18 40.98 40.77 40.71 40.57 40.52 40.58 40.54 40.73 40.98 41.15 42.14
37.34 37.02 36.77 36.06 35.74 35.63 35.44 35.18 34.76 34.24 34.58 34.63 34.91 35.52 36.94 38.19 38.65 37.51 37.60 40.15 39.99 40.61 40.48 38.90 40.45 40.66 40.40 40.23 39.94 40.29 40.23 40.05 39.61 39.52 39.46 38.98 39.21 39.94
35.45 35.98 36.61 36.57 34.47 33.91 32.83 32.41 32.21 31.95 32.32 32.97 33.07 34.17 35.04 35.79 35.28 37.16 36.31 37.61 38.90 39.97 39.59 40.58 41.73 41.77 40.86 38.95 39.37 39.48 39.27 39.04 38.96 38.69 38.37 39.06 39.39 39.34
32.78 34.14 35.21 35.30 35.08 34.30 33.59 32.94 31.88 29.89 29.24 29.78 30.76 30.85 31.51 33.12 34.52 33.84 33.80 32.78 31.14 38.29 36.23 36.64 39.26 38.73 40.15 40.90 38.90 38.34 39.30 38.52 38.67 38.48 38.41 39.89 39.45 38.94
32.66 33.08 33.17 34.32 33.86 33.72 33.34 32.42 31.73 31.61 29.76 29.64 27.57 28.59 29.58 31.64 32.21 31.48 32.08 32.11 31.79 34.97 35.27 33.63 37.94 36.34 39.31 38.26 38.17 38.04 37.61 38.52 38.94 39.04 39.15 38.67 38.18 38.18
31.70 31.98 31.89 32.09 32.69 31.47 30.86 30.27 30.88 31.38 31.83 31.79 31.12 31.24 32.42 33.19 32.70 32.30 31.84 32.08 33.30 34.32 35.59 30.90 36.05 35.09 37.62 38.67 37.61 37.41 37.41 37.75 38.55 38.30 38.15 37.61 37.23 37.28
29.63 30.73 30.27 29.79 30.70 30.83 29.56 29.02 29.38 30.18 32.60 33.08 33.00 32.93 32.72 32.59 32.92 32.07 29.92 29.52 29.36 30.53 33.99 32.36 33.61 33.88 35.46 36.49 38.37 37.36 36.91 36.74 37.12 37.52 37.36 37.57 37.39 36.74
28.54 28.94 29.85 30.24 30.39 30.49 30.01 29.80 28.15 28.34 29.09 30.05 31.03 31.25 32.17 32.77 32.10 32.55 31.22 28.02 28.51 28.64 33.05 31.54 32.28 32.77 30.69 36.40 37.31 38.04 38.60 36.17 36.14 36.70 36.47 36.77 37.39 38.02
27.02 28.20 30.56 28.90 28.01 27.77 27.61 27.65 27.05 28.34 27.41 27.75 28.32 29.60 30.76 31.62 32.79 34.21 34.11 32.27 29.79 29.59 33.15 32.81 32.37 32.38 32.35 32.17 35.87 37.46 37.78 38.68 39.03 38.60 36.14 36.21 37.08 37.45
26.39 28.87 30.15 28.10 27.08 26.86 26.57 26.64 26.36 26.16 27.23 27.88 28.94 29.48 30.55 31.22 32.34 33.81 34.71 35.51 35.35 33.55 34.85 34.09 31.86 32.21 31.38 31.16 30.99 35.52 36.78 38.02 38.52 37.97 38.16 38.14 36.28 36.59
28.53 27.36 27.76 27.65 26.96 26.81 27.84 26.41 26.27 27.86 29.03 27.90 28.05 29.10 31.12 32.78 33.54 34.02 34.70 34.95 35.00 34.83 34.13 34.80 33.57 33.63 32.92 30.69 30.30 32.84 33.54 36.02 36.95 35.67 37.76 35.77 35.37 36.78
25.48 26.13 27.97 26.85 26.89 28.19 28.54 28.47 29.05 28.86 27.84 27.81 28.33 29.59 31.58 31.80 32.39 33.91 32.43 32.50 32.04 32.08 33.99 34.70 34.59 33.63 31.69 31.73 31.70 31.53 33.56 32.52 36.23 35.71 35.05 34.72 34.51 38.03
24.06 26.88 25.15 24.06 23.81 25.42 26.70 26.96 27.90 27.50 27.07 27.51 28.12 28.97 29.75 30.36 31.83 33.79 31.92 31.93 30.70 30.72 31.14 33.46 34.31 34.15 33.50 32.36 30.52 32.19 32.44 33.40 35.33 35.72 34.99 34.43 35.85 36.70
24.42 22.74 22.10 22.21 22.03 23.00 23.78 24.50 25.54 25.11 25.66 26.58 27.53 27.90 27.90 28.49 30.45 32.33 32.06 31.09 30.10 31.32 31.64 32.65 33.30 31.22 30.74 31.56 32.72 30.84 32.05 32.62 34.30 35.18 35.70 33.50 33.06 37.16
21.43 21.37 20.84 20.75 21.30 22.31 22.61 22.88 23.08 24.99 25.71 25.48 26.25 26.52 27.02 27.72 29.37 30.06 31.19 31.41 30.69 31.75 32.43 33.43 32.31 31.08 28.63 27.42 28.15 28.60 29.59 31.34 32.79 32.87 34.85 35.03 31.73 33.48
20.55 20.06 19.96 20.69 20.66 20.78 21.40 21.74 23.10 24.31 24.55 25.42 25.24 26.17 26.14 27.18 27.65 27.76 28.99 28.72 29.08 30.72 30.81 31.42 30.89 29.33 28.21 27.03 28.52 26.09 27.44 27.70 29.46 30.72 31.31 34.38 31.78 28.21
19.21 19.35 20.23 20.12 20.25 20.51 21.77 22.53 23.71 23.47 23.89 24.07 24.48 24.97 25.81 26.45 26.61 26.85 26.94 27.64 28.12 28.36 27.45 27.06 27.54 27.49 29.77 31.62 29.00 28.08 27.11 26.82 27.20 27.55 29.25 31.38 29.89 30.00
18.82 18.75 19.24 20.00 19.91 20.16 21.09 22.01 22.79 23.28 22.66 22.38 23.60 25.29 26.43 26.62 25.52 25.89 26.27 25.97 26.32 26.90 26.64 28.18 28.93 28.54 28.07 26.33 26.58 26.42 27.35 28.01 26.75 26.32 26.28 26.18 26.02 25.51
18.38 18.66 19.41 19.48 19.43 19.54 19.54 19.97 20.44 21.61 21.74 21.44 21.90 23.90 25.37 24.91 25.80 26.16 26.20 26.41 25.77 25.88 26.29 26.16 27.41 28.04 26.56 25.74 25.42 26.77 24.14 25.81 26.31 27.88 27.33 25.97 26.51 26.53

GFSNE_sfc_wetblb_021.txt.gz
Wetbulb
38.09 40.60 40.51 39.95 39.20 39.50 39.14 37.15 34.32 29.31 28.19 31.39 32.51 38.87 39.66 40.42 42.37 42.85 43.43 43.53 44.07 43.80 43.38 43.96 44.72 45.65 46.54 47.08 47.71 48.65 51.45 52.77 51.44 50.67 49.59 49.71 49.86 50.53
37.63 37.40 36.70 39.40 38.81 39.25 38.92 38.49 37.27 34.13 30.17 33.24 35.23 36.77 39.08 40.99 41.68 42.10 42.05 41.86 42.19 42.93 42.24 42.75 43.30 44.18 44.81 45.70 45.71 45.48 45.26 45.26 46.82 48.32 48.99 49.19 49.16 49.08
35.51 35.30 35.52 37.04 36.78 36.89 36.97 36.51 35.75 35.84 32.51 33.33 35.54 35.66 35.16 37.06 38.68 40.68 41.61 41.17 41.25 41.69 41.89 41.83 41.93 42.47 43.10 43.66 43.72 43.47 43.72 43.98 43.41 43.04 43.32 43.96 45.18 47.05
30.75 30.44 30.88 33.56 31.72 32.69 33.16 32.50 32.43 32.38 30.57 28.15 29.34 30.92 32.02 34.50 34.62 34.10 37.73 40.06 39.66 41.57 42.07 41.70 41.79 41.53 41.55 41.69 42.16 42.14 42.00 41.82 41.63 41.98 41.78 41.35 41.83 43.02
29.99 29.38 29.20 29.54 28.83 29.92 30.49 29.97 30.07 31.99 28.71 26.71 25.73 28.46 29.52 31.57 32.54 32.42 32.72 33.32 37.15 40.94 40.24 40.62 41.07 41.68 41.76 41.55 42.05 41.80 41.47 40.71 40.05 40.13 40.22 40.43 41.08 41.17
29.57 28.95 28.81 28.90 28.44 28.78 30.07 29.06 29.58 27.32 26.93 25.34 25.52 25.99 26.85 29.43 29.95 28.78 28.59 30.67 31.88 36.77 37.97 36.79 38.94 40.69 41.39 41.46 41.14 41.37 41.12 40.95 40.30 39.42 38.86 38.15 38.16 39.38
27.53 28.23 28.52 30.03 32.69 32.96 31.33 29.78 27.18 25.45 24.76 24.34 24.02 24.13 24.29 24.34 24.44 26.90 25.99 26.92 28.38 31.28 31.06 31.44 32.19 33.64 35.48 38.62 40.69 40.76 40.85 40.75 40.36 40.02 39.38 38.43 37.94 38.29
24.80 25.60 26.96 29.18 29.74 30.80 32.03 31.89 31.19 27.54 24.27 23.09 22.97 22.43 23.10 24.08 24.81 24.26 24.40 23.79 23.45 29.96 28.88 27.32 30.83 29.99 32.91 34.76 37.92 38.85 38.62 38.23 38.22 38.40 38.86 38.88 38.32 37.79
23.84 24.59 25.15 27.35 27.77 27.89 29.32 30.26 30.15 31.44 29.94 27.91 26.16 24.60 24.39 24.93 25.26 24.26 23.80 23.76 23.81 27.03 27.30 23.46 24.04 27.23 29.91 34.53 37.45 38.11 38.08 37.72 37.52 37.26 37.12 36.90 37.31 36.95
24.84 24.65 24.26 25.13 26.22 26.97 26.53 26.57 26.68 27.41 27.96 28.68 27.79 27.62 27.24 28.30 28.08 28.40 27.66 29.84 28.50 27.50 27.51 23.53 21.91 25.29 26.48 28.91 35.60 37.76 38.17 38.10 37.61 37.50 37.31 36.80 36.42 36.48
26.04 25.98 25.63 25.14 27.62 29.86 26.96 25.31 25.91 27.27 30.60 31.92 32.26 31.95 32.18 32.48 32.71 30.38 27.87 26.55 24.37 24.67 25.82 24.22 24.54 21.99 23.44 26.14 29.23 35.18 36.60 37.31 37.31 37.35 37.15 37.26 36.93 36.50
23.76 24.85 26.17 26.03 28.63 28.72 27.37 23.16 22.62 23.75 25.20 25.67 25.66 26.87 28.22 28.14 29.59 28.82 27.77 25.20 25.18 23.89 25.12 24.56 24.77 23.36 19.89 23.84 28.93 29.49 26.73 35.06 36.25 36.83 37.19 37.35 37.04 35.10
22.34 22.57 24.45 26.61 26.93 28.64 28.01 26.01 24.53 25.82 26.47 25.29 24.47 24.62 25.76 26.92 28.17 29.67 29.63 28.68 26.52 25.95 28.43 28.13 23.26 22.78 23.34 23.76 22.50 24.38 27.99 29.85 30.52 32.20 36.57 37.18 37.26 36.55
21.69 23.27 24.21 27.19 27.87 27.16 26.98 28.14 28.89 27.47 25.52 24.34 24.08 24.27 25.35 27.15 30.09 32.03 32.31 31.44 31.17 29.83 31.18 30.47 28.39 27.47 26.26 22.41 23.94 26.86 26.02 27.21 27.67 27.55 27.71 33.34 35.81 36.52
23.36 24.48 26.18 25.96 25.87 26.08 27.22 27.58 27.09 27.02 25.76 24.68 25.12 25.70 26.95 28.63 30.51 29.89 29.82 30.58 31.99 33.02 33.26 32.19 31.73 30.29 29.99 27.32 25.26 24.91 27.30 26.86 23.35 29.11 32.76 32.31 28.59 29.84
22.83 23.16 24.70 24.06 23.98 24.30 24.39 24.86 25.29 24.94 24.18 23.27 23.98 26.07 27.95 26.94 25.74 27.05 29.20 29.02 23.84 23.87 30.40 31.59 31.51 31.35 29.07 29.42 29.25 27.87 26.03 22.40 25.14 31.91 32.63 31.54 27.06 29.60
21.94 21.83 20.84 20.24 20.54 21.78 21.99 22.54 22.77 23.70 22.75 23.34 23.66 24.54 25.09 25.64 25.78 27.81 29.45 25.49 23.12 21.49 24.39 26.95 30.15 30.32 30.22 29.73 27.28 27.23 26.08 23.92 24.82 25.96 29.74 30.59 32.25 29.72
19.95 18.42 17.57 18.52 18.37 18.93 19.23 19.99 20.87 22.41 22.06 22.50 23.00 23.75 23.30 23.54 24.70 26.31 26.79 24.98 24.43 23.17 22.81 26.64 27.50 28.88 29.17 28.06 30.97 28.63 24.60 22.99 22.58 24.25 30.23 30.07 28.90 28.79
17.58 17.14 16.41 16.92 16.85 18.10 18.07 18.72 18.62 21.91 22.15 21.20 21.29 21.66 22.68 23.47 24.58 22.55 23.25 23.04 24.70 26.99 25.52 23.95 23.68 25.21 25.64 23.95 23.38 29.00 27.06 26.86 24.36 21.36 22.77 27.44 29.09 31.71
14.57 16.43 16.30 16.57 16.66 16.85 17.13 17.52 18.08 19.22 18.79 18.88 19.46 19.71 21.32 22.58 20.53 21.73 22.39 20.68 24.04 25.30 23.61 23.00 20.70 20.01 20.52 19.16 17.36 14.76 27.82 18.11 18.25 20.95 22.91 23.26 25.64 29.76
11.25 14.34 16.04 16.53 16.14 16.43 15.36 15.42 15.84 16.12 15.37 15.62 16.27 17.70 18.67 21.39 20.95 19.65 19.16 19.37 19.94 23.71 21.81 20.99 20.75 22.30 23.83 20.44 18.89 15.75 14.79 26.44 21.15 16.55 18.17 16.11 21.64 26.59
5.78 10.42 15.07 15.62 14.55 14.62 14.63 13.86 13.98 12.94 12.64 13.04 13.17 14.25 16.57 19.06 18.95 20.06 20.15 20.27 16.26 15.49 18.33 20.12 25.07 27.22 23.93 21.36 18.21 17.15 16.90 11.56 21.34 26.47 26.41 24.08 18.00 18.99
2.73 6.28 7.76 10.61 12.72 13.46 14.90 13.20 11.96 9.74 10.13 10.65 10.72 11.74 13.23 15.63 16.95 18.67 17.54 17.18 19.25 15.22 15.94 20.26 23.25 23.27 22.42 21.12 17.88 20.12 12.35 13.17 15.35 17.67 17.04 25.34 26.75 26.86

GFSNE_sfc_wetblb_024.txt.gz
Wetbulb
35.52 36.89 36.80 37.59 37.26 38.83 37.92 36.65 32.84 29.03 29.97 30.68 31.12 35.50 36.86 38.79 40.91 40.01 41.42 41.67 41.36 41.28 41.78 44.34 44.71 46.42 46.40 46.34 46.42 46.86 48.60 49.98 53.68 54.23 52.16 51.35 50.62 50.79
35.99 33.88 33.71 34.74 35.34 35.21 35.10 35.89 35.45 32.80 30.24 33.99 34.09 34.44 36.33 37.58 40.04 40.46 40.69 40.97 40.97 41.01 41.11 42.05 43.71 44.90 45.09 45.15 45.33 45.27 45.31 46.43 46.78 49.08 50.07 49.78 49.20 48.72
30.13 29.96 29.90 30.27 29.66 30.11 30.99 31.90 33.71 34.67 31.01 30.19 33.03 32.42 31.40 32.08 34.04 36.77 40.58 40.77 40.57 41.14 41.17 41.53 41.90 42.51 43.28 43.37 43.78 43.75 43.99 44.77 44.43 44.09 44.47 45.27 46.05 46.33
29.28 28.82 28.69 30.29 27.54 27.85 28.03 28.12 29.57 30.72 28.72 25.97 27.47 28.55 29.48 30.76 31.08 30.99 34.91 37.22 38.76 41.18 41.46 41.38 41.33 41.17 41.70 41.72 42.21 42.42 42.64 42.49 42.26 42.50 42.08 41.56 41.43 41.39
27.79 27.30 27.35 27.37 25.98 26.63 26.91 27.46 28.55 30.57 27.95 26.04 25.46 27.29 28.00 29.41 29.44 30.42 31.10 31.64 35.55 38.34 39.49 39.72 40.80 41.72 41.78 41.59 41.87 42.30 41.96 41.22 40.44 40.14 40.35 40.49 41.07 41.45
27.85 27.36 26.50 26.11 25.69 25.81 27.31 27.41 28.19 26.28 26.22 25.24 24.42 24.64 25.96 28.00 28.02 26.35 25.87 28.21 29.66 33.33 36.49 36.40 37.23 38.95 40.41 40.98 40.99 41.58 41.65 41.32 40.39 39.49 38.62 37.90 38.14 39.45
26.63 26.47 26.24 27.43 29.48 28.65 28.42 27.78 27.33 25.94 25.88 24.84 23.69 23.74 23.58 23.82 23.86 25.02 24.02 24.81 26.38 29.16 30.26 30.76 31.94 33.15 34.63 36.35 38.79 40.73 40.72 40.70 40.36 39.90 39.30 38.49 37.86 38.30
24.38 25.07 25.20 27.33 26.77 28.45 28.97 29.61 29.13 26.97 25.87 25.97 25.36 23.77 22.36 22.77 23.34 23.08 22.73 22.40 21.94 27.19 27.58 26.79 29.40 29.39 31.25 32.96 36.91 37.86 38.88 39.28 39.83 39.97 39.57 38.94 38.44 37.97
24.06 24.28 25.10 26.34 26.54 25.85 27.21 28.42 28.45 29.60 28.29 27.29 25.56 24.93 24.18 24.11 24.05 23.07 22.56 22.44 22.51 25.42 25.50 23.47 22.92 26.30 28.92 32.41 35.75 36.99 37.74 37.99 37.89 37.63 37.48 37.22 37.15 37.00
25.33 24.68 23.96 23.77 25.01 25.50 25.95 26.93 26.98 26.98 27.37 27.56 26.44 26.60 26.35 27.03 26.18 26.46 26.17 25.33 27.32 28.10 26.51 24.31 20.88 21.99 25.39 26.97 33.21 35.82 37.38 37.74 37.83 37.58 37.28 36.94 36.24 35.90
24.46 24.47 24.14 23.68 25.98 28.39 26.23 25.88 24.82 25.40 28.04 29.13 30.03 30.53 30.70 31.75 31.45 29.65 26.96 26.60 21.52 24.41 25.09 23.06 23.35 21.43 21.77 24.70 27.22 33.87 35.84 36.74 36.98 37.36 37.36 37.24 36.86 36.18
22.97 23.71 24.84 24.96 26.64 27.16 25.85 24.38 23.38 23.80 24.26 24.26 24.81 26.20 26.79 26.84 28.18 26.75 25.21 22.66 22.79 21.81 24.65 23.62 23.78 21.53 17.98 22.38 26.56 26.22 26.47 33.47 35.68 36.54 37.33 37.37 37.08 34.56
21.40 21.91 23.45 25.68 28.01 27.22 27.30 25.38 25.06 26.59 26.01 26.41 25.01 24.32 25.13 26.39 27.25 28.02 27.93 26.08 24.09 23.61 26.89 25.96 21.91 21.34 22.69 21.71 21.19 23.02 24.14 24.97 25.46 28.78 35.88 36.67 37.21 36.39
21.53 22.84 24.23 25.99 26.29 26.61 26.61 27.38 26.82 26.59 25.98 24.81 24.47 24.28 24.75 25.82 28.01 29.46 30.47 31.12 30.50 28.80 29.46 29.75 26.75 25.05 22.45 19.50 22.24 24.28 23.11 22.85 22.32 25.58 26.16 30.99 33.95 35.76
23.27 24.77 24.58 24.52 24.63 24.90 25.48 26.10 24.78 24.39 23.62 22.74 23.57 24.96 26.71 28.34 29.73 29.46 29.67 29.37 30.79 31.63 31.68 31.74 29.70 28.07 27.73 25.68 24.45 24.17 24.14 25.66 24.00 23.33 25.69 31.50 32.14 30.56
22.00 22.72 22.15 22.90 22.71 23.21 23.17 23.88 23.55 23.94 23.06 22.67 23.37 24.96 26.75 26.34 26.52 28.40 26.58 29.93 27.65 25.52 28.77 31.58 31.64 30.75 29.36 28.84 28.19 23.17 25.61 24.88 24.66 27.61 25.03 26.61 31.18 31.24
15.09 17.59 18.85 19.00 18.79 19.45 19.96 20.94 21.37 22.91 21.71 22.03 22.99 23.11 24.44 25.36 25.34 26.25 27.51 26.19 24.22 24.49 24.38 24.72 29.65 30.78 30.39 29.71 25.23 24.12 23.21 23.68 23.37 22.88 29.57 29.71 30.66 31.97
14.40 12.15 15.30 16.16 15.59 17.08 16.97 17.56 18.57 20.09 20.29 20.69 20.51 21.13 21.95 22.79 24.41 24.47 23.44 23.31 22.49 23.80 25.65 28.62 28.01 28.01 28.08 26.45 30.29 26.13 26.74 26.30 22.41 28.83 28.69 28.05 28.22 25.76
8.70 8.57 11.97 14.84 15.12 16.26 16.12 16.61 16.18 17.48 18.90 18.76 18.70 18.73 19.65 22.13 22.29 21.89 22.08 21.73 22.83 23.90 22.04 20.40 22.16 21.97 24.81 22.05 20.35 27.92 26.16 27.03 23.39 24.02 25.05 24.28 27.17 28.94
9.51 6.59 11.05 14.37 14.55 15.39 14.98 14.65 14.99 14.54 14.08 14.84 15.62 16.25 16.99 19.90 20.20 20.41 20.86 19.92 21.27 23.10 21.83 21.05 18.32 19.98 19.35 17.13 17.33 14.37 26.56 14.52 13.56 13.40 15.37 16.92 22.59 28.91
8.43 8.84 5.76 11.83 12.74 13.81 12.45 12.30 10.30 10.62 9.98 9.92 11.97 13.17 14.13 17.12 17.41 19.50 18.75 16.32 16.14 19.61 17.84 17.17 19.63 21.63 21.73 17.94 15.38 12.55 14.14 25.27 20.17 14.13 15.02 17.86 15.90 22.77
3.51 7.36 7.42 7.84 6.23 9.77 9.49 9.77 10.35 8.86 8.75 8.67 8.50 9.58 10.83 14.42 15.61 16.52 15.95 15.82 14.95 11.97 15.31 18.07 22.18 24.66 20.44 20.29 15.82 12.72 15.64 11.29 19.45 25.26 26.41 23.05 15.76 14.34
0.63 4.50 2.20 0.68 3.52 6.15 11.58 8.31 7.61 2.97 7.05 7.38 7.61 8.51 8.77 10.68 13.82 13.85 11.59 12.35 13.18 12.64 15.19 17.42 18.78 20.45 20.67 21.31 15.76 18.27 12.00 10.66 14.53 16.69 14.32 24.76 26.90 27.03

GFSNE_sfc_wetblb_027.txt.gz
Wetbulb
33.45 33.27 32.84 33.39 33.08 34.08 34.71 34.95 31.89 26.89 27.75 30.69 33.57 35.20 35.03 35.87 38.02 38.39 38.74 41.51 41.43 40.87 41.00 42.02 43.09 44.68 45.74 45.02 46.34 46.65 49.00 51.15 53.22 55.01 55.00 53.83 53.03 52.11
32.93 29.11 28.58 30.11 29.45 30.29 29.86 31.70 31.98 30.85 27.09 33.46 32.33 33.44 34.44 34.48 35.40 34.52 36.98 41.62 40.89 39.85 39.39 40.44 41.37 42.37 43.28 44.43 45.26 45.73 46.77 48.68 50.73 51.89 51.70 51.12 50.91 50.37
28.41 28.29 28.29 28.74 27.94 27.23 27.57 28.07 27.71 27.82 25.65 28.49 31.31 32.65 29.85 29.51 31.54 31.63 33.66 33.94 37.61 40.65 39.38 39.19 39.76 40.87 41.46 41.95 42.95 44.16 44.90 46.78 47.49 48.25 48.85 49.35 49.62 49.69
27.43 27.17 27.18 29.16 25.74 25.71 25.87 25.99 26.35 27.29 26.40 25.00 26.93 27.25 27.57 28.86 28.87 29.10 32.56 35.09 32.85 37.81 39.47 40.35 39.89 39.88 40.87 40.74 40.94 42.33 43.08 43.98 44.53 44.91 45.87 45.89 45.50 45.37
27.11 26.67 26.43 25.68 24.22 24.47 25.13 25.13 25.94 28.40 27.18 26.22 26.15 26.01 26.39 26.69 26.99 28.17 29.67 28.64 32.09 35.28 36.32 37.58 38.99 40.68 40.93 40.44 40.80 41.45 42.30 42.02 41.05 41.02 41.25 41.74 42.59 42.97
27.39 27.05 26.05 25.20 24.22 24.14 24.74 25.30 27.10 26.97 26.91 26.29 25.32 25.06 25.11 26.34 26.04 25.21 24.68 26.19 26.14 30.73 32.68 35.64 36.29 37.45 39.44 40.50 40.62 40.93 41.49 41.77 40.73 39.66 38.70 37.91 38.32 39.64
26.83 26.78 26.46 27.16 29.85 28.20 25.70 24.12 24.08 25.06 26.13 25.75 25.55 25.33 24.19 23.20 22.79 24.05 23.28 23.46 24.82 26.16 27.73 30.24 31.72 32.66 33.43 35.13 36.97 39.67 41.01 41.18 40.92 39.83 39.03 37.97 37.65 38.40
25.31 26.07 25.73 27.29 26.99 27.70 27.69 28.26 27.41 24.46 23.79 24.39 24.21 23.65 23.71 22.64 23.12 22.79 22.26 21.56 20.90 25.72 26.01 25.18 28.65 29.96 30.76 32.78 35.53 36.48 38.19 39.20 40.18 40.23 39.49 38.73 38.25 37.93
24.62 24.49 24.26 25.46 25.52 24.76 26.17 26.98 27.21 28.65 27.65 26.12 24.62 24.62 24.17 24.13 23.92 22.73 21.98 21.98 21.92 24.65 24.41 22.57 23.46 26.53 29.80 31.71 34.01 35.31 36.50 37.36 37.87 38.53 38.70 38.14 37.28 36.85
23.12 23.03 23.14 22.95 24.21 24.85 25.39 26.57 25.06 26.68 27.27 27.25 26.56 26.77 26.27 26.62 25.56 25.93 25.03 26.03 24.99 26.12 26.03 24.84 21.14 22.19 25.81 27.58 32.74 34.38 35.84 36.77 37.40 37.63 37.29 36.84 36.30 36.00
23.37 23.49 23.79 23.23 25.44 27.95 26.31 24.57 24.24 25.37 28.31 28.86 28.82 28.87 29.38 30.31 30.35 28.69 26.29 25.20 20.37 23.59 24.41 22.93 22.40 19.74 21.49 23.59 26.24 32.51 34.96 35.55 36.28 36.90 37.45 37.19 36.78 36.16
22.03 22.80 24.53 25.01 27.10 27.24 25.48 24.58 22.73 23.96 25.16 24.78 24.56 25.63 27.15 26.38 27.62 25.89 24.27 22.71 21.65 18.24 23.07 22.93 23.15 21.09 16.92 19.93 21.77 23.10 24.17 33.44 35.08 35.84 36.56 37.11 36.99 32.78
21.24 21.64 23.33 25.97 26.26 26.84 26.64 25.51 25.33 25.83 26.15 26.60 26.47 26.16 25.92 26.01 25.64 25.81 25.58 23.94 22.19 21.77 24.93 25.74 20.86 20.18 20.85 20.21 20.29 22.34 22.67 22.43 23.68 26.90 35.01 36.50 37.07 35.75
21.41 22.44 23.97 25.18 25.42 25.47 25.15 26.27 25.83 24.98 24.20 23.70 24.08 24.31 25.03 26.08 27.78 28.65 29.22 28.83 28.69 27.22 28.97 28.26 24.76 24.32 22.71 18.92 19.25 21.53 20.65 19.81 20.26 21.11 22.25 29.63 33.88 34.96
21.02 22.52 23.47 23.53 23.25 23.16 24.05 24.67 23.38 23.00 21.87 21.15 21.86 23.59 25.51 27.12 28.47 29.15 29.75 30.00 30.34 31.52 31.14 30.89 28.15 26.16 27.13 23.19 21.28 20.05 20.63 21.85 19.52 21.73 21.15 24.43 26.49 30.56
18.00 17.96 18.54 21.70 20.50 21.07 21.12 21.70 21.47 22.33 21.65 20.74 21.78 23.50 25.74 26.19 26.29 27.82 26.99 29.13 27.89 26.11 29.87 31.58 31.18 30.18 27.97 28.26 26.51 23.31 24.23 24.10 23.20 24.77 23.40 20.77 23.95 30.32
11.58 9.87 12.35 15.86 16.00 17.49 17.96 18.60 19.10 19.54 18.69 19.47 19.83 20.17 22.12 24.01 25.29 26.66 26.53 26.24 23.27 23.91 26.10 27.53 30.15 30.94 30.30 29.57 27.61 24.97 23.53 22.89 22.22 23.56 24.76 23.40 23.64 30.48
11.69 5.40 3.05 6.28 11.16 14.95 14.92 15.51 16.40 15.91 16.66 17.56 17.72 18.33 18.74 20.82 22.85 23.92 23.83 24.04 23.52 23.67 22.79 25.93 27.89 28.15 28.00 27.08 30.41 27.14 26.39 26.40 27.55 27.17 28.81 28.32 26.01 22.87
6.10 3.53 -1.11 3.42 5.41 14.32 14.20 14.18 13.37 13.61 14.71 14.66 15.07 15.27 16.35 19.12 20.54 21.07 21.29 22.29 22.20 23.00 22.16 20.56 21.10 24.51 24.47 22.34 20.86 27.75 25.58 27.30 26.47 26.39 26.53 26.16 22.80 22.95
7.93 4.05 1.61 2.69 6.30 12.03 13.42 12.78 12.03 10.48 10.09 10.59 11.62 12.17 13.05 15.43 16.78 18.66 19.67 17.01 18.16 20.53 18.83 19.00 17.91 18.13 16.60 14.26 16.40 13.06 25.20 13.61 12.63 15.01 16.97 15.34 19.10 25.87
7.35 7.73 2.11 5.05 4.98 6.76 2.87 6.59 6.06 7.55 6.82 5.68 7.91 8.80 9.60 12.55 15.07 16.38 15.80 15.61 15.19 17.55 16.20 15.80 16.90 20.02 20.26 14.15 11.03 10.66 14.50 24.75 19.17 14.64 13.38 17.64 15.89 18.28
2.77 6.80 7.11 5.47 1.20 1.55 -2.02 -2.20 2.81 4.47 6.72 6.84 5.99 5.43 6.82 9.35 12.16 13.01 13.91 11.36 12.40 10.87 13.94 16.97 20.02 22.54 17.83 18.40 13.46 5.21 13.05 12.28 18.08 24.82 25.79 22.40 14.91 12.43
2.56 4.99 1.82 -1.33 -0.41 -0.97 3.85 -1.48 -1.30 -3.12 4.62 5.98 6.00 6.59 4.89 6.27 10.66 10.19 10.23 10.50 12.06 11.97 13.18 15.46 17.52 18.22 18.63 20.07 14.46 12.60 14.96 11.13 12.86 15.89 14.25 23.74 26.64 27.04

GFSNE_sfc_wetblb_030.txt.gz
Wetbulb
33.10 32.63 32.20 31.94 30.77 30.79 31.23 30.68 29.59 23.49 24.18 28.36 31.25 36.14 37.09 38.13 36.20 36.56 37.04 39.33 41.53 40.32 40.37 40.85 41.48 42.71 43.79 45.03 45.13 45.29 48.10 50.68 52.34 54.54 55.06 55.44 54.96 53.83
33.49 30.19 28.69 29.01 28.83 29.14 28.20 28.51 28.96 27.21 23.68 28.81 29.87 33.19 35.24 36.59 35.75 34.95 34.21 37.26 37.45 40.36 39.25 39.26 39.43 40.16 41.67 42.68 43.11 43.70 44.26 48.17 51.64 53.64 54.15 54.64 53.48 52.50
29.07 28.71 28.05 28.23 27.37 27.13 26.99 26.71 26.52 26.97 24.01 26.23 29.14 31.32 32.05 31.86 32.60 32.87 33.92 33.96 35.39 36.70 39.43 39.36 38.71 38.46 39.25 41.11 41.30 41.94 43.56 45.93 49.16 51.14 52.69 52.75 51.85 51.69
27.89 27.28 27.51 29.02 26.29 25.64 25.45 24.92 25.23 26.08 25.12 24.22 27.16 28.29 28.98 30.44 30.17 29.83 31.89 34.10 32.72 35.30 36.41 37.44 39.82 38.90 37.94 38.88 40.63 41.10 41.87 43.46 45.59 47.26 49.23 50.27 50.84 50.85
27.42 26.88 26.86 26.50 24.77 24.52 24.65 24.54 25.15 26.22 27.62 27.06 26.44 28.42 28.15 28.59 28.33 29.07 29.51 30.11 31.86 33.67 34.08 35.09 36.59 39.33 40.18 39.79 39.07 40.62 41.22 41.98 42.58 42.94 43.32 43.51 45.22 46.20
27.65 27.14 26.73 26.15 25.15 24.52 25.06 24.97 24.78 24.84 24.85 24.37 25.64 26.68 26.93 27.97 27.56 26.86 26.52 28.13 27.91 30.53 31.73 32.64 35.41 36.22 37.87 40.57 40.26 40.42 40.75 40.87 41.28 40.11 39.81 39.32 39.73 41.50
27.12 27.46 27.68 28.12 29.89 28.63 26.52 25.18 24.18 23.55 24.24 23.97 23.58 24.70 25.53 25.84 24.91 26.52 25.42 25.62 26.81 28.08 28.13 29.98 32.07 32.31 34.13 35.02 36.64 39.15 40.71 40.74 40.61 40.68 39.13 37.97 37.88 39.07
25.03 25.26 25.39 26.25 26.10 27.00 26.85 27.18 26.62 24.35 23.86 23.81 23.54 22.94 23.97 25.31 26.00 25.16 24.73 23.62 22.77 27.95 28.13 27.38 29.40 29.81 32.19 33.32 34.51 35.39 36.73 38.39 40.21 40.64 39.71 38.62 38.16 37.95
22.76 22.50 22.79 24.51 24.82 24.38 25.34 26.54 26.71 27.77 27.35 26.06 25.16 24.51 25.05 26.14 26.17 24.83 24.27 23.51 23.62 26.48 26.66 25.29 27.15 28.33 30.97 32.06 32.96 34.34 35.40 36.33 37.70 38.72 39.22 38.50 37.65 37.08
22.71 22.44 22.46 22.84 24.20 25.04 25.87 26.46 26.27 26.58 26.67 26.61 26.73 26.34 27.15 28.11 27.86 27.56 26.58 26.11 26.56 27.23 27.45 24.42 26.55 27.42 29.17 29.80 31.71 33.74 34.47 36.01 36.71 37.59 37.77 37.76 37.35 36.76
23.06 23.25 23.71 23.76 25.64 28.38 25.77 24.68 24.56 25.62 28.22 29.27 29.33 29.33 29.26 29.15 28.95 28.59 25.87 25.32 24.04 24.69 26.85 26.86 25.44 25.59 26.34 27.96 29.78 32.16 33.40 34.76 35.93 36.46 37.44 37.30 36.88 36.22
22.52 23.13 24.16 24.68 26.07 26.50 25.50 23.60 22.62 24.05 24.92 26.05 27.10 27.24 27.99 27.79 28.07 26.89 25.52 23.77 24.21 21.91 25.34 24.79 24.98 24.59 22.96 25.01 26.33 28.20 30.48 33.44 34.78 35.36 36.30 36.91 37.32 37.11
21.44 21.41 22.84 24.93 25.29 25.58 25.62 24.21 24.41 24.89 24.28 24.56 25.40 26.34 27.33 27.69 27.47 27.02 26.37 24.81 23.15 22.91 25.99 26.58 24.34 23.65 24.63 24.54 26.37 27.80 27.42 28.53 30.95 32.91 35.40 36.11 36.51 36.48
19.94 20.98 21.60 24.09 24.20 23.89 23.86 25.01 24.33 23.38 22.79 22.37 22.69 23.81 24.75 25.81 27.39 29.57 29.45 27.53 27.42 26.12 28.31 28.53 26.49 25.77 25.06 23.84 24.33 27.53 28.41 28.00 29.03 29.78 30.16 31.66 35.61 36.21
19.67 20.89 22.06 21.96 21.68 21.49 22.22 22.78 21.69 21.28 20.69 19.80 20.23 21.51 23.49 25.78 27.69 28.26 29.55 30.57 29.83 29.58 29.94 30.66 28.44 28.03 28.15 25.77 25.51 26.11 27.18 28.20 27.43 28.82 28.71 31.11 31.98 32.52
16.63 15.81 15.32 19.43 15.80 16.76 18.75 19.84 19.44 19.28 19.02 18.62 19.24 20.81 23.25 24.77 25.89 27.86 27.38 29.08 28.23 28.63 30.48 32.03 30.94 30.17 27.86 28.24 27.78 26.58 27.62 28.44 28.03 27.90 28.87 30.06 31.46 31.60
9.67 8.26 10.62 11.52 12.97 15.32 15.83 16.77 17.43 16.51 16.12 17.08 17.57 18.31 19.72 21.50 23.57 25.91 25.98 26.07 25.26 25.93 27.20 29.34 31.31 31.86 31.49 30.53 27.71 28.01 27.33 27.69 28.61 28.44 28.36 28.66 29.68 31.73
11.08 4.36 -0.34 -0.88 4.71 12.40 13.29 13.58 14.26 12.88 13.46 15.18 15.83 16.26 16.51 18.09 20.68 23.23 23.95 24.13 23.96 24.55 24.36 25.40 28.47 28.74 28.92 28.26 29.93 28.28 27.83 27.96 28.79 29.73 28.62 27.85 28.75 30.44
6.79 4.04 -2.87 -3.78 0.57 10.46 12.17 12.40 12.03 11.71 12.67 11.97 12.70 13.26 14.48 16.56 18.66 19.78 20.83 20.44 20.87 22.43 23.17 24.13 24.92 26.48 25.64 23.94 25.09 28.19 26.78 27.76 28.21 28.69 28.66 28.70 27.91 28.53
8.54 5.29 1.83 1.48 6.14 9.38 10.57 10.07 10.60 9.80 9.04 8.82 9.62 9.20 10.46 13.52 15.97 16.27 16.80 16.71 17.65 19.81 20.74 22.14 22.44 22.59 22.57 22.11 22.62 24.60 24.77 22.69 22.01 21.74 22.59 22.71 24.04 25.31
8.08 8.85 4.02 6.38 7.26 7.40 0.92 -0.15 -3.24 4.19 7.09 5.47 6.83 7.61 6.64 9.18 13.10 14.45 14.85 11.74 13.28 17.02 16.60 17.86 20.08 21.32 22.46 20.97 20.06 20.99 23.04 24.31 22.76 22.77 21.44 21.24 21.84 23.88
6.31 8.34 8.98 7.77 4.76 4.00 -1.42 -5.41 -0.34 -1.46 2.89 6.40 6.51 5.92 6.26 7.59 9.66 10.19 12.04 12.41 13.52 14.13 14.79 17.96 21.22 22.81 22.82 22.02 19.95 16.07 21.71 20.89 21.31 24.48 25.47 24.41 23.44 21.20
6.34 7.51 6.30 2.74 2.36 1.36 5.63 1.29 0.30 -4.14 0.18 3.39 5.90 7.30 6.44 6.86 9.55 9.90 9.97 11.66 12.38 12.13 12.95 15.15 17.16 19.34 20.03 20.87 18.72 18.54 19.91 20.20 19.76 22.38 23.58 24.79 26.41 26.86

GFSNE_sfc_wetblb_033.txt.gz
Wetbulb
41.07 40.39 39.58 39.48 38.37 37.12 36.01 34.86 31.56 26.90 28.60 32.81 32.79 37.33 38.07 39.10 40.03 40.32 41.50 39.70 39.43 38.95 40.98 40.49 40.71 41.53 42.90 43.99 44.36 45.35 45.62 46.62 50.82 52.39 55.69 56.40 57.01 57.25
39.29 38.59 37.50 36.92 36.10 36.14 35.31 34.23 32.98 30.06 26.82 31.55 32.52 34.36 35.77 36.22 37.56 38.24 39.71 38.01 38.39 38.08 38.48 40.53 39.96 40.25 40.89 41.92 42.56 43.31 44.20 44.67 45.64 49.63 53.64 55.39 55.78 55.52
36.74 35.49 35.01 35.46 34.68 34.43 33.94 32.68 31.31 30.62 26.91 29.48 31.92 33.47 33.68 34.21 35.71 37.29 38.61 39.16 39.21 37.59 38.22 37.99 39.33 39.25 39.58 39.93 40.62 41.54 41.73 43.10 44.09 46.12 51.42 54.37 54.80 54.44
34.14 34.14 33.87 33.61 33.09 33.19 32.24 31.09 30.46 30.57 28.52 25.97 29.49 30.74 31.64 33.27 34.42 35.27 36.11 37.64 37.73 37.31 35.45 35.56 35.93 37.38 39.47 39.07 38.88 39.72 41.09 41.39 42.57 44.77 45.79 51.77 52.51 53.22
33.79 33.10 32.59 32.35 31.46 31.63 31.05 29.89 29.33 28.81 28.44 26.18 26.82 29.81 30.15 31.16 31.41 33.88 35.01 36.16 36.53 35.71 35.19 35.21 34.77 35.53 38.33 39.82 38.95 38.69 40.35 40.50 41.17 42.27 43.28 43.50 48.07 50.07
33.06 32.35 31.47 30.73 29.85 29.54 28.79 28.33 28.35 27.40 26.57 25.63 26.05 26.67 28.06 29.52 30.44 29.57 30.72 34.32 34.21 35.34 35.00 34.10 33.52 35.24 35.82 36.89 40.18 39.42 39.53 40.21 40.07 40.50 41.00 40.28 40.00 42.43
30.58 29.66 29.33 28.81 28.29 28.20 27.69 27.35 26.68 25.37 24.83 25.34 25.07 25.30 25.77 26.47 26.34 28.83 28.97 29.87 32.65 34.53 34.13 34.90 35.72 37.08 38.47 37.80 37.74 38.91 39.77 39.75 40.12 40.38 39.67 39.64 39.48 39.82
27.39 27.70 27.64 26.91 27.52 26.95 26.73 27.03 27.12 25.79 25.50 24.87 25.14 24.95 25.96 26.98 28.78 27.68 27.67 26.50 25.48 34.33 32.37 32.66 35.60 34.59 35.81 37.53 34.46 34.94 36.07 39.82 39.91 40.06 40.11 39.35 38.33 38.58
26.65 26.37 26.13 27.04 26.86 26.97 27.00 27.73 28.30 28.43 27.90 27.78 26.09 25.96 25.29 27.67 28.23 27.49 27.62 27.23 27.08 30.13 30.98 29.45 33.51 32.59 35.42 35.50 33.54 33.66 35.15 36.06 38.09 39.53 39.40 38.90 38.09 37.21
26.67 26.50 26.20 25.86 26.42 26.03 27.61 27.09 27.27 27.49 28.06 28.91 29.25 28.76 29.12 29.75 29.19 28.92 28.42 29.40 30.21 30.22 30.62 25.91 31.93 31.66 34.49 35.71 32.60 32.81 33.82 34.76 35.91 37.18 39.11 38.62 37.86 37.33
26.42 26.85 26.26 25.25 25.74 27.19 26.05 25.68 25.06 26.01 28.31 28.53 28.84 29.55 29.93 30.01 29.93 29.50 26.76 27.11 26.68 27.56 30.37 28.47 29.83 31.09 32.76 33.45 35.16 32.73 33.12 33.98 35.00 36.06 37.46 38.24 37.83 37.27
26.26 26.10 24.84 24.62 25.28 25.69 25.41 24.67 23.39 24.46 25.09 26.15 27.46 28.84 29.95 30.28 29.37 29.72 28.12 25.16 25.89 27.12 30.50 28.47 29.32 30.11 28.44 33.80 33.70 35.07 35.21 33.30 34.33 35.82 36.32 37.44 37.25 40.12
24.52 24.23 24.79 23.86 24.76 24.58 24.45 24.90 24.05 24.65 24.85 25.15 25.79 27.31 28.25 29.00 30.00 31.32 30.67 28.58 26.91 26.78 31.04 30.19 28.09 29.37 28.79 30.21 33.49 35.16 35.68 35.22 35.20 36.08 35.06 36.03 36.79 38.38
23.70 23.79 23.92 23.16 22.97 22.43 23.05 23.15 22.71 23.33 24.08 23.78 24.07 24.69 25.58 26.47 28.36 29.82 30.93 32.16 31.37 29.86 31.40 30.42 28.65 28.37 28.00 28.55 28.52 34.21 34.82 35.64 35.34 35.06 36.27 35.84 35.68 36.20
24.64 22.60 21.51 21.32 20.96 21.61 20.99 21.36 21.34 22.08 21.73 21.83 21.87 23.12 24.88 26.68 28.99 30.69 31.67 32.07 32.23 31.55 31.24 31.44 30.31 30.44 30.53 28.97 29.52 31.54 32.30 33.68 35.68 35.77 35.76 36.11 36.47 37.05
22.32 22.10 19.70 19.52 18.79 19.72 21.04 21.48 20.88 19.88 19.48 20.31 21.13 23.09 25.16 26.15 27.29 29.09 29.30 30.38 30.78 31.26 32.94 32.59 32.10 31.64 30.24 30.47 30.58 29.95 32.00 31.61 34.79 33.79 34.88 35.31 36.19 37.53
20.31 21.13 20.21 19.26 18.74 19.38 20.05 19.50 19.12 18.01 18.33 19.62 20.48 20.94 22.40 24.13 25.31 27.44 27.62 29.02 28.20 28.36 29.81 32.07 32.91 33.39 33.13 32.44 30.05 31.11 31.32 31.85 33.94 33.32 33.44 33.03 34.31 36.01
21.08 19.54 18.07 17.50 17.22 17.42 18.10 18.04 18.43 15.97 16.50 18.50 19.53 19.90 20.28 21.85 23.09 25.45 26.39 26.13 26.38 27.04 27.75 29.19 31.71 30.92 31.08 30.36 31.04 31.76 31.69 31.71 33.06 32.59 32.62 31.20 32.33 35.07
20.80 20.05 18.75 17.77 17.18 17.34 17.33 17.24 16.50 16.69 15.17 16.53 17.72 18.14 18.65 20.51 22.32 22.82 23.76 24.04 24.35 25.43 26.68 28.38 29.02 29.65 27.83 27.51 29.55 28.69 31.56 31.08 31.34 30.99 30.76 30.97 30.53 32.36
20.99 20.28 19.49 19.38 18.39 17.68 17.35 16.55 16.13 16.23 15.66 14.32 16.19 16.78 16.89 18.72 20.00 20.38 21.58 20.94 22.26 23.55 24.57 26.67 26.92 26.74 26.28 26.11 27.34 29.12 25.59 30.31 30.77 30.68 30.29 31.99 31.67 26.75
22.58 21.08 21.21 19.88 19.40 18.82 17.88 16.82 15.66 15.38 13.71 13.84 14.94 15.23 15.86 16.56 18.24 18.67 19.87 18.31 18.98 21.04 21.15 23.04 25.28 24.73 27.34 28.19 27.35 28.50 28.94 25.32 27.29 30.18 29.51 29.93 29.67 29.37
23.86 22.36 21.83 21.22 20.39 19.48 18.76 17.28 17.05 16.92 15.06 14.89 14.55 15.60 15.84 15.89 16.59 17.13 18.27 18.70 19.10 19.32 20.16 23.11 25.32 26.92 27.32 26.61 25.64 25.42 27.88 29.55 26.13 24.97 26.15 26.09 28.88 27.15
24.57 23.84 23.21 21.94 21.14 19.95 18.57 18.40 16.62 16.72 15.19 13.71 14.33 15.34 15.07 15.03 15.32 16.99 17.53 17.88 17.88 17.75 18.87 20.37 23.02 25.16 25.04 24.91 24.19 26.26 24.52 26.36 28.31 28.69 28.84 24.93 26.05 27.05

GFSNE_sfc_wetblb_036.txt.gz
Wetbulb
41.94 40.98 39.45 39.20 39.28 38.82 37.65 36.85 32.93 29.76 31.15 35.43 35.45 39.13 39.39 39.61 39.46 39.88 39.94 39.60 40.02 39.12 38.77 38.51 39.50 40.39 41.15 41.92 42.64 44.14 45.67 45.99 46.71 49.21 51.82 54.10 57.13 57.73
40.81 39.73 39.29 38.81 37.86 38.12 37.57 36.86 35.84 33.45 31.08 34.73 35.34 36.98 37.93 37.59 38.41 38.88 39.02 39.28 38.39 39.36 38.62 37.89 38.34 39.70 40.78 41.00 41.35 42.67 43.70 44.71 45.58 46.48 48.08 50.55 52.96 56.45
39.26 38.54 38.50 38.86 37.96 37.73 37.36 36.54 35.31 34.75 30.86 33.43 35.32 36.07 35.76 35.40 36.30 37.51 37.65 38.71 39.54 39.71 38.40 37.63 37.22 37.28 37.76 39.83 40.13 41.09 42.18 42.37 43.49 44.97 45.50 47.91 49.71 55.14
38.44 38.27 37.63 37.36 37.09 36.98 36.18 35.11 34.35 34.02 30.69 28.68 32.23 32.14 33.05 34.36 34.47 34.21 35.04 36.76 37.93 38.85 36.57 35.35 35.87 36.24 36.90 37.86 39.87 39.99 40.65 41.24 41.33 42.58 43.61 45.03 46.95 51.56
37.81 37.04 36.37 36.01 34.93 35.00 34.62 33.51 32.09 31.46 31.40 30.21 28.82 30.88 31.51 33.24 33.00 34.32 33.71 35.45 37.07 38.12 36.91 36.04 36.12 35.54 35.46 37.03 37.92 39.87 40.02 40.86 40.54 40.99 43.07 41.92 42.45 45.79
36.65 35.69 34.68 33.55 32.85 32.21 31.51 31.43 30.69 30.14 30.21 28.78 28.48 28.16 29.87 32.05 32.61 31.23 30.98 33.51 33.59 37.02 37.32 35.50 35.74 36.47 35.78 36.45 37.15 40.00 39.71 40.30 40.48 40.32 40.77 40.33 39.81 41.16
34.60 33.66 33.49 31.40 28.68 28.80 29.35 29.36 28.38 27.49 28.19 26.35 26.20 27.49 28.38 29.44 29.23 31.46 30.31 31.80 31.82 34.03 35.13 36.14 36.70 37.79 38.68 36.90 37.57 37.14 37.42 39.25 39.64 40.30 39.94 40.07 39.56 39.76
32.39 32.60 32.67 30.78 30.70 28.18 28.29 28.02 28.48 27.45 26.83 26.67 27.23 26.66 27.65 29.36 29.80 29.46 29.47 28.86 27.73 34.72 33.29 33.74 36.23 35.03 36.52 38.51 33.88 34.29 35.17 36.44 39.44 39.81 38.58 38.39 39.22 38.70
31.68 31.27 30.76 30.98 29.95 29.18 28.17 28.14 29.24 29.14 28.16 28.82 26.61 27.17 28.29 29.82 29.90 29.01 29.20 29.06 28.77 31.48 32.27 30.07 34.72 33.76 35.67 37.21 34.55 33.58 34.25 35.06 36.23 38.53 39.12 37.20 36.32 37.09
31.48 30.99 30.83 30.31 29.50 27.39 27.18 27.12 27.79 29.44 29.52 29.14 29.05 29.23 30.10 30.76 30.77 30.71 30.30 30.23 31.13 31.87 33.06 28.07 32.22 32.55 35.20 36.09 34.69 32.99 33.69 34.11 34.80 36.17 38.47 38.45 37.61 36.95
31.06 31.14 29.73 28.76 27.02 26.20 25.60 25.72 25.98 27.37 29.47 28.80 28.72 28.87 29.33 29.83 30.93 30.57 28.43 27.35 27.23 28.51 32.82 30.92 31.72 31.11 33.12 35.15 37.01 34.41 33.50 33.88 34.87 34.88 36.47 38.56 38.38 37.69
30.62 30.40 27.90 26.25 24.57 25.33 25.14 25.07 24.46 25.25 26.07 26.74 27.89 29.47 30.70 31.24 30.38 31.38 30.12 27.30 26.64 27.16 31.72 29.89 30.66 31.50 29.43 35.02 35.81 37.26 37.10 33.49 33.82 34.28 35.45 37.15 38.40 40.84
28.51 28.76 29.01 25.00 24.10 24.18 23.57 25.18 24.20 24.83 24.94 26.03 26.20 28.01 29.91 30.40 30.81 32.09 32.35 31.14 28.77 28.47 32.17 31.81 30.60 29.93 30.85 30.56 34.80 35.27 37.10 37.21 37.13 36.22 34.92 35.83 37.23 38.45
27.15 28.43 27.68 23.73 23.31 22.90 23.51 22.32 22.71 23.74 25.96 25.15 25.41 26.11 27.13 27.94 29.61 31.22 32.54 33.08 33.00 31.70 33.49 33.64 30.12 29.87 29.79 29.42 29.94 34.50 35.35 36.55 37.79 36.87 38.15 36.74 35.12 35.86
28.19 26.08 23.15 22.38 22.61 23.67 22.57 21.93 23.00 24.59 23.83 23.45 23.47 24.36 25.99 28.00 30.11 31.56 32.76 34.12 33.77 33.53 32.91 33.47 31.93 31.62 31.86 30.47 31.66 32.89 33.20 34.35 36.05 36.80 37.35 37.60 37.47 37.47
27.66 27.05 24.70 21.86 23.09 23.11 25.00 25.07 24.71 23.54 22.06 22.63 23.46 25.01 26.64 27.59 28.30 30.03 29.96 31.70 31.71 32.99 33.70 33.07 32.81 32.41 31.24 31.92 31.63 31.66 33.58 32.82 35.05 35.39 36.51 37.37 37.86 38.90
24.59 26.38 26.29 25.13 24.16 24.39 24.85 24.20 24.60 23.24 21.80 22.65 23.00 23.92 24.35 25.10 25.96 28.95 28.87 29.33 29.51 29.85 31.13 33.25 33.25 33.16 33.61 34.10 31.52 32.22 32.74 33.32 35.13 34.45 33.76 33.13 34.77 36.44
24.87 25.81 25.44 25.24 23.63 23.23 23.01 23.19 23.84 22.30 21.27 21.30 22.18 22.76 22.58 23.29 24.10 26.14 27.26 27.51 27.20 28.41 29.59 30.98 33.80 31.48 32.12 31.52 30.64 33.04 32.94 33.11 34.03 34.07 34.36 33.46 32.95 35.58
24.89 26.42 25.82 25.32 24.83 23.77 23.51 23.02 22.15 22.21 21.01 21.21 21.00 21.69 22.29 22.50 23.57 24.16 24.70 25.15 25.43 26.68 28.10 30.18 31.00 30.50 28.49 27.46 30.46 28.67 32.97 32.74 33.33 33.11 33.18 32.04 32.51 35.13
25.44 25.75 25.85 25.76 24.97 24.11 23.83 22.95 22.46 22.10 21.76 20.81 20.98 20.73 21.01 21.25 22.48 22.47 23.47 22.65 23.22 24.85 26.03 28.20 27.91 27.04 26.27 26.30 29.24 29.74 27.76 32.28 32.97 32.78 31.66 33.99 33.13 26.87
26.67 26.69 27.07 26.19 25.79 24.99 24.50 23.21 21.93 21.91 20.11 20.09 21.05 20.34 20.95 20.19 20.61 21.87 22.64 21.61 22.11 23.58 23.21 24.46 26.45 26.94 29.20 30.85 28.69 29.35 29.86 26.95 28.98 31.52 31.15 32.31 31.22 31.21
27.59 27.21 27.67 27.26 26.39 25.68 24.90 24.08 22.87 22.63 21.98 20.85 20.56 21.14 21.26 21.06 19.77 20.04 21.41 21.63 22.10 22.18 23.13 24.89 27.00 27.70 28.18 27.33 27.75 27.37 28.90 30.16 27.09 27.05 27.55 27.08 29.30 29.30
29.00 27.83 28.17 27.48 26.91 26.00 24.68 23.91 22.77 22.78 21.86 20.44 20.28 20.51 20.02 19.90 20.42 20.76 20.24 20.99 21.14 21.05 22.38 23.11 25.90 28.11 27.32 26.91 25.94 27.94 27.34 28.08 29.82 28.88 28.76 25.74 26.61 27.39

GFSNE_sfc_wetblb_039.txt.gz
Wetbulb
44.13 42.93 42.20 42.13 41.52 40.84 39.27 37.74 35.10 30.84 31.41 35.74 36.61 39.71 40.47 40.89 40.77 40.68 40.23 39.68 39.95 39.83 39.28 39.73 39.90 40.02 39.85 39.94 40.99 42.06 42.92 43.69 45.40 46.82 47.89 48.69 50.07 56.12
42.18 41.01 40.51 40.32 40.08 39.91 38.91 38.73 37.68 34.67 30.91 35.64 36.58 38.32 38.98 37.85 39.12 39.39 39.00 39.60 38.62 38.94 39.00 39.05 40.09 39.27 38.69 38.50 39.36 40.60 41.62 42.16 43.39 45.12 46.39 47.32 48.24 50.22
40.56 40.35 39.19 39.55 38.85 38.66 39.04 38.36 37.24 36.53 32.34 34.99 36.58 37.20 35.97 35.94 36.47 37.54 37.85 38.14 38.32 37.99 38.72 39.13 39.38 38.30 37.50 37.21 37.39 38.01 39.64 40.81 41.77 43.30 44.31 45.59 47.21 47.76
39.02 38.50 37.96 38.02 37.44 37.46 37.22 35.61 35.85 35.62 33.82 30.36 32.82 33.29 33.24 34.51 35.40 35.33 35.54 35.91 36.77 37.10 37.86 37.86 37.66 37.57 37.41 37.08 37.04 37.44 38.70 40.18 40.97 41.84 42.06 43.56 44.94 45.69
38.04 37.25 36.75 36.41 34.99 34.96 34.38 33.69 33.59 33.35 33.23 30.61 29.59 31.98 32.91 33.73 33.13 33.85 34.40 34.74 35.45 36.88 37.10 37.49 37.55 37.90 37.45 37.11 36.84 37.00 38.42 40.12 40.28 40.82 40.58 41.99 42.16 42.85
37.70 36.63 35.76 34.65 33.73 32.18 30.90 31.10 31.31 30.59 30.05 28.93 28.93 29.26 30.46 32.27 32.15 30.96 30.92 33.68 33.03 34.97 36.33 36.33 37.41 37.44 37.29 37.34 37.08 37.17 38.24 40.73 40.27 39.98 39.80 40.34 39.49 40.56
36.25 35.71 35.29 32.96 30.79 30.21 29.68 29.33 28.73 27.57 27.14 26.60 26.90 27.77 28.61 29.13 28.93 30.75 30.10 31.35 32.33 34.14 34.00 35.43 35.69 37.12 37.78 37.93 36.70 36.72 35.91 37.72 39.66 39.60 39.80 40.10 39.09 39.22
34.04 34.23 34.37 34.01 33.09 31.14 30.26 28.96 28.89 26.54 26.03 27.58 27.02 26.31 26.62 28.30 29.90 29.64 29.84 28.49 26.93 34.55 32.43 32.73 35.80 35.44 36.80 38.28 36.59 34.80 34.97 35.67 36.90 37.81 39.27 38.70 38.26 38.21
33.99 33.07 32.57 33.15 32.13 31.61 30.11 29.36 28.94 29.30 28.55 28.72 27.13 27.36 27.31 28.49 28.91 28.02 28.52 28.46 28.45 31.76 31.79 29.99 34.14 33.34 35.55 36.24 35.70 34.23 33.95 34.54 34.98 36.37 38.65 37.02 35.97 36.23
33.96 33.12 32.25 31.83 30.49 27.56 27.20 26.81 27.95 28.69 29.30 29.39 29.17 28.46 28.70 29.36 29.20 29.38 29.33 29.99 30.82 31.98 32.84 27.86 33.07 32.48 35.30 36.24 36.46 35.48 34.46 34.49 34.69 35.24 35.96 37.12 36.17 35.11
32.92 32.81 31.87 30.56 27.80 26.31 25.36 25.31 25.95 26.98 30.22 30.21 29.29 29.56 30.03 30.51 30.78 29.92 28.69 27.76 27.03 28.30 32.17 29.74 31.88 31.80 33.61 34.76 36.88 36.21 34.94 34.19 34.63 35.07 35.03 37.46 37.21 36.65
32.04 32.00 29.13 27.20 25.26 24.93 24.30 24.12 22.98 25.56 25.74 26.10 27.46 29.02 30.23 30.99 30.82 30.90 30.63 27.83 27.40 26.91 31.30 29.43 30.10 30.68 28.88 34.86 35.60 37.49 36.59 34.17 33.83 34.37 34.36 35.41 38.37 37.68
29.24 29.94 30.92 26.80 25.08 24.39 24.18 24.13 24.15 24.06 24.30 26.02 26.39 27.81 29.09 29.65 30.29 31.65 31.93 30.96 28.96 28.54 32.42 31.11 29.81 30.21 29.75 30.22 33.63 35.79 37.29 37.83 37.00 35.18 34.12 35.42 36.85 38.48
28.18 29.76 29.91 26.14 24.68 23.97 24.16 24.26 23.61 23.77 26.94 26.02 25.58 25.89 26.31 27.15 28.81 30.94 32.61 33.40 33.96 32.12 33.78 33.56 30.70 29.89 29.25 28.98 29.27 34.22 36.16 37.59 38.29 37.69 38.61 36.83 34.86 35.73
29.52 28.85 26.14 25.94 25.23 25.46 25.51 24.44 23.73 25.92 24.26 23.37 23.53 24.43 26.03 28.12 29.35 30.83 32.20 33.24 33.87 34.62 33.55 33.86 32.38 31.51 30.99 29.42 29.74 32.25 32.30 35.06 36.95 36.92 38.11 37.92 37.35 37.86
29.27 29.73 27.58 26.21 25.57 25.08 26.29 27.66 27.16 26.30 23.81 23.48 23.35 25.00 26.88 27.17 27.32 29.34 29.12 30.45 30.88 31.44 33.69 33.98 33.09 32.62 30.11 31.19 31.64 31.47 33.38 32.01 35.50 36.47 37.10 38.16 38.74 38.91
26.77 27.83 27.82 27.91 26.92 27.08 26.99 26.62 26.71 26.23 24.56 23.64 23.64 23.62 24.02 24.86 25.60 28.06 28.08 28.57 28.03 28.40 30.29 33.75 33.42 33.25 32.89 32.10 30.18 32.07 32.51 33.16 34.89 34.80 34.34 33.84 36.31 38.47
26.25 26.33 27.13 27.98 26.32 25.68 25.75 25.48 26.05 24.98 24.31 23.31 23.38 23.11 22.51 22.91 23.73 25.80 26.76 26.27 25.98 26.94 28.42 30.53 31.60 31.00 30.71 31.24 29.22 30.57 33.42 33.01 34.48 34.31 34.39 32.75 33.02 35.51
24.54 26.28 27.40 27.60 26.92 25.99 26.21 25.72 24.70 25.02 23.94 23.90 23.19 23.36 22.34 22.08 23.48 24.04 24.56 24.66 24.25 25.69 27.45 29.89 29.49 27.33 26.09 26.56 29.50 29.41 31.39 33.30 33.25 33.06 33.71 33.20 33.30 30.89
26.55 26.58 26.96 27.86 27.17 26.44 26.58 25.72 25.21 24.83 24.24 23.18 22.84 23.08 22.82 21.90 21.71 21.97 22.98 23.00 22.81 24.18 25.16 27.45 27.37 25.56 24.53 24.95 28.49 29.25 28.82 32.20 32.26 32.50 31.82 33.83 30.78 29.55
28.27 28.05 29.43 28.52 27.78 27.31 27.36 26.14 25.14 23.97 23.53 22.76 22.86 22.49 22.76 22.27 21.67 21.19 22.04 22.28 22.97 23.02 22.16 23.51 26.20 27.87 28.96 30.88 28.08 28.39 29.41 28.45 29.39 30.18 31.18 31.36 30.35 30.76
29.76 28.56 29.11 29.26 29.11 28.08 27.76 26.55 25.25 24.65 24.22 23.64 22.83 22.76 23.09 22.39 21.94 21.28 21.11 20.63 21.60 21.87 22.68 24.83 27.43 28.38 28.87 27.92 28.00 27.36 28.69 29.33 28.51 28.27 27.93 27.71 27.97 27.92
31.11 30.17 30.35 30.39 29.81 28.43 26.90 26.09 25.08 24.78 24.05 23.45 22.55 22.58 21.96 20.84 22.35 22.32 21.95 21.14 21.02 20.72 21.59 22.63 25.14 27.56 27.58 26.50 25.83 27.85 27.20 27.86 28.73 27.94 27.48 26.85 27.83 28.22

GFSNE_sfc_wetblb_042.txt.gz
Wetbulb
39.80 39.46 38.22 38.80 38.36 36.62 35.85 34.60 31.10 27.40 28.07 31.35 31.28 34.74 35.21 34.63 36.19 35.44 35.14 38.84 39.37 39.29 39.24 39.65 39.91 40.03 40.21 40.45 40.93 40.79 40.70 41.41 42.41 42.98 44.03 46.04 48.01 49.64
38.64 38.31 38.20 36.99 36.47 35.87 34.71 34.34 34.06 31.48 27.25 31.30 32.05 32.32 33.15 35.19 36.22 34.57 34.49 38.03 37.74 38.20 38.42 38.81 39.41 39.87 40.51 40.27 40.21 39.73 39.36 39.51 40.19 41.62 42.74 44.21 46.48 48.14
36.98 36.68 36.59 36.72 35.00 35.34 34.60 33.42 31.36 30.86 27.55 29.75 31.66 31.61 30.32 30.60 32.56 33.28 34.16 33.35 33.80 37.34 37.94 38.03 38.31 38.54 39.31 39.44 38.87 38.23 38.28 38.27 38.66 39.90 41.69 42.87 44.75 46.49
35.84 35.06 35.43 36.37 32.28 31.81 30.94 29.53 29.44 29.43 27.53 25.76 28.51 28.89 28.64 30.19 30.45 30.60 32.72 34.35 32.98 36.19 37.17 37.70 37.65 37.93 38.31 37.95 38.20 38.16 37.80 37.49 38.10 38.68 40.75 41.57 42.45 44.48
35.45 34.44 32.98 32.03 29.60 29.10 27.93 26.99 27.63 29.59 27.78 25.92 25.12 27.79 27.90 29.11 28.69 29.78 30.50 30.95 33.94 36.17 36.37 36.78 37.13 37.15 37.33 37.59 38.42 38.17 37.92 37.85 37.92 38.91 40.47 40.48 41.25 42.12
33.86 33.16 32.41 31.12 28.44 26.78 26.93 25.30 26.45 25.20 25.26 24.52 24.60 25.01 26.25 28.07 28.84 27.30 27.18 28.73 29.00 33.29 34.82 35.15 36.17 36.83 37.44 38.03 37.87 38.05 37.91 37.55 39.22 39.93 39.43 38.88 39.59 40.02
32.37 33.36 31.84 32.33 33.49 30.31 27.36 24.87 24.63 23.99 23.57 23.01 23.21 24.50 25.32 24.86 24.22 26.73 26.86 27.15 28.03 29.73 30.10 30.19 32.10 32.62 34.24 36.44 37.42 38.17 37.87 36.88 38.17 38.14 39.00 39.13 39.36 39.00
29.81 30.32 30.59 32.93 31.91 32.12 31.92 29.78 28.31 23.67 23.26 23.52 23.98 23.29 23.50 25.32 26.82 24.91 25.06 23.77 22.27 28.55 28.38 27.35 30.98 30.47 33.22 35.17 35.72 36.01 35.18 35.12 36.68 36.93 37.28 39.00 38.27 37.85
29.37 29.12 29.79 31.97 28.55 26.59 28.03 27.93 27.34 28.67 27.71 25.84 24.21 25.41 24.78 24.38 24.44 23.19 23.19 23.34 23.62 26.91 27.70 25.07 27.92 27.90 31.92 34.71 35.63 35.82 36.27 35.35 35.12 35.54 35.78 37.87 36.82 36.74
30.07 29.16 28.07 27.59 24.75 25.07 24.18 23.00 24.38 25.49 25.93 26.96 26.03 24.52 24.69 25.57 25.58 25.82 25.32 25.36 26.53 27.83 28.62 23.85 26.13 26.95 29.16 29.62 35.67 36.68 36.64 35.69 35.15 35.25 34.25 36.96 36.29 35.44
29.93 29.55 29.20 26.92 26.36 27.12 23.52 22.12 22.48 23.33 27.95 28.14 27.52 28.38 30.17 30.63 30.32 28.56 25.54 24.65 22.99 24.91 28.40 26.85 26.61 27.71 29.51 28.53 29.89 36.00 36.39 35.61 34.73 35.11 34.80 34.91 37.13 35.80
28.04 28.21 27.81 25.78 25.87 25.56 20.43 20.49 19.32 21.65 22.20 22.08 23.65 26.34 27.75 28.78 30.26 29.59 28.76 25.61 24.69 23.87 27.99 26.46 27.04 29.33 26.38 29.67 30.90 29.05 28.50 34.77 34.43 34.59 35.28 35.39 37.29 36.86
26.09 25.76 26.76 27.18 26.83 26.18 24.87 21.50 20.76 23.40 22.72 22.47 23.81 24.28 26.79 27.22 26.66 27.36 27.93 28.30 27.25 26.43 29.59 30.31 27.30 26.63 25.77 25.58 28.29 30.62 28.69 28.37 28.47 29.41 34.90 35.03 36.47 37.83
25.71 26.08 26.67 28.05 27.37 26.29 24.59 25.28 25.37 23.81 21.14 19.53 21.20 22.45 23.52 24.89 26.28 26.85 28.58 29.73 30.76 31.05 33.48 31.00 28.10 27.56 25.80 24.96 25.58 30.76 29.52 26.92 29.92 27.83 26.85 32.46 35.24 36.37
25.97 28.01 28.66 27.82 28.19 26.02 27.58 26.81 22.84 21.28 18.81 15.36 19.03 20.14 22.12 25.40 27.00 27.09 27.55 28.94 29.45 30.78 33.12 30.69 27.01 27.36 25.42 24.12 26.93 29.16 29.42 29.84 27.48 26.46 26.99 28.01 29.74 30.83
26.42 27.87 25.67 24.94 22.47 22.65 22.32 24.79 23.38 21.26 19.10 17.42 16.98 20.59 22.51 23.02 23.48 25.46 24.23 26.00 26.21 27.47 31.67 31.55 30.69 28.84 25.63 25.59 28.07 27.75 30.19 27.79 30.04 26.40 26.68 27.73 31.05 30.47
22.32 22.18 21.77 24.03 23.53 22.64 22.70 22.72 22.37 22.13 19.65 17.67 16.91 18.45 20.43 21.42 21.67 23.77 25.23 24.53 23.32 24.13 25.59 29.13 31.60 31.87 29.10 28.55 27.80 25.92 28.67 30.72 30.80 28.99 27.38 26.60 27.89 29.26
22.23 19.35 19.63 21.32 22.51 20.76 19.42 20.08 20.34 19.93 20.20 19.16 18.08 19.12 19.45 18.77 20.13 22.09 24.48 23.78 21.68 22.35 23.78 26.08 28.76 27.44 29.59 28.88 28.90 26.49 29.07 31.32 31.16 29.48 27.39 24.22 25.06 26.28
23.39 20.14 20.89 24.07 22.51 22.07 20.78 20.36 18.19 18.85 19.41 19.54 16.62 16.96 17.76 20.09 18.77 20.40 20.91 22.10 20.70 21.25 22.78 25.20 25.34 23.30 22.48 23.14 26.40 29.45 27.67 30.07 29.42 28.20 28.51 28.78 29.75 27.54
25.68 23.38 23.19 24.82 25.49 23.04 21.60 21.20 19.49 17.59 17.39 17.71 14.08 14.79 13.39 16.12 18.91 17.05 19.14 18.82 19.41 21.26 20.99 23.50 23.48 23.06 21.90 22.42 24.89 24.40 29.70 25.13 24.52 27.99 24.89 24.89 28.00 30.88
25.93 25.56 25.17 25.48 26.75 23.10 21.06 21.08 16.71 15.29 14.88 11.53 13.69 14.21 11.87 15.93 14.55 18.24 14.79 17.12 18.14 20.03 18.88 20.12 22.02 25.19 26.29 25.80 23.92 25.86 22.20 29.28 27.49 24.71 26.03 26.60 25.04 24.68
25.51 25.94 25.39 25.78 27.28 26.71 22.18 21.16 19.06 19.90 17.03 16.99 14.47 11.04 12.78 12.65 14.02 12.79 13.48 11.03 17.20 17.65 18.63 20.56 24.55 25.97 26.52 27.11 24.04 20.90 22.28 22.34 27.35 28.18 28.36 26.72 24.91 24.38
27.73 27.36 26.27 26.49 26.67 26.52 23.77 21.10 23.24 20.99 20.17 18.16 15.78 13.89 10.41 10.03 16.21 14.96 13.44 14.77 16.29 15.08 16.95 16.34 21.46 24.46 25.97 24.76 23.64 24.93 21.35 22.09 23.97 24.11 22.11 27.88 28.50 28.38

GFSNE_sfc_wetblb_045.txt.gz
Wetbulb
36.68 35.88 35.42 36.19 37.78 36.14 36.95 34.88 31.58 26.81 27.53 29.34 27.77 31.89 32.14 32.11 33.80 32.77 32.42 36.34 38.39 38.51 37.99 38.36 38.27 38.57 38.98 39.41 39.80 40.80 41.63 41.91 41.80 41.61 41.88 42.58 43.80 45.01
35.99 34.85 35.06 35.33 35.83 35.12 33.97 33.78 32.64 30.15 23.66 27.25 27.62 28.67 30.16 32.84 33.90 32.24 32.15 36.36 36.25 37.01 37.31 37.97 38.40 37.91 38.08 38.52 38.56 39.16 40.25 41.12 40.85 40.72 40.77 40.91 42.23 44.00
34.78 34.79 33.73 33.86 31.57 30.70 29.94 28.81 26.96 26.29 23.02 25.45 27.27 27.91 27.24 27.82 29.91 30.54 32.04 31.40 31.83 35.82 36.54 37.25 37.53 37.90 38.47 38.21 38.40 38.81 39.38 39.59 39.38 39.54 39.44 40.23 41.08 43.05
34.48 33.12 32.46 34.02 29.16 27.96 26.34 24.91 24.48 24.67 23.38 22.16 23.95 25.27 25.14 27.09 27.62 27.41 30.57 32.67 31.53 34.53 36.52 36.42 37.12 36.90 37.04 37.20 37.91 38.45 38.53 38.86 38.71 38.02 37.97 38.43 39.70 42.12
32.40 31.51 30.83 29.85 26.48 25.41 24.99 24.14 23.97 26.67 23.41 22.29 22.54 24.81 24.85 25.95 26.18 28.11 28.35 28.88 31.61 34.24 34.50 35.22 35.89 36.58 36.75 36.83 37.87 38.09 37.93 38.68 38.46 37.92 37.61 38.01 39.80 40.90
31.79 31.00 30.40 28.00 26.27 25.30 25.30 23.54 24.54 22.87 22.76 21.78 22.18 22.73 23.79 25.87 25.71 24.30 25.04 27.27 27.27 30.68 32.12 32.96 34.55 35.19 35.66 36.15 36.55 37.40 37.98 38.53 38.13 37.53 37.90 38.41 38.52 39.36
30.22 30.69 29.82 31.79 35.00 29.68 26.16 23.15 23.20 22.16 21.80 21.33 21.59 22.53 22.96 23.14 23.39 27.14 23.79 23.94 24.84 26.16 26.92 27.81 29.06 30.05 31.30 33.90 35.22 36.72 36.62 36.77 37.71 37.72 37.70 37.46 37.61 38.33
27.57 28.42 28.33 31.30 30.81 30.98 29.96 29.00 26.82 21.89 20.66 19.48 21.61 21.43 22.14 24.46 23.44 21.98 21.90 20.69 19.56 25.38 24.75 24.95 28.07 27.43 29.52 31.20 34.74 35.85 36.21 36.62 35.99 36.70 37.18 37.17 37.98 38.37
26.92 27.42 28.12 29.94 27.42 25.02 25.84 26.34 25.53 26.67 25.82 23.55 21.66 22.36 22.61 22.57 22.34 21.88 22.23 21.98 21.84 24.97 24.85 23.85 26.92 25.42 28.31 31.73 34.35 35.72 36.34 36.56 36.79 36.42 35.88 35.86 37.14 36.86
27.74 27.17 26.20 25.47 24.80 24.54 23.37 22.27 22.44 22.90 23.76 24.44 22.61 21.55 22.28 23.99 24.54 25.50 24.95 25.08 25.45 26.22 27.32 23.96 25.76 25.43 27.65 27.82 33.17 34.72 35.94 36.23 36.39 35.98 35.82 35.01 36.60 36.45
28.23 27.83 27.69 24.44 26.76 26.75 23.21 21.63 21.21 21.99 25.67 27.29 26.75 27.56 28.30 29.09 29.05 28.24 25.19 23.97 21.79 23.49 26.18 24.80 23.76 24.52 25.02 26.79 28.01 34.12 35.68 36.08 36.22 35.65 35.53 34.99 35.39 36.50
26.63 26.87 27.93 25.15 25.98 26.32 20.38 19.18 17.70 20.16 21.84 21.82 22.32 23.75 25.86 26.33 28.68 26.50 24.86 23.03 23.53 22.82 26.89 27.27 25.97 24.55 22.01 25.81 29.47 30.43 28.78 32.15 35.54 35.42 35.16 35.65 33.56 35.83
26.11 24.82 25.17 27.43 27.20 27.74 26.61 20.88 18.82 22.59 23.17 21.72 21.59 21.93 23.33 24.27 25.31 25.95 26.06 25.71 24.62 23.79 27.96 29.33 26.45 25.39 26.13 24.65 25.88 27.96 30.36 29.99 27.59 29.38 34.75 34.98 34.56 35.86
25.24 25.17 25.39 29.32 28.87 28.28 26.52 26.21 26.44 24.75 16.76 18.09 18.24 19.36 19.95 21.23 23.20 24.74 25.96 26.45 27.95 27.76 29.72 31.31 28.96 25.91 26.73 24.56 24.47 29.22 31.03 31.45 24.01 24.85 24.51 29.54 35.09 34.86
25.17 25.62 28.17 29.27 28.92 27.47 28.02 28.09 24.21 20.05 16.71 13.08 15.73 17.08 18.57 21.60 23.52 23.77 25.23 25.42 26.99 28.42 30.61 31.39 29.41 27.69 24.48 25.91 25.54 27.36 28.89 30.27 26.91 25.06 23.26 24.32 29.36 32.76
25.63 25.42 23.61 24.71 21.50 22.08 22.41 24.37 23.00 20.00 18.08 15.52 14.56 16.53 19.20 19.61 19.36 21.65 21.33 23.55 23.42 24.26 27.70 29.49 30.89 30.05 25.17 24.13 26.98 26.65 27.50 28.27 32.00 23.75 23.62 23.91 27.20 30.91
25.05 25.13 22.28 19.22 20.79 23.03 22.26 21.61 20.97 20.15 17.76 14.46 13.78 15.86 18.34 19.20 19.08 20.74 21.98 23.11 19.00 21.03 22.17 25.65 28.81 28.69 30.85 28.74 26.89 25.95 25.79 27.45 31.90 27.87 27.17 24.75 26.49 31.36
22.71 17.24 11.46 10.39 15.99 21.43 21.63 19.30 17.38 17.43 17.99 17.15 13.52 16.13 15.84 15.81 18.35 19.81 20.99 20.32 19.52 19.44 20.54 23.70 24.97 24.19 26.39 27.96 29.61 26.19 27.30 29.58 30.25 26.68 26.23 23.44 24.02 29.24
18.77 17.91 12.93 15.15 17.41 22.39 23.45 20.17 17.54 17.50 17.51 16.06 13.82 12.04 13.66 16.85 16.43 18.25 17.23 19.00 18.53 19.82 20.35 23.01 22.93 22.07 19.82 19.11 27.08 29.43 25.75 28.81 29.38 24.52 29.38 29.37 25.02 29.07
26.06 22.57 19.54 19.41 20.29 22.85 24.27 20.89 17.88 15.51 15.19 14.72 10.24 7.14 5.30 10.65 11.57 15.77 16.54 10.23 17.10 19.12 19.23 20.49 20.28 21.62 21.96 20.89 22.53 25.19 29.56 23.43 26.69 27.28 26.96 28.32 29.38 30.33
24.43 25.03 24.54 21.96 22.57 23.20 21.90 20.08 14.61 11.79 10.01 6.52 7.16 8.27 5.13 9.59 8.96 13.43 12.66 11.44 11.07 18.58 16.67 16.96 19.42 22.72 26.34 25.97 21.86 21.95 21.77 28.98 27.94 26.11 27.42 24.56 23.12 27.38
25.73 24.43 24.23 24.24 24.32 25.47 25.22 20.84 16.50 11.53 10.62 8.23 7.25 9.71 2.23 5.45 6.48 8.68 8.14 8.87 13.40 12.54 16.64 17.49 20.67 23.92 24.71 25.43 24.23 19.09 20.46 20.99 26.45 28.01 28.62 27.56 25.67 21.96
27.14 26.40 26.11 25.17 25.48 25.42 24.28 21.95 21.35 18.89 17.21 15.43 13.29 7.89 1.07 6.20 7.98 9.78 7.06 13.56 13.22 11.98 13.50 14.75 17.66 20.75 23.34 23.29 23.01 23.37 20.94 20.54 23.04 22.97 23.05 28.01 28.46 28.88

GFSNE_sfc_wetblb_048.txt.gz
Wetbulb
34.81 34.40 34.26 34.47 36.05 36.30 36.58 34.80 34.22 26.54 24.69 26.66 26.00 29.24 29.76 30.15 31.61 31.40 30.62 34.80 36.25 36.77 36.77 36.59 37.24 37.75 37.94 38.70 39.13 39.62 40.36 40.70 41.62 42.70 43.14 43.34 42.82 43.20
35.04 33.57 33.34 33.40 32.96 31.82 30.46 30.47 29.79 27.25 21.22 24.50 24.80 26.04 27.89 30.19 31.43 30.46 30.03 34.44 34.41 35.22 36.30 35.86 36.17 36.96 37.19 37.56 37.94 38.21 38.68 39.09 39.68 41.30 42.23 42.50 42.07 42.50
33.84 33.04 32.73 32.45 30.36 29.11 28.06 27.11 26.18 24.82 21.40 23.21 24.53 25.05 23.98 24.95 27.33 28.26 29.72 29.18 29.91 34.14 34.78 35.54 36.12 36.11 37.06 36.99 36.64 36.91 37.62 38.26 39.12 39.94 40.86 41.24 41.17 41.11
33.43 32.31 32.11 33.51 28.75 27.64 26.24 25.17 23.97 23.87 22.65 20.98 22.08 23.23 23.27 24.98 25.76 25.22 28.72 31.17 29.47 32.57 33.74 33.97 34.13 34.51 35.78 36.41 36.71 36.75 37.70 38.04 37.90 38.39 39.14 39.62 39.51 39.62
31.75 30.78 30.05 29.72 27.45 26.40 25.01 23.94 23.36 25.95 22.79 21.81 22.06 22.97 22.87 24.09 24.50 26.13 26.54 26.44 29.78 31.77 31.49 31.94 32.56 33.40 34.61 35.16 35.80 35.63 36.18 37.36 37.63 38.19 38.49 38.53 38.31 38.08
32.16 31.17 30.53 28.55 26.66 25.47 24.86 23.55 23.69 22.67 22.56 21.44 21.94 22.10 22.51 24.28 24.23 23.13 24.27 25.27 24.47 27.77 29.13 29.66 31.32 32.72 33.05 33.48 34.23 34.76 35.55 36.48 37.19 37.39 37.48 37.22 36.83 38.09
30.90 30.75 30.25 30.28 33.67 30.33 25.34 23.28 23.04 21.59 21.18 20.89 20.44 21.44 21.73 21.79 21.69 24.43 22.05 22.31 23.36 24.65 24.34 25.47 26.83 27.40 28.46 31.42 32.71 33.83 34.60 36.24 36.56 36.12 37.44 37.21 37.03 37.42
27.91 28.45 28.46 30.89 31.28 31.95 30.72 29.30 25.94 21.71 20.23 18.24 20.00 19.63 20.31 22.53 22.48 21.36 20.74 20.40 20.13 24.02 24.08 24.10 26.13 25.95 27.86 28.55 31.80 33.29 34.57 36.13 36.12 35.61 35.70 36.60 36.87 36.63
27.24 27.70 27.93 29.21 28.53 25.85 27.18 26.59 25.52 26.44 24.39 21.13 19.54 19.53 19.17 20.81 20.91 20.86 22.06 22.21 22.62 25.05 24.36 23.59 25.22 24.68 27.76 29.95 32.36 33.27 34.01 35.57 36.19 36.35 36.38 36.12 35.73 35.58
28.03 28.55 26.01 25.60 25.31 24.60 23.57 22.65 22.85 22.55 22.69 23.44 21.77 20.80 21.17 23.31 24.56 25.85 26.18 26.15 24.97 25.08 24.83 22.43 25.46 24.73 27.22 27.48 31.90 33.37 34.22 35.20 36.00 36.30 36.15 35.92 35.42 35.46
29.10 28.52 27.06 25.43 26.78 28.32 24.03 22.27 21.87 21.96 25.17 26.65 26.83 27.29 27.24 27.78 27.99 25.87 22.31 21.77 19.87 22.12 24.38 24.41 24.16 25.10 26.73 27.53 28.14 32.90 34.49 34.26 34.60 36.08 36.38 36.09 35.62 34.94
27.57 27.02 29.25 26.02 27.55 27.15 21.70 20.43 17.85 20.26 21.22 21.90 22.23 23.05 24.51 24.36 26.72 25.00 23.72 21.28 21.54 20.52 23.85 24.22 24.24 26.56 23.13 23.35 24.64 27.03 26.20 32.10 33.17 33.87 36.12 36.28 35.57 32.86
26.27 25.81 25.68 28.48 28.03 28.02 28.20 22.08 19.72 22.75 22.76 22.80 21.53 21.30 21.78 22.56 23.28 23.76 24.19 23.17 22.11 21.59 25.36 26.79 25.95 27.00 26.98 24.39 24.25 25.72 26.21 29.05 30.80 29.76 32.59 35.66 35.05 34.39
25.98 27.19 25.84 28.55 28.84 29.38 27.93 27.49 27.91 25.21 19.68 17.74 17.70 18.59 18.70 19.49 21.43 22.49 23.78 24.38 24.95 24.26 26.35 28.24 26.76 27.91 26.14 24.97 23.08 25.12 28.50 31.58 31.19 25.43 24.88 29.33 33.26 34.05
27.12 27.12 27.66 28.44 28.84 28.08 29.00 28.49 24.65 21.48 17.43 12.20 16.14 16.23 17.59 19.92 22.26 22.26 23.33 23.85 24.94 25.72 27.40 27.33 26.79 27.17 27.78 26.41 25.25 24.23 27.06 28.32 32.06 25.34 22.52 24.79 30.22 32.18
26.41 27.40 24.36 25.24 20.86 21.78 21.88 24.58 23.26 20.72 18.74 16.79 14.66 15.20 17.85 18.53 18.61 19.84 18.69 21.45 22.21 21.61 24.73 25.97 26.48 26.30 24.98 27.74 27.48 26.26 25.56 25.56 27.58 29.05 22.12 24.37 29.90 31.07
25.20 23.65 24.72 21.93 21.80 22.04 22.06 22.30 22.54 21.12 18.23 16.22 14.23 14.11 16.47 18.03 17.35 19.75 19.77 19.73 17.74 19.28 20.18 23.44 26.77 26.19 28.22 29.50 27.02 27.02 26.57 26.22 29.40 27.18 24.49 24.33 29.43 31.62
26.49 21.54 22.82 18.52 19.69 19.52 19.63 20.62 21.23 19.18 19.41 18.08 13.74 15.44 14.35 13.95 15.87 18.39 18.99 16.43 16.58 18.23 19.44 20.94 22.08 22.34 23.56 27.09 27.55 24.76 25.29 28.09 30.26 26.40 28.36 25.84 28.52 31.27
25.10 20.27 19.84 17.05 17.22 18.83 19.59 19.93 20.71 19.94 18.67 18.08 17.35 14.26 12.55 14.75 13.72 15.30 15.76 15.96 16.03 17.77 19.05 20.37 19.37 19.55 17.82 14.57 23.79 29.45 23.47 26.26 27.43 27.62 27.88 27.60 27.54 29.06
26.55 25.39 22.59 20.54 19.56 20.20 20.61 20.86 21.48 16.87 16.99 16.45 13.87 9.84 4.72 9.21 10.14 12.41 14.54 7.35 12.42 16.58 18.00 18.60 17.90 18.67 17.76 17.32 20.02 21.48 28.86 22.81 26.12 27.05 26.10 27.74 28.81 30.05
25.97 26.07 25.45 24.50 21.90 21.26 21.22 19.95 18.50 16.45 15.72 11.10 11.63 8.93 2.81 9.18 7.58 9.86 9.29 9.73 9.05 16.58 14.81 15.33 17.68 21.76 24.48 25.95 18.56 19.32 19.39 28.30 28.18 25.77 26.68 24.43 22.38 27.05
26.16 25.63 25.73 25.88 24.45 22.59 21.85 21.64 17.22 16.70 16.29 14.17 8.42 4.54 1.47 4.76 5.23 5.21 4.42 6.00 11.50 10.46 13.70 15.69 19.31 21.74 24.10 23.52 23.35 17.12 19.12 20.13 25.69 27.72 28.42 27.66 24.02 20.35
27.45 26.63 26.16 25.75 25.68 24.49 23.86 23.88 21.10 20.24 19.76 17.32 14.05 10.98 2.55 4.77 7.30 5.77 5.21 9.28 11.51 10.46 11.75 12.61 15.36 19.23 19.45 22.17 21.96 22.27 23.61 20.07 22.96 22.13 22.64 27.86 28.83 29.25

GFSNE_sfc_wetblb_051.txt.gz
Wetbulb
34.67 33.31 33.27 33.87 34.31 34.33 34.42 33.57 32.34 23.18 23.67 26.46 24.89 27.02 27.60 27.88 29.08 29.52 28.37 32.51 33.90 34.58 34.95 35.67 36.51 37.00 37.26 37.89 38.34 39.07 39.91 40.50 40.97 41.54 41.96 42.61 43.41 44.51
34.31 33.78 32.94 33.64 32.38 31.04 29.87 29.69 30.30 27.70 21.77 24.32 23.95 24.80 25.79 28.30 28.61 27.80 27.65 32.68 32.55 33.51 34.08 34.71 35.37 36.30 36.68 37.05 36.93 37.78 38.43 38.83 39.55 39.94 40.47 41.07 42.06 43.50
33.61 32.76 32.14 31.95 29.84 29.00 28.51 27.01 25.58 24.80 21.56 23.04 23.95 24.12 23.01 23.34 25.13 25.49 27.63 26.90 28.31 32.63 33.32 33.78 33.98 34.36 34.69 35.26 35.75 36.51 36.78 37.17 37.82 38.51 39.16 40.19 41.47 42.62
33.30 31.32 31.13 32.89 29.13 28.25 26.89 25.70 25.08 23.97 22.58 20.62 21.55 22.22 22.54 23.25 23.73 23.64 26.90 29.23 27.77 30.84 31.91 32.04 32.28 32.74 33.11 33.72 34.15 35.87 36.25 36.43 36.59 37.27 37.89 38.48 39.60 40.59
33.02 30.59 30.35 29.77 28.78 27.48 26.08 24.61 23.42 25.21 22.63 21.48 21.66 22.36 22.11 22.65 23.43 24.40 25.31 25.92 28.08 30.47 30.12 30.56 31.36 31.81 32.45 33.28 34.19 34.25 34.51 35.31 36.28 37.12 37.28 37.43 37.79 38.64
31.48 30.73 30.45 29.79 27.97 26.02 25.12 23.79 23.54 22.18 22.18 21.10 21.22 21.25 21.15 23.07 22.99 22.23 22.80 24.43 23.60 26.49 28.23 28.84 30.38 31.45 32.28 32.72 32.86 33.67 34.38 34.67 35.30 36.14 36.86 36.72 37.00 38.11
30.33 30.35 29.82 30.39 32.00 29.22 26.00 23.54 22.35 21.45 20.75 20.04 19.54 19.52 20.23 20.26 20.60 22.07 21.02 21.47 22.89 24.39 24.09 24.74 26.40 26.73 27.34 29.80 31.18 32.76 33.42 33.94 34.61 35.78 36.55 36.42 36.20 37.52
28.30 27.74 28.19 30.97 31.44 33.55 32.88 30.22 25.61 21.80 20.11 18.13 18.10 18.17 18.75 19.85 19.90 19.44 19.89 20.03 19.41 23.88 23.12 23.77 26.26 25.52 27.01 27.68 30.74 32.11 33.39 34.02 34.36 34.75 36.07 36.21 36.02 36.19
26.93 26.70 27.56 29.30 29.94 27.56 29.99 28.97 27.60 27.33 24.83 19.94 17.76 18.50 17.70 20.00 20.37 20.65 21.60 22.46 22.52 24.78 24.37 22.55 24.91 24.09 27.04 28.81 31.40 32.64 33.47 33.98 34.41 35.08 35.69 35.89 35.87 35.33
26.68 28.18 28.76 27.61 26.88 25.91 24.05 23.05 23.25 23.53 23.24 22.64 20.72 20.85 21.10 22.08 22.55 24.13 24.28 24.00 23.74 23.86 23.49 20.59 23.91 23.94 26.45 27.54 31.14 32.50 33.35 34.69 35.07 35.43 35.66 35.69 35.69 35.53
27.38 27.88 29.27 26.41 28.26 30.13 24.59 23.19 22.86 23.16 25.60 26.44 26.89 27.14 27.31 27.11 26.21 22.15 19.88 20.38 18.62 20.71 23.94 21.48 21.80 23.53 25.31 26.22 28.24 31.53 33.89 33.70 34.13 34.05 34.60 35.49 35.80 35.68
26.99 27.64 30.73 28.48 28.40 29.10 22.96 21.51 19.64 21.63 21.55 21.37 22.07 23.47 24.12 23.77 25.53 23.08 21.45 18.97 19.19 18.30 23.14 20.53 22.41 24.87 22.95 22.79 23.76 26.38 26.15 29.85 33.14 33.52 33.92 34.63 35.80 33.57
27.07 26.87 27.09 29.40 29.66 29.06 28.46 22.77 20.77 23.13 22.47 22.12 22.37 21.46 21.64 22.01 22.45 22.91 22.77 21.04 19.20 19.68 23.57 24.55 22.50 23.93 25.80 24.74 23.73 24.63 24.10 26.55 29.32 31.97 32.42 32.68 35.03 33.98
27.00 27.31 27.47 29.69 30.01 29.75 28.17 28.15 28.55 25.24 22.22 19.91 18.40 18.41 18.30 18.92 20.88 21.72 22.91 22.86 23.43 23.09 24.82 24.50 23.36 24.37 23.95 22.78 23.18 23.91 24.08 27.42 31.11 31.23 28.66 29.66 31.91 34.07
28.63 28.63 29.31 29.88 30.48 28.79 29.63 29.72 25.82 22.19 19.56 13.46 16.78 17.05 16.76 19.32 21.56 21.98 22.87 22.47 22.84 24.05 26.14 24.30 24.22 23.93 24.75 23.37 24.19 26.21 25.89 27.31 28.54 29.09 30.11 27.00 26.34 30.68
29.40 29.64 27.54 28.16 25.97 25.11 23.89 25.89 22.90 21.77 20.86 18.90 16.44 15.17 16.71 17.91 17.16 19.16 16.92 19.34 19.41 19.48 23.34 24.30 24.34 24.52 22.11 24.26 27.26 25.76 26.21 25.13 26.58 29.79 26.68 23.76 27.52 31.19
27.73 28.63 25.56 25.11 24.39 24.27 23.37 22.83 21.76 20.48 18.61 15.31 14.86 14.81 16.24 17.36 16.20 17.81 18.60 18.55 14.20 16.20 18.05 22.00 23.56 23.61 24.17 27.35 23.45 24.19 24.19 25.45 29.36 28.53 25.46 25.93 28.79 31.45
27.09 25.13 23.77 23.64 23.76 22.72 21.79 22.10 20.13 18.71 20.56 18.17 15.56 16.13 16.21 14.59 14.71 16.70 17.26 14.31 13.82 15.81 16.53 19.18 19.77 19.02 22.17 24.64 28.56 24.09 24.07 26.06 29.56 28.46 28.20 26.29 25.67 30.30
27.80 24.61 23.89 23.60 22.69 21.87 21.48 20.70 19.53 18.88 19.78 18.17 17.24 15.56 15.50 14.76 13.00 14.23 13.46 14.09 13.85 15.28 16.32 18.06 18.38 17.80 16.01 13.08 20.96 28.85 24.30 24.96 26.63 24.95 26.48 26.75 26.29 27.60
29.41 25.52 21.55 22.37 22.81 22.36 21.75 20.63 20.83 20.09 16.53 16.22 14.39 15.66 11.17 10.54 10.45 11.88 12.72 6.50 10.48 14.70 15.91 16.49 16.31 17.93 16.97 16.47 17.12 17.92 27.72 25.74 23.13 25.03 25.82 27.53 28.50 30.60
28.35 27.67 25.79 25.27 23.59 23.61 22.85 21.49 20.82 18.69 12.20 10.37 15.29 14.64 9.91 10.35 8.12 9.88 8.29 8.37 7.36 15.21 13.75 13.51 15.55 20.20 22.63 24.74 17.65 17.24 19.14 26.68 27.93 25.38 24.63 22.82 22.04 24.59
28.78 26.29 27.03 26.55 26.04 24.25 23.23 21.45 19.15 16.57 13.85 14.19 14.26 14.50 10.67 8.15 7.54 5.36 1.73 3.78 10.49 9.37 12.25 14.84 17.10 19.34 20.83 22.98 21.04 19.26 20.19 19.15 24.21 27.28 27.65 27.63 24.38 18.65
28.65 26.82 26.01 26.50 26.99 25.98 24.64 22.73 21.93 19.61 18.51 17.47 18.13 15.25 10.19 6.49 7.84 6.21 3.34 7.40 10.29 9.43 10.66 11.28 13.81 16.18 17.21 19.57 19.98 19.19 20.83 20.02 21.77 21.45 21.07 26.85 28.32 28.81

GFSNE_sfc_wetblb_054.txt.gz
Wetbulb
34.74 35.65 34.11 33.76 34.22 34.93 34.99 34.00 31.42 27.36 26.25 28.24 28.21 29.28 29.09 29.28 29.66 30.39 28.72 31.03 32.61 33.55 33.63 34.62 35.55 36.38 36.85 37.54 38.24 38.85 39.70 39.95 40.43 41.03 41.59 42.03 42.76 43.43
34.45 33.48 32.85 32.98 33.23 32.35 31.67 31.88 32.26 29.86 25.40 26.63 26.37 27.07 27.89 28.85 29.03 29.19 27.93 31.75 31.54 32.34 33.07 33.70 34.22 34.96 35.32 35.97 36.50 37.08 37.67 38.35 39.15 39.63 39.91 40.70 41.56 42.02
34.52 33.21 32.59 32.13 30.46 29.57 29.37 28.77 27.66 26.54 23.72 25.42 25.72 26.04 25.31 25.59 26.38 26.66 27.61 27.49 28.43 31.45 32.21 32.31 32.55 32.89 33.32 33.69 34.10 34.93 35.94 36.36 37.32 38.00 38.74 39.39 40.24 40.92
33.93 32.93 31.89 32.72 29.47 28.60 27.85 27.47 25.89 25.56 23.88 22.03 23.48 24.17 24.13 25.38 25.06 24.75 26.44 28.39 28.47 30.05 31.12 31.46 31.60 31.96 32.60 32.84 33.19 33.64 34.33 35.01 36.00 36.63 37.44 37.70 38.54 39.28
33.30 32.25 30.63 29.17 27.79 28.32 28.21 26.09 24.97 26.08 24.21 22.63 22.55 23.88 24.00 24.42 24.02 25.34 25.56 26.55 27.78 29.83 29.61 30.01 30.95 31.72 32.37 32.88 33.28 33.90 33.97 34.39 34.36 35.14 35.75 36.23 36.69 37.55
32.96 31.41 29.81 28.79 28.00 28.41 26.75 25.61 24.89 23.27 22.94 22.36 22.21 22.46 22.45 23.57 23.89 22.46 22.28 24.51 24.15 26.36 28.01 28.63 30.04 30.90 31.39 31.68 32.11 32.91 33.37 33.96 34.40 34.95 35.30 35.18 35.59 36.88
31.02 29.98 29.76 30.42 32.80 30.60 26.71 25.28 24.07 22.38 22.28 21.84 21.05 21.26 20.79 20.03 19.79 22.37 20.75 22.10 23.58 25.42 25.56 26.39 27.81 28.15 28.48 30.11 30.84 31.75 32.13 33.23 33.89 34.47 34.58 35.09 35.51 36.50
29.22 28.91 28.73 31.44 31.75 33.67 34.39 33.97 26.63 22.95 22.08 20.25 20.40 19.53 19.13 19.81 21.45 20.37 20.36 20.28 19.15 26.41 25.18 24.56 27.15 26.24 27.72 28.98 30.28 31.52 32.68 33.41 34.03 34.43 34.74 35.25 35.45 35.34
28.60 28.02 27.76 29.69 31.14 29.74 30.00 32.48 30.78 29.33 25.20 22.93 20.54 19.83 18.69 20.93 21.56 20.55 21.61 21.85 21.78 24.42 24.88 22.18 25.59 24.60 27.84 28.67 30.52 31.41 32.40 33.20 33.96 34.55 35.30 35.20 35.23 35.11
28.26 27.45 26.67 27.37 27.93 28.15 26.68 24.74 24.75 24.85 25.00 24.72 22.73 21.31 21.84 23.03 22.88 23.55 23.27 22.75 23.24 24.07 24.99 19.71 24.80 24.42 27.19 28.16 30.48 31.71 32.75 33.44 34.36 34.92 35.09 35.13 35.04 35.18
28.48 27.49 27.62 27.53 30.36 31.62 26.86 24.20 23.83 24.01 27.03 28.53 27.74 27.06 27.53 27.84 27.06 23.87 20.36 19.98 17.65 19.58 23.52 22.06 24.08 23.64 25.97 27.42 29.60 31.33 33.16 33.91 33.62 33.52 34.13 34.36 34.46 34.78
27.98 27.48 30.49 29.32 30.33 30.30 26.27 23.73 21.19 22.81 23.71 22.75 22.61 24.19 25.95 24.81 25.91 23.95 22.25 18.77 18.30 17.14 23.94 21.48 22.49 23.53 22.50 27.72 28.10 30.50 31.16 31.11 31.72 32.65 33.08 33.60 33.60 33.16
28.18 27.74 28.20 30.35 31.85 31.21 30.16 24.17 22.65 24.45 23.53 22.58 22.25 23.14 23.67 23.45 23.56 23.99 23.72 21.92 19.30 18.90 23.48 23.75 22.47 22.51 23.39 23.94 26.93 28.18 29.47 29.96 30.58 30.92 32.79 33.63 32.69 33.77
28.25 28.22 28.44 30.69 31.39 31.43 30.31 28.84 27.94 25.35 23.54 22.21 21.57 21.16 21.12 21.32 22.54 22.92 23.60 23.91 23.98 22.48 24.17 24.53 21.92 22.12 22.05 21.95 21.56 27.14 28.89 30.34 30.10 30.79 31.80 32.42 32.16 32.41
29.56 29.31 30.03 30.71 31.36 30.35 30.85 29.98 27.84 26.01 24.17 22.50 21.17 20.96 21.07 22.06 22.71 22.60 23.59 23.31 23.27 23.62 24.73 24.84 23.89 23.49 23.16 21.31 21.90 24.67 26.82 29.00 30.28 29.49 30.93 31.51 29.78 30.77
29.42 31.04 28.99 28.65 28.09 29.47 28.36 29.63 28.64 26.36 24.99 22.84 21.00 20.77 19.81 19.54 19.80 21.02 19.42 20.19 19.94 19.88 22.85 23.77 24.15 23.82 21.64 22.77 23.85 26.52 27.08 25.21 28.89 30.05 30.52 28.94 31.68 33.50
28.43 27.89 28.20 27.44 26.64 25.81 25.72 25.94 26.07 24.76 22.86 21.59 19.23 19.38 18.39 18.75 18.94 19.92 19.55 19.46 17.21 16.81 18.50 21.19 23.15 23.67 23.10 22.41 22.71 26.20 26.06 26.44 29.19 29.66 28.98 28.86 31.55 31.71
27.78 27.41 26.83 26.08 24.53 24.52 24.40 24.25 24.48 23.20 23.31 21.72 19.20 19.77 18.56 17.77 17.84 18.24 18.88 17.18 16.02 16.70 17.21 19.01 19.64 19.63 21.50 24.49 28.78 25.73 25.73 25.75 27.33 28.90 27.63 26.67 27.34 30.29
28.91 27.05 27.01 26.15 24.73 24.92 25.26 23.93 22.67 23.27 23.67 21.25 20.62 19.20 18.15 17.74 16.85 17.11 16.79 16.29 15.91 16.70 17.47 18.79 17.81 17.57 16.28 15.54 22.15 28.02 24.45 25.93 26.08 27.33 28.38 28.03 27.68 28.60
29.87 28.20 27.81 26.73 26.26 24.64 24.40 23.94 23.26 23.45 21.00 20.27 18.09 17.16 15.39 16.15 15.95 15.82 16.37 12.76 14.18 16.01 16.79 17.67 16.66 16.67 16.55 17.58 19.42 22.04 26.17 25.84 24.95 24.37 24.40 27.23 29.54 30.38
26.77 26.38 28.59 27.68 25.83 25.34 25.06 24.59 23.29 22.79 20.72 16.17 17.12 15.19 13.09 15.05 13.96 14.96 14.55 10.07 10.52 16.18 15.39 15.36 17.30 19.01 20.16 23.25 20.50 20.98 24.94 26.56 27.79 25.13 24.96 24.17 24.94 26.99
26.50 26.86 28.26 28.59 28.10 26.43 24.90 24.71 23.31 21.85 19.35 16.59 16.22 14.93 14.24 14.56 14.23 13.34 10.77 12.02 14.99 15.02 14.48 16.49 17.70 18.84 19.82 21.24 20.70 22.31 23.71 24.58 25.68 26.99 27.31 27.73 25.49 22.83
17.86 19.79 26.61 27.76 27.47 27.27 25.35 24.69 23.54 22.01 21.35 19.44 18.58 16.41 14.74 15.14 14.71 13.52 11.68 12.36 13.78 13.99 13.74 14.12 15.05 16.44 17.03 18.97 19.14 19.53 20.61 22.81 23.97 23.41 24.75 27.19 28.19 28.14

GFSNE_sfc_wetblb_057.txt.gz
Wetbulb
42.85 42.49 42.00 42.49 41.73 41.32 41.33 40.30 36.95 32.27 33.25 36.76 35.61 38.64 38.57 37.84 36.29 36.15 35.46 33.57 32.52 33.28 33.50 33.98 35.01 35.74 36.31 36.92 37.62 38.47 39.26 39.72 40.40 40.95 41.39 41.55 42.28 42.91
42.01 41.51 41.46 41.34 40.97 41.03 40.67 40.13 39.04 35.90 32.13 36.95 36.08 36.46 36.53 35.32 35.23 34.86 34.48 32.34 32.37 31.91 32.42 33.06 33.78 34.50 34.76 35.04 35.62 36.21 36.99 37.74 38.42 39.10 39.87 40.51 41.19 41.95
40.99 40.84 40.58 40.99 40.07 39.85 39.30 38.39 37.03 36.09 32.94 35.18 35.73 35.41 34.42 33.96 34.33 34.60 33.32 32.93 33.49 31.94 31.73 32.27 32.54 32.78 33.06 33.37 33.69 34.30 34.91 35.52 36.42 37.24 38.07 38.99 39.86 40.79
40.55 40.33 39.73 39.52 39.33 39.52 38.07 37.03 36.04 36.74 33.97 31.52 34.03 33.41 32.64 33.69 33.23 32.01 31.34 31.91 32.57 31.61 31.04 31.50 31.80 31.85 32.45 32.97 33.34 33.96 34.32 34.73 34.97 35.36 36.18 37.40 37.96 39.03
40.96 40.22 39.82 39.91 38.59 38.39 37.26 36.17 36.79 35.66 34.21 31.86 31.38 33.59 32.47 32.96 31.75 31.59 30.80 31.42 31.46 31.00 30.50 30.58 30.91 31.70 32.15 32.44 32.70 33.19 33.76 34.08 34.39 34.51 34.78 35.23 35.65 36.47
40.65 40.35 40.22 39.42 38.59 38.03 36.45 36.06 35.79 34.09 33.19 31.68 31.42 31.28 31.53 32.10 30.74 28.08 28.04 30.59 29.60 30.86 30.93 30.71 30.68 31.47 31.80 31.82 31.83 32.51 33.14 33.82 34.07 34.28 34.72 34.83 35.19 35.31
40.46 39.88 39.79 39.23 36.97 36.35 35.45 35.71 34.26 32.98 32.04 31.24 30.37 30.43 29.76 29.74 27.87 27.99 26.77 28.15 29.48 30.99 30.79 31.35 31.53 31.98 32.87 32.13 32.38 32.49 32.55 32.91 33.41 33.97 34.36 34.90 35.13 35.34
39.29 39.75 38.90 35.53 35.75 34.89 35.09 34.22 33.98 33.41 32.10 30.71 30.15 28.72 28.82 29.21 28.38 27.00 26.44 25.22 24.07 31.77 29.23 28.39 31.36 30.38 32.15 33.33 31.86 31.59 32.01 32.66 33.16 33.79 34.21 34.90 35.26 35.34
39.39 38.68 37.87 35.92 34.31 35.67 33.62 33.10 32.88 32.84 29.40 32.03 29.52 29.45 28.71 28.99 27.39 26.37 26.61 26.06 25.65 28.56 28.03 25.97 29.99 29.04 32.33 32.36 31.80 31.82 32.41 33.23 33.84 33.99 34.31 35.24 35.41 35.27
38.84 38.35 37.84 37.66 36.75 35.25 34.03 33.56 33.44 33.33 32.65 30.92 31.09 30.83 30.82 29.33 28.59 28.02 27.35 26.97 27.80 28.91 29.31 23.40 28.95 28.55 31.14 32.35 32.14 32.60 33.04 33.24 34.01 34.52 34.86 34.70 35.06 34.85
37.96 37.78 37.31 36.78 34.82 32.60 32.41 32.01 32.03 31.80 31.17 30.11 29.73 29.77 28.36 27.42 28.74 28.88 26.07 25.14 23.83 25.49 28.80 26.44 27.66 27.13 29.19 30.95 33.70 32.24 32.26 32.50 32.57 32.67 33.09 33.52 34.44 34.00
37.50 37.18 33.31 34.94 32.73 31.52 32.80 32.58 30.14 30.63 30.86 30.12 30.00 29.37 28.56 29.28 27.94 28.59 27.83 24.26 24.04 23.09 28.73 24.41 25.34 26.39 23.89 30.18 31.94 33.08 33.56 32.58 32.64 33.07 32.96 33.10 33.27 35.47
35.80 35.91 36.17 32.29 31.99 32.00 32.20 32.99 31.46 32.27 29.91 29.19 29.41 29.22 28.92 29.33 29.75 30.01 29.38 27.23 24.73 24.11 28.12 26.23 24.89 25.09 24.24 24.59 28.63 31.02 32.39 33.94 34.49 35.19 34.25 33.91 33.82 33.36
34.47 36.08 36.33 33.29 32.34 32.09 32.49 32.18 30.59 29.55 30.27 29.30 28.54 27.70 28.06 28.62 29.78 30.01 29.47 28.76 28.82 26.42 28.02 27.54 23.89 23.63 22.60 22.73 23.86 29.46 31.28 33.57 34.82 34.10 34.91 34.32 33.71 33.78
35.45 35.20 33.58 32.88 32.35 31.53 31.51 31.64 30.34 30.49 30.06 27.84 27.49 27.70 29.01 30.09 29.76 28.43 28.08 28.24 27.53 27.43 27.16 27.28 26.14 25.85 25.06 23.37 24.37 26.64 27.87 31.80 33.58 32.68 32.76 32.71 33.19 34.32
32.44 33.80 33.34 32.12 32.02 32.93 32.03 31.91 32.46 32.73 30.76 28.83 28.84 29.20 29.66 28.01 27.00 28.31 26.24 26.28 24.81 25.01 26.84 27.25 26.55 26.08 24.53 25.54 26.35 26.18 28.61 28.44 32.11 32.24 31.19 31.88 34.22 35.06
31.98 32.65 32.32 31.73 30.28 30.06 30.71 30.89 31.72 31.58 29.81 29.85 28.76 27.85 26.88 26.81 26.67 27.83 25.98 25.21 23.18 23.07 23.66 25.93 26.73 26.71 26.97 25.96 25.24 27.57 29.63 29.22 31.10 30.20 29.51 29.34 32.12 33.50
30.32 29.66 31.25 31.52 30.42 29.77 29.55 29.55 29.83 29.24 29.51 29.18 28.72 27.58 26.84 26.62 26.18 26.47 25.63 24.64 22.89 23.21 23.26 24.61 24.71 24.94 26.97 28.92 28.13 28.11 28.73 28.36 29.79 30.37 30.00 28.40 30.00 33.04
29.05 30.35 30.79 31.63 30.43 29.11 28.96 29.00 28.52 29.57 30.10 28.75 27.74 27.36 27.41 26.36 25.41 25.29 25.09 24.07 22.91 22.97 23.57 24.27 23.42 22.78 21.71 21.64 27.51 27.62 26.80 27.59 28.34 29.62 30.13 29.25 29.82 32.27
28.83 29.52 30.73 32.26 31.47 30.27 30.05 29.52 29.34 29.19 28.18 28.36 27.87 27.75 27.02 25.99 25.63 24.39 24.52 23.32 22.67 22.23 22.48 23.81 23.15 22.73 21.57 21.92 22.22 26.63 26.82 27.39 27.42 26.94 27.28 29.27 32.27 30.44
19.80 19.95 26.84 30.77 30.75 30.61 30.31 30.38 29.61 29.51 28.93 28.26 27.92 26.99 26.77 26.25 25.32 25.20 24.76 20.84 20.03 21.08 20.93 21.77 23.48 22.05 24.41 26.09 23.78 26.44 29.83 27.20 28.10 26.65 26.55 27.89 28.52 29.28
16.85 17.13 18.96 21.53 24.66 30.91 31.51 30.92 29.65 28.73 28.20 27.37 27.59 27.80 27.01 25.96 25.70 24.93 24.44 23.40 22.00 22.16 22.01 22.98 23.40 23.95 24.81 24.15 23.36 24.83 26.70 29.02 28.45 26.97 27.60 27.48 27.07 25.27
14.29 14.39 16.27 17.66 20.44 22.48 26.97 30.65 29.58 29.20 27.94 27.43 27.46 26.76 26.18 24.59 25.09 25.71 25.04 22.67 22.16 21.27 21.25 21.09 22.05 23.15 22.55 23.04 22.46 23.89 23.99 25.57 26.66 27.01 28.27 26.84 27.21 27.52

GFSNE_sfc_wetblb_060.txt.gz
Wetbulb
43.72 44.01 43.83 45.38 45.51 44.92 43.87 42.86 40.27 36.15 37.23 40.89 40.48 43.41 42.64 42.04 41.15 40.12 39.26 38.11 35.78 34.41 33.97 34.07 34.73 35.57 36.00 36.72 37.01 37.53 38.19 38.80 39.26 40.11 40.81 41.61 42.08 42.90
42.20 44.25 45.18 44.94 44.97 44.53 43.71 43.21 42.37 39.59 36.26 40.65 40.78 42.10 41.57 40.19 40.21 39.10 38.57 36.70 36.08 35.07 33.73 33.40 33.73 34.21 34.73 35.03 35.25 35.61 36.19 36.75 37.25 37.92 38.78 39.70 40.81 41.68
44.50 44.34 44.37 44.94 44.05 43.74 43.62 42.64 41.35 40.66 37.12 39.22 40.85 41.73 40.16 38.91 38.89 39.45 38.85 37.77 37.02 35.73 34.19 33.31 32.80 32.79 33.30 33.47 33.71 34.36 34.95 35.68 36.29 36.83 37.48 38.20 39.43 40.33
44.12 44.23 43.67 43.41 43.52 43.62 42.77 41.70 41.10 41.12 38.46 36.02 39.37 39.17 39.11 39.41 38.54 37.49 36.73 36.60 36.28 35.68 34.07 32.77 32.31 32.06 32.38 32.67 33.21 33.73 34.02 34.39 34.96 35.50 36.29 36.75 37.35 38.41
44.33 43.98 43.32 43.52 42.49 42.64 42.33 41.35 41.04 39.87 39.45 37.87 36.84 38.64 38.33 38.09 37.10 37.25 36.40 35.85 35.79 35.18 34.41 33.88 32.67 32.48 32.67 32.79 33.00 33.34 33.50 33.77 33.86 34.35 34.84 35.17 35.81 36.27
44.32 43.83 43.58 43.30 42.54 42.42 41.72 41.19 40.14 39.14 38.94 37.57 36.52 36.28 36.46 37.25 36.97 34.30 33.71 34.76 34.13 35.06 35.16 34.27 33.10 33.28 33.03 33.02 33.11 33.11 33.04 33.62 33.92 34.04 34.28 34.57 34.94 35.14
44.08 43.88 44.13 43.06 40.71 40.67 41.01 40.66 39.87 38.42 37.57 35.60 34.51 33.79 33.90 34.05 33.87 34.79 32.40 32.65 33.80 34.96 34.55 35.14 35.10 35.28 35.73 34.97 34.67 33.57 33.49 33.29 33.31 33.61 33.91 34.53 34.92 35.11
42.78 43.52 43.86 41.16 39.82 37.00 35.86 35.19 36.62 37.54 35.93 33.67 32.81 31.80 32.93 34.69 34.71 33.39 31.69 29.91 28.36 35.45 33.27 32.17 34.47 33.68 34.89 35.81 34.78 32.74 32.60 32.95 33.35 34.16 34.40 34.38 34.85 34.90
43.01 42.57 42.06 41.87 39.81 41.09 36.37 34.46 34.64 34.13 31.87 35.66 33.13 33.24 33.77 34.46 33.94 32.46 31.07 30.57 30.04 32.80 32.04 29.69 33.40 32.14 34.80 35.04 34.45 33.58 32.90 33.36 33.83 33.86 34.84 35.27 34.91 35.02
41.95 42.07 41.67 41.47 41.56 40.53 39.68 38.81 38.26 37.28 35.10 34.81 35.46 35.61 35.27 35.55 34.35 32.57 31.19 30.93 31.31 32.70 33.64 27.86 32.23 31.20 33.76 34.78 33.87 33.73 33.17 33.12 33.29 33.30 33.56 33.91 34.02 34.38
41.21 41.62 41.35 40.83 38.33 37.22 38.72 37.09 36.88 36.21 35.81 34.09 33.23 32.64 31.40 29.98 29.96 31.22 29.19 28.46 27.59 29.65 32.97 30.13 30.32 30.00 31.48 32.71 34.23 34.23 33.70 33.91 33.92 34.00 33.82 33.78 33.94 34.09
39.81 39.98 36.68 37.91 36.02 34.19 37.62 36.09 34.92 35.60 34.86 34.75 34.04 32.04 31.02 32.46 29.73 30.59 30.60 27.32 27.70 27.18 32.12 28.56 29.00 29.06 26.90 31.87 32.94 33.15 34.70 33.98 34.13 34.67 35.08 35.31 34.95 36.62
36.49 37.61 39.49 35.49 34.38 34.10 33.75 36.49 36.08 36.74 34.20 34.80 33.75 33.33 32.63 33.25 32.94 31.79 31.29 30.60 28.58 28.14 31.95 30.14 28.07 28.16 27.64 27.72 30.30 31.56 33.67 34.12 35.04 35.69 35.29 35.41 35.38 34.69
33.11 34.91 36.16 35.09 34.69 34.24 33.38 33.36 33.13 32.97 35.45 34.69 31.70 30.84 30.95 31.13 31.96 32.54 32.68 32.63 32.95 30.69 31.94 30.98 27.26 27.28 26.40 26.03 26.24 30.27 32.72 34.49 35.06 35.12 35.60 35.17 34.39 34.65
33.77 33.59 32.27 32.33 32.78 32.78 32.63 32.23 32.06 34.84 33.47 32.22 31.45 31.05 31.80 33.21 33.16 32.36 32.06 32.15 31.76 31.67 30.69 30.64 28.96 28.52 27.64 26.07 25.94 27.51 29.03 31.61 34.85 34.29 34.24 33.22 32.83 35.00
31.15 34.35 32.52 30.68 31.22 32.28 32.91 33.57 33.53 33.98 33.21 32.40 32.29 32.83 33.49 32.57 30.84 30.87 29.15 29.05 28.15 29.20 30.96 30.93 29.95 28.95 26.69 27.56 27.90 27.09 29.13 28.62 33.38 33.58 32.67 33.00 33.90 35.32
29.00 31.69 32.28 32.32 32.51 32.86 33.25 33.28 34.75 33.82 32.94 33.48 32.95 32.26 31.74 30.99 30.23 30.85 29.62 27.85 26.57 27.02 28.04 29.77 30.89 30.36 29.20 27.98 26.33 27.59 28.89 30.98 32.27 31.41 31.32 30.78 33.27 35.81
29.61 30.21 31.45 32.19 31.81 31.56 32.79 32.86 33.29 31.86 32.07 32.50 32.66 31.79 30.22 30.13 29.04 29.80 29.23 27.10 26.07 27.21 27.42 28.61 28.97 27.81 28.43 30.57 30.82 28.25 30.08 30.23 29.73 30.54 31.56 29.42 30.62 34.57
25.69 26.38 26.70 28.10 32.51 32.81 32.34 32.65 31.86 33.36 32.51 31.22 31.54 31.05 30.29 30.07 29.68 28.98 28.41 26.84 25.89 27.13 27.71 28.56 27.52 25.88 23.60 22.96 30.09 28.89 28.07 28.63 28.38 28.81 29.95 29.29 29.53 32.37
23.62 22.62 22.99 24.62 25.25 28.27 33.44 32.54 32.58 33.11 32.71 30.61 31.17 31.70 31.10 30.04 29.35 26.92 26.81 26.55 26.10 26.50 26.62 27.58 27.43 26.29 24.37 23.40 24.07 28.42 28.32 28.48 27.91 27.46 27.31 29.75 32.96 31.85
20.58 20.82 21.23 20.95 22.58 24.16 26.73 32.04 32.57 32.42 32.28 31.69 30.89 30.94 31.15 29.80 28.57 27.71 27.02 26.20 25.59 25.81 24.36 25.57 28.05 24.10 26.21 27.56 25.17 27.64 32.18 28.38 28.29 27.88 27.28 27.87 28.63 31.56
18.97 18.71 19.43 19.90 19.48 21.18 23.61 26.50 29.02 31.84 31.69 31.07 31.03 31.10 31.15 30.30 28.47 27.50 27.17 26.60 24.82 25.44 25.97 27.68 27.60 26.91 26.44 25.52 24.65 26.31 28.11 30.32 30.22 28.22 27.32 26.79 26.81 24.92
17.23 17.46 17.59 18.12 18.44 18.59 20.19 21.18 23.48 25.85 31.18 31.01 30.99 30.47 30.93 29.47 28.50 28.39 28.02 26.68 25.85 25.68 25.34 25.08 26.04 26.42 25.16 25.27 24.50 25.36 25.80 26.97 28.19 28.33 31.01 26.84 26.76 27.05

GFSNE_sfc_wetblb_063.txt.gz
Wetbulb
43.82 44.22 42.72 44.51 46.61 46.38 45.51 44.24 40.73 36.76 37.92 41.60 41.81 45.46 44.79 44.79 43.98 42.73 41.33 40.56 39.62 37.88 37.27 36.18 35.86 36.03 36.16 36.62 37.01 37.73 38.21 38.35 38.86 39.39 39.89 40.79 41.62 42.16
42.81 41.92 43.47 45.71 46.06 45.84 45.26 44.19 43.07 40.21 37.25 41.22 41.84 43.48 43.75 42.90 43.26 41.66 40.84 40.98 39.26 38.71 38.08 36.49 35.30 35.08 35.15 35.29 35.47 35.89 36.40 36.69 37.15 37.82 38.48 39.04 39.87 40.53
41.48 43.64 44.62 46.11 45.25 45.37 44.91 43.99 42.33 41.30 38.11 40.30 41.98 43.15 43.05 43.10 42.23 42.19 41.33 40.30 40.11 39.06 38.05 36.43 35.33 34.41 33.95 33.96 33.98 34.34 34.77 35.42 36.08 36.62 37.13 37.84 38.68 39.48
43.06 44.81 44.96 44.67 45.36 44.91 44.12 43.11 42.34 42.64 40.37 38.41 40.68 40.68 41.79 42.31 42.27 41.16 39.50 39.14 38.96 38.52 38.12 36.40 35.10 34.41 33.95 33.55 33.37 33.72 34.07 34.44 34.79 35.00 35.56 36.28 37.04 37.79
44.98 45.33 44.84 44.08 44.43 44.22 43.64 43.12 42.99 41.94 42.01 39.94 39.02 41.31 41.44 41.31 40.29 40.25 39.58 39.89 38.39 38.89 37.65 36.25 36.00 34.90 34.47 34.44 34.13 34.17 34.05 33.97 33.81 33.96 34.26 34.88 35.55 36.21
45.57 45.35 44.68 44.59 43.58 43.92 43.53 43.47 42.97 42.18 41.37 39.94 39.07 39.04 39.60 40.51 39.19 36.65 36.41 38.35 36.69 36.96 36.99 36.01 36.27 36.45 36.63 36.21 35.61 34.54 34.48 34.58 33.97 34.12 34.65 34.58 34.41 34.58
44.75 44.76 45.35 44.73 42.11 41.87 42.44 42.39 42.19 41.14 40.17 38.73 37.64 37.72 36.70 36.50 35.30 36.75 34.88 35.77 36.27 36.00 35.39 35.73 36.46 36.16 36.41 36.71 36.72 36.84 35.53 33.84 33.67 33.64 33.79 34.59 34.86 34.76
43.83 44.36 45.46 42.67 42.29 39.06 38.39 37.97 39.21 39.61 38.59 37.65 36.96 35.17 35.61 35.71 36.68 35.28 34.33 32.27 30.04 36.20 34.41 33.65 35.19 34.06 35.49 36.19 35.84 34.42 34.24 33.42 33.54 33.68 34.17 35.06 35.15 35.47
42.55 42.99 42.97 43.24 41.54 43.52 39.40 36.84 36.32 35.58 32.97 37.60 35.88 35.56 34.82 35.72 35.88 33.92 33.23 32.27 31.32 33.70 33.28 30.52 34.67 33.47 34.99 35.18 35.77 35.12 34.89 34.44 33.56 33.94 33.92 34.31 34.26 34.24
41.86 42.13 42.61 42.71 43.12 41.87 41.76 41.29 40.75 40.46 38.64 36.73 36.21 36.59 36.62 37.17 36.30 34.82 33.30 32.25 32.41 33.24 34.18 29.17 33.96 32.39 34.61 35.09 34.94 35.21 35.17 34.48 33.51 34.14 34.41 34.41 34.21 34.03
40.45 40.77 40.83 41.34 38.93 37.92 38.78 38.73 38.85 39.36 39.12 37.37 37.35 36.61 33.58 32.07 30.87 32.76 30.80 29.40 28.71 29.63 33.70 31.75 31.93 31.22 32.31 32.68 35.12 34.17 33.10 33.48 34.51 34.57 34.80 35.00 35.06 34.86
37.73 38.30 36.07 36.78 34.57 34.44 36.63 37.42 35.70 37.38 38.56 38.25 36.28 35.51 33.31 33.75 31.11 31.70 31.58 28.31 28.06 27.94 32.22 30.53 29.69 29.73 27.19 32.22 33.14 34.35 34.39 34.15 34.22 34.69 34.96 35.28 35.49 35.67
32.62 33.96 35.74 33.60 33.83 34.07 33.81 34.27 35.08 37.04 36.36 36.96 36.65 36.38 35.57 34.56 34.04 33.55 32.68 30.57 28.97 28.38 32.57 31.19 28.90 28.48 28.00 27.74 30.74 32.76 33.62 34.13 34.44 35.35 35.10 35.43 35.48 35.01
29.69 31.94 32.66 31.94 31.70 31.26 31.69 32.49 32.80 33.06 35.59 34.89 34.28 34.58 33.66 32.91 34.37 34.95 34.07 33.47 33.71 32.10 33.04 33.01 29.33 27.88 26.73 26.28 26.02 30.89 32.45 33.84 34.44 34.52 34.96 35.35 35.08 34.07
30.32 30.31 29.74 30.02 30.93 31.84 32.12 31.95 31.55 32.71 32.65 31.84 32.82 33.48 33.59 34.78 34.54 34.42 34.60 34.34 33.67 33.48 32.61 32.47 31.03 29.14 28.77 26.85 26.28 27.94 28.92 31.29 34.04 33.74 34.66 34.23 33.05 34.22
27.89 29.61 28.20 28.38 29.54 30.14 30.85 33.08 34.27 32.88 32.18 32.34 33.82 34.43 35.26 34.50 33.39 33.88 32.17 31.32 30.05 29.79 32.00 32.91 32.19 30.40 27.77 27.80 28.01 27.50 29.14 27.65 32.34 33.99 33.11 33.57 34.27 35.56
26.22 28.70 30.52 31.07 30.55 31.82 32.80 33.42 33.91 34.22 31.90 32.23 32.98 33.81 33.66 32.95 32.74 33.13 31.47 30.13 28.41 27.57 28.29 31.22 32.50 31.74 30.92 29.23 27.06 28.21 28.53 30.05 32.43 31.31 30.33 31.10 33.62 35.18
25.27 26.87 26.53 27.08 26.84 27.40 28.84 29.81 33.77 33.10 32.93 33.78 33.90 33.32 32.44 31.82 31.75 31.60 31.20 29.82 28.02 27.30 27.59 29.46 29.56 28.59 28.99 30.13 31.02 28.63 29.74 30.05 30.72 30.43 30.76 29.76 29.91 33.50
24.29 23.97 24.42 24.44 24.60 25.16 25.79 27.20 29.99 33.35 34.24 33.50 32.40 32.63 32.93 31.92 31.63 30.78 30.20 29.31 27.91 27.21 27.68 29.24 28.36 26.78 23.62 22.69 29.55 31.83 28.42 28.78 29.31 28.56 29.62 29.34 28.12 31.24
23.54 22.40 22.26 22.10 22.94 22.84 23.10 24.73 25.84 29.26 34.13 33.07 32.59 33.33 33.06 32.05 30.91 29.88 29.69 28.73 27.70 26.66 26.86 28.06 27.83 27.10 25.19 23.97 24.34 28.36 29.54 28.26 28.62 27.11 27.27 28.67 31.55 31.83
21.43 20.97 21.51 21.11 20.55 21.48 22.37 22.36 23.59 25.39 28.53 32.32 32.33 31.76 32.14 31.64 30.38 30.26 29.72 27.91 27.58 26.38 25.15 26.04 28.18 25.74 27.83 27.01 24.19 26.64 30.79 30.63 29.82 28.09 27.44 26.87 27.20 29.12
19.72 18.95 19.34 19.75 19.69 20.22 21.10 20.72 20.50 22.38 23.79 26.88 31.77 31.91 31.77 31.72 30.42 30.13 29.30 28.00 26.61 26.59 26.01 27.97 29.13 27.99 26.42 24.78 24.12 26.44 27.57 30.24 29.99 29.51 27.85 26.24 26.32 23.18
18.07 17.71 17.96 18.25 18.62 18.99 18.76 19.29 17.70 19.60 21.89 24.51 26.47 29.86 31.77 30.53 30.90 30.60 29.46 28.31 27.57 26.16 26.08 25.71 26.91 27.34 25.62 25.22 24.61 24.88 26.42 27.07 27.72 27.82 29.48 28.18 27.79 27.61

GFSNE_sfc_wetblb_066.txt.gz
Wetbulb
42.98 43.00 42.66 42.78 42.58 42.57 43.33 42.22 37.98 31.69 32.38 36.57 36.09 39.85 39.93 39.92 39.50 38.13 37.42 41.39 40.35 39.53 38.68 39.09 39.20 38.57 37.60 37.22 37.45 37.87 38.20 38.54 38.85 39.23 39.65 40.07 40.43 41.10
42.82 42.56 42.05 42.22 42.79 42.44 42.96 42.11 40.35 37.16 33.56 37.10 36.78 37.72 39.08 40.45 40.62 37.12 37.20 41.73 40.86 40.14 39.81 39.73 39.79 37.98 36.85 36.50 36.60 36.30 36.87 37.07 37.50 37.75 38.26 38.75 39.68 40.32
41.68 41.38 41.01 42.62 42.84 43.18 42.67 41.35 39.88 38.63 34.86 35.08 36.73 37.58 36.66 36.53 38.28 37.81 38.33 36.11 36.21 40.65 39.86 39.62 38.91 37.43 36.46 36.08 35.48 35.45 35.68 35.82 36.15 36.60 37.33 37.66 38.03 38.81
40.98 41.39 42.46 44.56 42.87 42.65 41.42 40.41 38.12 37.40 35.10 33.92 35.15 35.24 35.44 36.11 36.40 35.40 38.01 38.74 35.18 39.44 39.63 38.87 38.16 37.19 36.87 36.19 35.56 35.19 35.21 35.36 35.35 35.40 35.68 35.97 36.65 37.23
42.72 43.23 43.03 43.42 41.64 40.28 41.10 38.51 37.76 40.41 36.64 34.75 34.61 34.87 34.75 35.10 34.44 35.68 35.07 34.61 37.62 40.55 39.28 38.49 38.49 37.99 37.50 37.01 36.31 36.07 35.96 35.90 35.44 34.86 34.82 34.60 34.91 35.77
43.80 43.38 43.72 41.88 40.39 40.52 39.69 38.47 39.02 36.83 35.95 35.82 35.64 34.78 32.87 34.25 34.53 32.54 30.74 32.66 31.47 37.60 37.20 35.64 36.57 37.64 38.41 37.63 36.90 37.17 37.18 36.85 36.30 35.83 35.19 34.89 34.76 34.48
42.66 43.54 42.83 42.41 42.06 40.84 41.21 38.03 36.38 35.14 34.40 33.24 33.30 31.56 30.85 30.72 29.47 29.76 29.30 29.48 30.52 32.61 31.27 29.56 30.07 31.20 31.26 34.84 36.39 36.25 36.01 36.56 36.84 35.45 34.73 34.62 34.63 34.92
40.43 41.52 41.96 41.15 40.74 39.14 39.17 38.46 39.19 37.47 35.96 34.70 33.60 31.97 30.91 30.18 31.01 29.49 28.58 27.57 27.53 30.93 28.93 26.35 28.89 27.61 29.77 30.81 35.53 36.04 35.43 34.78 34.49 34.71 34.86 34.83 34.92 34.70
37.97 38.23 39.13 41.05 38.70 39.56 38.41 36.83 36.08 36.58 34.20 36.75 34.72 33.70 32.95 32.69 32.06 30.33 29.33 28.52 27.38 28.34 26.59 24.66 26.75 25.65 30.23 34.13 35.25 35.45 35.54 35.76 35.35 35.07 34.56 34.57 34.42 34.38
37.17 37.15 36.59 36.49 37.06 35.67 34.18 33.77 35.00 35.98 35.92 34.92 34.02 34.48 35.29 35.45 33.19 32.25 30.35 28.62 27.79 27.49 28.32 23.75 26.47 27.08 28.49 29.01 34.78 35.25 35.36 34.25 34.58 34.75 34.69 34.70 34.40 34.47
36.68 35.88 34.86 33.12 34.55 34.89 31.98 30.37 31.46 33.07 37.33 37.43 37.19 37.01 36.15 36.29 35.21 31.09 26.15 26.92 23.37 25.72 26.99 26.11 26.09 24.99 26.81 26.15 27.58 34.80 34.69 34.39 34.61 34.61 34.68 35.06 35.00 35.09
29.76 31.16 32.19 32.08 32.46 32.20 29.64 29.27 28.11 29.37 30.67 31.83 32.01 34.59 36.20 34.98 32.64 30.97 29.02 26.90 25.02 22.22 26.94 25.95 25.27 24.98 20.87 25.17 26.49 27.12 27.57 32.26 34.01 34.72 35.06 35.27 35.18 32.51
26.59 26.68 27.56 30.87 31.00 30.74 30.23 27.06 26.76 28.79 28.79 29.12 30.17 31.70 34.95 34.13 33.05 29.93 29.19 28.51 26.24 24.84 27.22 25.67 24.30 24.69 22.37 22.11 23.54 25.96 26.48 27.38 27.69 29.63 33.86 34.99 35.41 34.92
25.20 25.97 26.84 28.98 29.52 29.64 29.08 29.90 30.69 30.11 29.85 29.66 29.36 29.33 31.92 33.58 32.86 31.00 30.10 29.71 29.00 27.78 28.84 28.69 24.62 24.99 22.50 20.67 21.64 23.76 24.32 26.77 26.82 26.56 27.52 33.23 34.68 34.49
25.45 26.15 26.81 27.45 28.37 28.41 30.36 31.04 29.71 28.68 27.92 28.57 28.50 28.31 30.50 34.07 33.76 32.23 32.48 30.81 29.69 29.62 31.31 29.75 27.15 26.93 23.78 21.68 22.24 22.68 23.17 24.80 26.61 27.05 28.98 30.89 27.92 30.43
23.98 23.50 23.81 25.93 26.34 26.58 27.18 27.86 28.37 28.35 30.40 29.88 29.60 30.56 32.30 33.07 31.35 31.67 29.85 26.55 26.95 24.76 29.18 29.52 28.34 27.31 24.85 24.78 23.39 22.96 23.33 19.75 25.34 25.93 31.37 26.27 26.35 29.29
21.34 22.55 23.30 23.55 22.89 23.20 23.45 24.57 24.68 26.01 25.17 30.12 30.69 30.31 30.61 31.95 31.63 31.56 30.86 28.95 26.50 24.43 24.76 27.13 28.57 29.14 27.84 25.90 23.04 24.45 24.72 24.29 24.30 30.43 25.40 24.83 27.50 27.24
21.30 20.18 18.45 19.23 19.39 20.26 20.84 21.26 21.79 22.54 24.56 25.03 30.37 31.25 31.10 30.16 29.58 30.82 30.05 28.14 23.73 25.44 25.59 25.90 25.38 25.86 26.15 26.84 29.25 25.17 24.38 25.32 27.25 25.59 25.57 24.14 24.95 25.80
17.75 18.50 15.79 16.99 17.82 18.89 19.61 19.63 18.90 20.63 22.97 23.51 29.53 30.64 30.49 29.20 27.22 28.40 28.50 27.67 26.73 26.59 26.47 25.87 25.65 23.91 19.54 16.34 22.91 30.91 20.74 23.21 23.28 26.02 27.26 27.17 24.94 25.62
19.77 17.83 16.34 16.92 17.37 17.39 17.31 18.04 18.62 18.70 19.15 21.00 22.56 28.12 26.53 28.57 27.15 26.66 27.76 27.04 27.31 26.90 25.58 25.29 24.19 24.93 21.64 17.91 14.67 18.65 29.86 23.88 24.21 23.96 25.84 26.20 25.28 29.46
17.98 16.87 15.66 16.28 16.24 16.73 16.19 16.89 17.35 16.73 17.26 18.58 20.38 22.88 28.05 24.75 25.44 26.53 27.18 26.80 26.00 27.25 24.82 23.92 24.72 24.90 24.43 21.80 11.45 14.47 20.56 30.84 28.66 24.48 22.42 19.37 21.20 21.88
15.11 15.63 15.98 15.54 14.92 15.19 15.21 15.37 15.44 15.02 15.06 16.47 17.93 20.51 20.54 24.80 25.11 24.86 27.96 27.29 25.64 25.51 25.04 24.55 25.82 25.74 23.15 22.63 18.31 13.62 21.83 24.29 29.95 30.61 29.39 26.54 20.35 14.49
12.90 15.01 15.48 13.89 14.35 14.38 14.17 13.51 13.55 13.54 13.92 15.31 15.79 17.31 16.67 16.86 20.43 27.68 29.05 27.75 27.15 23.87 23.88 22.67 24.53 25.24 23.72 23.71 20.87 18.62 18.67 18.06 22.73 22.14 22.11 28.78 28.47 28.15

GFSNE_sfc_wetblb_069.txt.gz
Wetbulb
43.81 43.22 42.94 43.38 43.40 43.22 42.54 41.81 38.89 32.03 32.22 35.53 36.41 39.15 37.51 38.05 39.47 39.81 37.08 41.80 41.54 41.33 41.23 41.02 40.66 40.75 40.46 39.80 39.09 38.50 38.39 38.34 38.78 39.24 39.46 39.89 40.48 41.05
43.44 42.85 42.74 42.79 42.44 42.02 41.99 41.03 40.25 36.78 33.37 34.78 35.31 35.66 36.74 39.12 38.60 36.99 35.95 40.89 41.88 40.83 40.09 40.25 40.95 40.90 40.31 39.47 38.36 37.98 37.61 37.47 37.78 37.93 38.14 38.66 39.57 39.74
42.54 42.40 42.22 42.33 41.10 42.08 41.02 40.90 39.38 37.22 34.09 33.35 34.56 35.61 34.42 34.68 36.49 36.64 36.29 36.44 36.73 41.02 40.24 40.25 40.55 40.40 40.45 39.70 38.08 37.56 37.19 36.94 37.42 37.50 37.50 37.66 38.38 38.70
41.52 41.28 40.93 42.30 41.96 41.47 41.11 39.46 37.25 37.08 34.94 32.31 32.97 33.30 33.91 35.06 34.68 34.24 36.76 38.33 36.02 38.86 40.78 40.66 40.20 39.63 39.18 38.49 37.73 37.66 36.90 36.53 36.90 36.82 36.71 36.75 36.67 36.94
41.89 41.53 42.08 42.33 40.59 41.47 41.13 38.89 37.11 39.57 35.48 33.36 35.22 33.34 33.61 33.83 34.60 34.58 35.53 35.58 35.78 39.48 39.67 39.33 39.78 39.57 39.04 38.32 38.09 37.88 37.49 37.43 37.42 36.98 36.23 36.02 35.75 35.91
43.29 43.65 43.06 41.79 41.95 38.58 37.83 36.91 37.37 35.17 35.12 33.27 35.31 33.54 31.53 33.24 32.54 31.05 29.46 31.80 30.78 35.98 37.19 35.58 36.19 37.39 39.09 38.99 38.65 38.50 38.25 37.90 37.78 37.45 36.54 35.68 35.54 35.20
42.55 42.53 42.46 41.90 41.65 40.08 40.84 37.42 34.99 34.05 33.21 34.14 33.69 30.61 28.33 28.50 29.01 31.05 30.16 29.44 30.34 31.92 30.33 29.53 28.72 28.66 29.69 34.21 35.65 37.46 37.70 36.31 36.34 37.15 36.61 36.16 35.45 35.05
39.38 38.94 39.55 40.41 39.07 38.06 37.41 36.54 36.00 34.82 33.97 33.86 34.12 33.72 34.00 29.01 29.59 30.73 31.87 30.14 27.23 29.30 29.13 26.21 27.71 26.48 27.84 29.19 33.74 35.61 36.11 35.76 35.95 35.76 35.61 35.32 35.08 34.66
36.47 35.33 35.98 37.73 35.61 33.89 33.58 33.33 32.81 34.57 31.50 31.18 30.87 32.04 32.96 32.58 30.91 30.82 31.71 31.93 30.33 30.40 26.74 23.66 25.07 24.40 27.05 31.71 34.89 36.02 34.99 35.23 35.60 35.47 35.56 35.10 34.49 34.22
34.03 33.12 31.47 30.51 31.67 31.89 29.66 28.19 29.05 30.19 31.31 32.78 31.36 33.05 33.20 34.36 34.10 34.87 33.93 33.27 32.52 27.85 27.19 21.48 23.88 24.17 26.01 27.59 33.38 35.70 34.91 35.74 35.16 34.72 34.77 34.76 34.36 34.41
31.03 29.87 29.82 28.75 31.83 32.03 28.14 25.99 25.37 25.64 29.93 32.20 33.30 33.96 34.30 33.85 34.10 34.35 32.12 29.68 28.09 25.95 26.22 23.84 24.28 23.56 25.02 24.90 27.28 33.12 34.43 33.76 34.66 34.84 34.45 34.70 34.45 34.41
26.29 27.99 29.46 29.18 30.23 30.20 26.42 25.22 23.99 25.31 26.05 26.69 27.55 28.80 30.61 30.59 32.38 33.98 33.98 30.02 28.69 23.77 25.64 23.46 23.52 22.60 19.26 23.48 25.23 25.42 24.94 29.83 32.43 33.01 34.09 34.45 34.45 30.78
24.66 24.36 24.43 27.70 27.90 28.52 29.27 26.72 26.64 28.48 28.63 28.39 28.64 29.69 29.90 30.30 31.08 32.63 33.17 31.70 29.38 26.38 26.37 23.99 22.49 22.22 21.48 21.70 23.43 25.73 24.37 24.53 24.92 26.74 30.57 32.63 33.93 33.90
23.89 23.71 24.15 26.65 27.70 28.40 28.28 29.39 29.70 27.93 28.09 27.58 27.62 27.83 27.99 28.52 29.19 31.53 33.08 32.09 32.51 30.71 29.03 27.36 21.60 23.01 21.75 20.25 20.09 23.55 22.07 23.10 22.63 23.82 25.30 30.54 33.11 33.58
23.91 24.13 25.27 26.08 26.80 26.50 26.90 26.66 25.15 24.18 23.20 23.60 23.51 26.10 29.55 30.68 31.01 31.77 33.19 31.10 30.47 30.05 29.95 28.46 25.15 25.66 24.19 23.37 20.04 21.37 20.01 23.23 23.54 21.88 25.21 26.41 27.89 27.23
23.10 22.43 22.23 24.11 23.89 23.06 22.58 23.06 22.84 21.83 21.60 21.48 23.11 23.79 26.96 29.96 29.92 31.47 31.52 30.11 29.01 27.82 28.88 28.40 27.69 27.34 24.01 23.85 23.16 22.17 21.80 19.97 22.56 22.34 26.83 24.95 24.46 25.84
19.88 19.84 20.92 21.03 20.59 20.21 20.02 20.17 19.97 20.01 19.32 20.02 20.03 22.26 23.78 30.51 30.22 31.64 31.23 29.66 27.22 25.14 24.06 25.89 27.67 27.63 26.17 25.63 21.96 23.12 23.43 22.78 22.48 23.06 27.00 22.93 24.58 24.69
19.36 15.69 11.52 10.19 13.96 17.21 16.93 16.61 17.25 17.42 18.37 18.57 18.60 20.63 21.52 27.53 30.43 30.70 30.31 28.61 26.85 24.84 24.44 24.88 25.32 24.52 24.36 25.84 28.69 24.29 22.39 20.85 23.16 26.97 24.42 20.89 24.41 26.17
17.31 14.85 8.97 7.01 8.39 16.24 16.03 15.41 14.43 15.99 17.83 16.28 16.48 18.56 21.01 20.24 28.83 29.50 29.20 28.22 26.39 25.82 23.19 24.46 25.39 23.48 18.80 17.71 23.17 30.63 23.54 21.77 20.37 20.19 22.66 25.98 20.70 24.81
18.19 13.98 9.65 7.72 10.25 13.39 14.14 13.85 14.09 14.23 14.69 14.20 14.12 16.01 18.70 18.78 17.47 27.64 28.18 26.77 23.82 24.21 25.63 26.32 25.12 24.27 20.57 18.70 17.26 18.70 29.11 20.94 19.53 17.17 20.21 22.69 23.62 27.55
15.42 14.30 8.25 10.16 11.00 12.38 6.37 6.98 7.18 11.55 11.68 11.71 12.23 13.55 15.67 15.89 15.74 17.51 25.78 24.09 23.24 26.52 25.19 24.74 25.94 25.12 25.30 22.11 14.40 13.71 17.69 28.00 26.62 21.88 21.21 17.76 19.68 23.10
9.69 11.79 11.48 12.14 9.27 8.59 2.79 3.37 8.81 8.30 10.67 10.08 11.07 11.82 13.26 14.56 14.19 14.53 17.17 25.54 25.57 25.73 26.03 26.36 25.62 25.06 23.86 22.39 18.46 10.43 17.63 20.22 27.00 30.29 29.18 27.40 20.69 17.14
3.87 6.65 6.96 3.30 4.54 5.35 10.83 9.89 6.74 5.92 9.14 8.75 10.80 10.23 11.11 11.85 13.59 14.30 14.51 15.80 25.74 26.05 25.90 24.65 24.68 25.04 24.10 23.87 21.22 19.41 18.49 16.68 21.35 20.93 19.42 27.49 29.63 28.89

GFSNE_sfc_wetblb_072.txt.gz
Wetbulb
45.99 45.09 44.72 44.15 44.26 44.33 43.82 42.67 39.63 35.22 34.45 34.55 35.85 39.68 37.32 36.85 38.53 38.57 40.05 43.75 43.05 42.26 42.57 43.39 43.78 42.83 42.48 42.10 41.70 41.05 40.41 39.50 39.13 39.00 38.93 39.43 39.93 40.54
45.07 44.15 43.40 43.64 43.62 43.38 42.49 41.92 41.05 38.91 35.46 34.58 35.05 35.73 36.70 38.16 38.09 38.65 38.29 41.79 42.86 41.53 41.27 41.84 42.36 42.76 42.85 42.27 41.55 40.73 40.00 39.20 38.77 38.42 38.23 38.49 38.91 39.51
43.42 43.17 42.63 43.17 42.17 41.30 42.02 41.81 39.95 37.20 34.47 35.60 34.25 35.05 33.50 34.43 36.18 36.45 37.27 36.01 37.48 41.89 41.11 40.96 40.61 40.84 41.36 41.65 41.46 40.84 39.63 38.81 38.49 38.24 38.26 38.29 38.68 38.65
42.45 42.66 42.46 42.59 40.95 41.09 40.73 39.45 37.00 36.90 34.47 34.89 33.15 32.77 33.20 34.90 34.43 34.06 36.62 37.49 36.03 38.98 40.98 41.12 40.45 40.20 40.35 40.48 40.16 40.12 39.50 38.91 38.02 37.62 37.97 37.75 38.08 38.29
42.75 41.64 41.58 41.97 41.28 40.98 39.46 39.27 40.46 40.34 38.26 35.46 35.99 33.45 33.05 33.26 33.04 33.53 34.21 35.13 36.85 39.49 39.38 39.71 40.32 40.58 40.11 40.09 39.53 39.44 39.10 38.51 37.93 37.82 37.99 37.33 37.08 37.34
42.58 42.64 43.02 43.01 41.54 40.62 40.22 39.28 37.79 34.33 34.21 33.61 34.71 33.98 31.45 33.59 34.65 34.02 32.89 31.67 33.61 35.41 37.89 37.46 38.35 39.59 40.18 39.72 39.35 39.19 39.08 38.80 38.37 37.82 37.26 36.96 36.66 36.74
43.20 43.29 42.67 42.06 41.48 39.93 39.09 34.45 33.62 33.99 32.89 30.94 31.72 32.85 31.04 27.89 27.99 31.09 29.48 30.30 29.10 30.73 31.63 33.05 34.46 33.12 31.51 37.84 36.85 39.00 38.62 38.11 37.93 37.25 36.61 36.39 36.41 36.63
39.85 39.26 37.53 35.85 35.14 34.87 34.34 34.05 32.54 29.04 27.12 26.98 27.49 28.59 29.82 31.24 30.02 31.64 29.78 31.24 29.88 30.98 31.81 32.72 31.40 29.66 30.01 28.89 32.88 34.99 35.66 36.65 36.62 36.26 35.90 35.64 35.52 35.28
33.84 32.48 33.35 32.75 32.14 30.61 30.68 30.19 30.00 31.24 29.73 28.00 26.72 26.95 28.21 29.62 31.31 31.92 31.94 31.60 31.54 32.05 30.78 28.32 29.05 29.13 28.40 30.27 34.40 35.40 35.98 36.34 36.14 36.09 35.66 35.32 34.78 34.94
30.07 29.41 27.90 27.39 29.93 28.91 27.36 25.47 25.30 25.56 25.79 26.55 25.24 26.65 28.02 29.52 30.07 30.80 29.86 30.19 32.26 34.26 31.76 29.56 26.17 26.86 26.32 26.58 32.67 34.51 36.00 35.09 35.08 35.21 35.11 34.80 34.54 34.61
28.22 27.93 27.41 26.67 29.35 29.81 26.28 24.65 24.48 25.78 29.73 31.09 31.47 31.79 31.98 32.09 31.85 29.12 26.69 25.65 24.88 29.23 27.96 30.16 27.34 26.48 24.72 24.94 26.22 32.81 34.90 33.75 33.18 33.51 34.14 34.90 34.61 34.44
25.52 25.99 27.69 26.58 27.62 27.91 25.39 24.88 24.41 25.34 26.82 28.23 28.72 29.47 30.47 30.18 31.00 29.39 28.86 26.98 26.52 26.15 27.81 28.03 26.44 24.54 19.97 22.86 24.27 24.95 24.54 29.25 31.27 31.62 32.18 32.16 32.94 29.85
24.03 23.53 23.75 26.04 27.12 28.34 28.53 25.86 25.64 25.67 25.42 25.09 25.60 25.56 26.17 27.54 28.77 29.42 30.51 29.10 28.10 28.77 30.12 29.56 26.29 24.40 20.99 21.20 22.68 24.49 24.26 24.00 23.99 25.73 29.65 30.88 31.61 31.85
23.19 23.31 23.19 26.13 27.21 27.48 25.63 26.11 25.51 24.91 22.25 21.31 21.67 22.87 22.98 23.53 24.86 28.92 30.95 30.28 31.23 30.57 32.32 30.77 26.78 25.42 22.15 20.51 20.41 22.65 22.18 22.24 21.55 23.00 23.43 27.63 31.53 32.46
24.25 24.03 24.81 25.47 25.91 25.36 24.49 24.07 22.70 21.03 19.39 18.46 18.81 19.53 20.63 22.47 24.71 27.09 30.53 31.43 31.99 32.46 33.31 31.09 28.43 25.19 24.13 22.01 19.81 20.67 20.19 24.01 22.58 20.99 21.99 23.12 26.35 27.31
23.12 23.15 22.30 23.55 22.88 22.18 21.97 22.07 21.03 19.60 18.37 18.06 17.65 18.61 20.26 21.03 22.09 25.83 29.58 30.11 29.75 29.20 30.64 30.75 29.04 26.54 23.17 23.73 24.11 21.98 22.82 20.27 21.92 22.62 23.55 26.61 26.64 24.35
21.79 20.80 21.24 19.75 18.60 19.04 19.37 18.71 18.47 17.89 16.47 16.62 16.06 15.35 16.85 18.59 20.15 21.82 22.47 29.87 28.54 26.09 26.64 27.98 27.77 27.22 26.68 26.16 21.17 23.19 23.70 22.40 20.30 21.72 24.46 23.74 24.41 24.98
21.41 18.35 14.62 11.41 13.96 16.49 15.53 15.32 15.78 15.00 15.28 15.49 14.34 14.11 14.39 15.53 17.91 18.85 21.09 29.50 26.81 27.09 26.04 26.62 26.74 26.52 26.38 25.04 27.66 24.05 20.89 19.35 21.17 23.80 25.05 20.67 22.26 25.11
17.06 15.19 9.73 7.94 10.75 15.47 14.65 14.04 12.51 13.42 14.52 13.14 12.63 11.74 12.78 13.98 15.60 15.99 17.27 26.03 26.96 25.68 24.83 26.03 27.14 24.83 21.09 14.35 24.79 29.91 22.90 21.17 21.35 19.83 21.35 20.07 18.58 22.61
18.23 15.49 12.90 12.58 13.23 13.56 13.20 12.18 11.73 10.30 8.97 10.03 10.97 9.49 10.87 11.29 12.65 14.15 15.37 14.83 23.19 26.66 25.16 26.51 26.45 25.74 22.68 17.44 18.09 19.57 29.60 23.07 21.87 16.56 17.72 21.00 23.05 26.79
15.23 14.32 13.26 13.18 12.02 11.51 5.01 3.17 0.21 0.75 3.14 4.57 5.06 6.81 8.19 9.18 9.79 12.82 13.66 13.65 14.47 24.64 24.84 25.15 25.94 27.19 25.77 22.10 15.40 14.63 17.15 26.70 25.01 20.30 19.94 16.40 17.98 20.28
12.74 13.07 12.87 11.54 4.96 6.17 0.53 -1.61 2.81 1.28 3.49 5.16 3.31 6.20 2.84 6.72 7.89 10.80 11.63 11.19 12.21 14.95 24.41 24.04 27.33 26.27 22.69 22.36 18.96 12.46 16.70 18.43 24.96 29.59 27.83 25.66 18.57 14.61
8.71 10.82 7.19 2.27 2.42 1.39 6.42 0.15 2.52 -2.02 3.45 7.47 7.16 7.06 3.99 4.91 7.88 10.92 10.67 11.07 12.41 14.83 19.02 25.49 26.08 24.13 23.47 23.85 21.17 18.90 17.60 15.42 19.68 20.21 18.81 27.26 29.36 29.01

GFSNE_sfc_wetblb_075.txt.gz
Wetbulb
48.05 48.39 47.94 46.18 45.70 45.46 44.79 43.61 41.92 38.00 36.61 38.98 37.71 37.33 37.64 37.35 38.07 37.81 38.50 42.35 44.43 44.28 44.15 45.02 46.09 46.19 46.03 45.20 44.61 43.65 43.36 43.10 42.41 41.17 40.57 40.40 40.24 40.59
47.45 46.69 45.33 44.77 44.56 44.30 43.77 43.01 41.75 40.00 36.52 38.61 37.85 37.09 36.46 37.77 37.91 37.98 36.80 42.65 43.15 43.46 42.87 42.91 43.62 44.45 44.91 44.91 44.37 43.22 42.92 42.60 41.98 41.09 40.33 40.08 40.00 40.11
45.52 45.26 44.11 43.84 43.05 42.53 42.05 41.64 40.86 40.20 37.50 38.12 35.85 34.86 33.74 34.15 35.93 35.74 37.06 36.33 37.96 42.43 42.66 42.16 41.80 41.97 42.52 42.77 42.84 43.08 43.09 42.52 41.55 40.36 39.92 39.92 39.75 39.92
44.21 43.53 43.08 43.22 42.02 41.59 41.42 40.67 39.96 38.87 35.94 31.98 33.84 33.51 32.59 34.27 34.05 33.69 36.71 37.31 35.28 38.98 41.21 42.18 41.88 41.27 41.03 40.96 41.00 41.34 41.46 41.46 40.91 40.05 39.33 39.04 38.81 39.02
43.96 43.34 42.39 42.04 40.91 41.24 41.11 40.41 39.57 40.60 38.53 36.04 36.31 35.05 32.51 32.58 32.66 32.95 33.40 33.90 35.84 39.66 39.64 39.68 40.61 41.26 41.25 40.53 40.48 40.50 40.51 40.33 39.66 39.12 38.75 38.52 37.85 37.82
43.12 42.68 42.38 42.27 41.66 41.24 40.75 39.99 38.97 36.75 34.66 30.82 30.31 30.76 30.66 31.93 31.06 30.87 32.33 31.84 32.16 36.15 37.85 38.11 38.81 39.93 40.98 40.86 40.23 39.96 39.59 40.00 39.24 38.41 37.76 37.21 37.11 37.57
42.53 43.18 43.20 41.93 39.08 38.45 39.22 33.14 30.91 28.58 27.70 26.90 26.45 26.99 26.97 27.42 27.67 28.96 29.70 30.99 31.83 30.12 31.66 32.32 33.94 33.58 34.63 38.92 39.13 39.51 39.50 39.21 38.75 38.53 37.91 37.21 36.56 36.42
41.05 39.11 36.16 35.72 34.90 34.19 33.71 33.22 31.05 26.83 24.59 24.39 24.36 23.89 23.67 25.13 26.70 26.64 27.82 27.87 25.86 30.62 30.18 30.57 31.95 32.19 31.92 33.62 35.04 36.40 37.02 38.47 37.95 37.46 37.31 36.11 35.63 35.61
35.79 34.70 32.88 32.04 30.88 28.83 29.78 29.02 28.18 28.83 27.17 24.92 22.62 22.70 23.21 24.21 25.25 25.98 26.01 26.14 25.54 28.40 30.12 28.93 28.44 29.96 31.69 33.71 35.94 35.96 35.86 36.00 36.33 36.56 36.26 35.58 35.62 35.11
31.05 29.85 28.98 27.36 28.68 27.73 26.30 24.56 25.00 25.58 26.00 26.28 23.75 23.70 24.31 25.64 26.46 27.50 27.25 27.15 27.54 27.72 28.18 24.47 28.64 29.23 31.73 28.86 33.85 34.88 35.84 36.00 36.04 36.20 35.77 35.59 34.77 34.30
27.73 27.18 26.48 25.73 28.33 28.67 25.91 24.77 24.78 25.93 29.05 30.10 29.92 30.48 30.90 31.43 30.66 29.11 26.83 25.84 24.70 25.09 26.38 26.66 28.58 27.72 25.11 27.67 30.38 33.24 35.11 35.20 35.67 34.60 34.25 34.12 34.67 34.55
25.64 25.80 27.22 26.04 27.01 27.78 26.32 24.96 23.67 23.86 23.99 24.76 24.97 25.58 27.30 27.86 28.99 28.26 27.67 25.39 25.50 24.41 26.72 24.94 27.11 27.40 26.60 25.16 27.90 26.47 28.82 33.98 32.64 31.79 31.79 32.35 32.22 28.78
23.98 23.20 23.43 25.68 27.05 27.99 27.22 25.24 23.95 23.36 23.43 21.85 21.96 22.22 23.60 24.75 25.49 26.00 25.47 25.88 26.40 25.93 29.02 27.07 27.80 26.73 26.70 24.85 25.36 25.82 24.92 24.59 24.62 25.72 29.86 30.91 30.93 30.30
23.72 23.68 24.11 25.83 26.83 26.28 24.50 24.42 23.94 22.80 20.76 19.39 18.61 19.32 19.14 19.80 21.22 21.99 24.07 25.26 25.98 27.62 30.28 30.95 28.65 26.37 25.90 23.32 23.07 24.66 22.66 21.64 21.46 22.32 23.12 26.66 29.44 31.03
24.55 24.32 24.72 25.10 25.53 24.50 23.39 22.92 21.95 20.17 17.81 15.86 16.42 16.74 17.81 18.78 20.37 21.57 23.52 24.30 26.05 30.75 31.75 31.97 30.55 29.30 27.90 24.65 22.85 21.37 21.78 22.53 22.18 21.31 21.04 23.19 22.79 26.18
23.66 24.06 23.12 24.17 22.88 22.15 21.66 20.96 19.91 18.96 17.09 16.23 15.33 16.46 17.02 17.08 16.85 18.91 19.20 19.44 19.39 23.95 31.29 31.10 31.02 29.13 26.39 26.24 24.57 23.26 22.65 18.56 20.42 21.08 22.66 21.99 23.65 25.80
22.37 22.00 20.57 19.32 18.40 18.69 18.62 18.09 17.68 16.96 15.51 15.23 14.70 14.03 13.98 13.98 14.07 16.55 16.92 17.80 17.04 22.71 27.42 29.35 30.45 29.98 29.10 27.38 23.68 22.95 21.98 21.04 19.77 21.10 23.15 23.64 23.91 25.32
21.08 17.92 14.78 13.92 15.09 16.05 15.37 14.98 15.07 14.44 14.20 13.83 12.59 12.78 11.64 10.78 11.55 12.98 15.05 15.34 15.73 18.56 26.92 27.41 26.99 25.93 26.28 26.70 28.30 23.16 20.27 18.56 21.36 23.67 24.57 24.52 22.35 22.92
17.11 15.57 10.08 9.39 12.38 14.98 14.23 13.70 12.59 13.42 13.59 11.73 9.81 10.11 9.51 9.70 9.64 10.15 11.65 13.79 14.40 16.75 18.87 27.19 26.83 25.99 21.89 18.67 21.45 29.44 19.20 20.02 19.67 21.41 22.41 20.80 18.08 21.68
18.38 15.28 13.68 13.91 13.68 12.86 12.35 11.51 11.03 10.52 9.03 8.35 7.12 6.69 2.96 8.16 6.95 7.13 9.09 10.20 12.16 13.89 15.62 25.62 26.60 25.62 22.11 17.94 15.47 20.16 29.33 22.40 20.97 18.56 16.59 19.77 22.98 26.42
15.51 14.61 14.38 13.68 12.38 11.42 10.00 7.07 2.63 3.34 1.83 -4.38 -0.83 1.87 -0.08 5.94 4.63 5.72 7.14 9.33 10.30 12.98 13.63 15.69 25.43 27.22 26.11 24.23 15.11 16.87 17.34 27.91 25.89 20.86 19.91 17.24 17.96 18.49
13.66 13.36 13.27 12.42 10.20 9.33 4.92 1.99 0.69 -4.35 -2.91 -1.98 -1.82 -4.34 -2.19 -0.74 3.67 4.12 5.57 7.19 8.62 11.07 13.12 16.45 19.06 27.65 23.77 22.84 18.91 14.10 16.32 17.74 24.19 28.55 26.76 25.36 18.81 13.40
10.79 11.11 10.07 7.49 7.07 5.99 7.63 3.42 -0.36 -5.79 -0.32 0.54 4.45 4.22 0.84 1.01 4.06 5.60 6.26 4.99 7.72 9.86 12.39 13.83 16.11 25.84 23.63 23.59 21.18 19.59 17.73 15.40 19.50 20.30 20.27 27.51 28.85 28.56

GFSNE_sfc_wetblb_078.txt.gz
Wetbulb
52.35 51.38 49.17 48.89 48.37 47.47 46.47 45.61 44.69 39.38 38.67 40.61 39.99 40.18 39.70 39.97 40.38 40.37 40.25 41.68 43.65 44.34 45.08 45.82 47.02 47.85 48.10 48.35 48.35 47.99 47.18 46.67 45.81 44.87 44.27 43.44 42.42 42.21
51.45 50.36 49.59 47.82 47.28 45.82 45.39 44.25 43.43 42.03 38.86 40.55 38.87 39.22 40.63 39.93 40.01 40.22 38.65 41.38 42.39 42.77 43.09 43.94 44.76 45.73 46.32 46.60 46.64 46.85 46.69 46.19 45.25 44.28 43.75 43.47 42.52 42.08
49.19 49.12 48.61 47.17 44.76 43.96 43.54 42.79 41.96 40.90 38.32 39.87 39.02 38.61 37.55 37.71 38.12 38.02 38.18 37.84 38.52 40.86 41.88 42.42 42.88 43.27 43.71 44.08 44.43 44.87 45.28 44.96 44.55 42.95 42.56 43.29 42.68 41.90
47.67 47.37 45.98 45.08 43.17 43.02 42.20 41.07 40.81 40.32 38.91 36.78 36.59 36.82 35.33 36.64 36.26 35.46 37.15 37.99 37.24 38.70 40.40 40.80 41.59 42.17 42.07 42.01 42.18 42.38 42.85 43.16 42.79 41.97 41.40 41.36 42.03 41.01
46.99 46.46 45.78 43.97 42.34 41.70 41.31 40.70 40.52 40.97 38.62 36.88 37.04 36.97 36.29 34.59 34.50 34.90 35.10 36.16 36.69 39.44 39.64 39.66 39.96 40.49 41.16 41.66 41.85 41.72 41.83 41.65 40.53 40.04 40.19 40.13 40.58 39.36
46.97 46.30 44.27 43.08 41.76 41.43 41.14 40.08 40.02 38.08 35.94 34.65 33.61 32.96 32.16 33.22 32.19 31.25 30.46 32.30 32.41 35.28 36.63 36.66 37.65 38.70 39.70 40.07 40.57 41.18 41.22 40.92 40.18 39.38 38.29 38.36 37.90 38.30
44.59 44.14 43.11 41.71 39.55 39.48 40.64 34.56 33.51 32.17 30.81 29.24 27.77 28.16 27.34 27.67 26.89 28.70 27.69 28.73 30.25 31.64 31.68 33.17 33.81 34.60 35.32 36.61 38.70 40.70 40.71 40.28 39.68 39.09 39.17 38.31 37.17 37.38
39.74 36.76 35.84 35.04 34.13 33.95 33.53 32.73 31.55 28.80 27.05 25.58 25.31 24.00 23.37 24.67 26.45 26.21 26.04 25.66 24.18 30.62 29.30 28.76 31.33 31.26 33.38 35.18 36.11 38.00 39.11 38.99 38.69 39.01 38.90 37.92 37.41 36.77
35.44 33.34 32.43 32.19 31.60 30.46 29.73 29.22 28.69 28.94 26.95 25.98 23.72 24.13 24.21 25.65 25.45 25.00 25.37 25.14 24.77 28.15 28.50 26.21 29.55 28.15 30.59 31.80 34.94 36.42 36.99 37.42 37.69 37.70 37.44 36.23 36.10 35.13
32.21 31.18 30.42 29.40 29.34 28.84 26.65 26.34 26.24 27.01 27.45 27.70 26.03 26.11 26.46 27.00 27.28 28.22 27.60 27.62 28.02 28.94 29.76 24.82 28.78 27.50 30.11 31.91 33.95 35.23 36.51 36.53 35.85 36.23 36.00 36.20 35.31 34.80
28.83 28.97 28.25 27.87 28.58 28.73 26.50 26.20 25.89 26.53 28.34 28.36 28.16 28.21 28.34 28.80 29.39 28.38 25.44 24.79 23.64 25.56 29.14 27.07 27.54 27.43 29.63 30.32 31.51 33.59 35.28 35.86 35.76 35.99 36.08 35.93 35.36 34.69
26.49 27.07 27.48 26.91 27.57 28.62 27.02 25.49 23.84 23.71 23.93 23.78 23.52 24.23 25.22 26.25 27.10 27.10 26.19 23.42 22.82 22.29 27.99 26.09 27.07 27.56 26.31 28.98 28.26 30.21 32.04 34.44 34.91 35.65 34.66 33.11 33.14 32.91
24.62 23.53 24.02 26.73 27.78 28.15 26.31 24.98 23.53 23.13 22.11 21.47 21.44 21.74 22.71 22.81 22.82 23.38 23.44 22.53 21.47 21.34 25.35 26.05 27.01 28.03 27.86 26.68 27.33 28.59 29.96 30.19 31.06 31.66 31.59 31.64 31.79 31.70
24.07 23.75 24.75 26.59 27.54 26.16 24.66 24.31 23.25 21.70 20.84 19.39 18.62 18.76 18.87 19.08 19.98 20.69 21.55 23.03 24.44 24.17 25.65 26.27 25.56 27.63 27.19 25.67 24.58 26.67 27.22 27.82 27.91 27.96 28.18 28.34 29.37 30.38
24.81 24.66 25.24 25.83 25.82 24.14 23.50 22.82 21.55 19.85 18.34 16.60 16.24 16.64 17.37 18.49 19.02 19.59 20.37 21.49 22.55 22.90 24.41 24.58 25.76 28.81 29.35 27.30 26.38 25.98 26.58 27.17 26.60 27.71 27.13 27.41 28.03 28.93
23.87 24.14 23.53 24.15 22.79 22.11 21.88 20.97 19.97 18.96 17.10 16.26 15.41 16.02 17.19 16.53 15.58 16.74 15.95 17.24 17.28 18.93 23.18 25.11 27.47 30.27 29.24 28.89 27.57 26.06 26.69 25.73 26.30 26.36 26.66 27.23 27.71 28.22
22.92 22.44 20.57 19.78 18.97 19.12 18.99 18.24 18.04 17.19 15.55 15.50 14.38 13.63 13.52 13.84 12.60 14.47 13.81 14.37 13.87 15.26 16.97 20.91 26.12 31.80 31.25 28.89 26.43 27.28 26.55 25.56 25.87 26.00 25.76 25.85 27.60 28.25
21.25 18.80 15.94 15.23 15.70 16.60 16.18 15.57 16.00 15.14 14.62 14.11 13.25 11.77 10.94 11.08 10.41 11.74 12.00 11.14 11.27 13.30 15.01 17.88 18.92 27.18 27.27 28.37 30.42 26.98 25.91 25.88 26.25 26.12 26.13 25.30 25.78 28.33
18.34 17.06 14.03 13.42 13.62 15.60 15.24 14.34 13.23 13.60 13.82 12.68 11.05 9.90 9.50 9.72 8.69 8.87 8.28 8.70 8.95 11.73 13.25 16.13 18.75 22.83 22.81 21.35 26.00 30.58 26.29 24.28 24.94 24.86 25.98 25.59 25.42 27.21
19.36 16.38 14.70 14.61 14.60 14.16 13.63 12.37 11.65 10.98 10.05 9.87 8.21 7.45 6.27 6.70 6.58 6.44 6.60 5.83 6.99 9.64 11.06 14.79 17.44 19.68 22.38 23.23 23.47 24.76 29.93 26.01 24.74 24.64 23.94 24.99 26.24 26.31
16.78 16.02 15.49 14.78 13.93 12.71 11.67 10.00 7.83 6.68 6.93 4.78 2.84 2.72 1.67 3.96 4.62 5.28 5.10 4.59 5.42 8.02 7.73 10.52 14.70 19.18 20.59 24.75 23.48 21.94 24.09 27.96 27.38 26.11 23.48 23.02 23.55 24.05
13.89 13.70 13.70 12.87 10.81 9.89 7.92 5.12 4.76 5.49 5.01 3.81 2.73 -0.36 0.75 1.61 2.92 3.14 3.45 3.80 5.55 5.89 7.24 11.85 14.98 17.68 17.33 23.62 22.18 19.86 22.23 22.52 26.16 28.68 26.94 26.98 24.97 21.43
9.51 9.50 9.42 8.65 7.86 7.43 7.39 6.36 3.26 0.44 1.88 2.04 1.85 3.49 -0.64 0.22 3.35 4.19 4.79 5.15 5.09 5.06 6.41 9.23 12.94 15.34 15.93 24.30 23.55 22.06 19.97 20.48 22.77 23.71 24.66 27.15 28.16 28.04

GFSNE_sfc_wetblb_081.txt.gz
Wetbulb
58.26 57.42 54.25 54.99 53.72 51.73 51.62 50.20 48.69 42.91 44.74 45.07 45.11 46.18 46.99 45.44 46.02 47.37 46.95 44.36 42.90 43.52 44.41 45.71 47.43 48.50 48.80 49.35 49.53 49.67 49.81 49.82 49.45 49.04 48.11 47.59 46.83 46.34
56.66 55.76 54.90 53.20 51.79 50.26 49.27 48.45 50.06 48.66 44.28 47.27 46.94 45.42 43.84 44.21 46.82 46.73 45.81 42.03 42.63 42.01 42.34 43.07 44.06 45.43 46.49 47.03 47.35 47.88 48.57 49.04 48.75 48.47 47.80 46.85 46.78 45.99
53.33 51.72 51.82 52.68 49.71 48.09 48.43 46.34 47.30 45.88 45.16 44.22 46.23 42.68 42.61 44.85 45.95 46.06 45.26 45.59 45.62 41.43 40.70 41.34 41.83 42.48 43.11 43.47 43.95 44.89 45.63 46.56 47.17 47.24 47.21 46.60 46.27 45.81
51.70 51.05 51.31 48.17 46.10 45.32 45.47 44.06 44.49 45.23 42.25 41.47 40.63 39.38 40.19 42.80 43.13 43.30 43.28 43.19 44.09 42.05 40.34 40.53 40.91 40.86 41.03 41.28 41.65 42.30 42.69 43.15 43.53 44.53 45.28 45.44 45.00 44.47
52.13 50.59 49.16 46.18 44.44 44.19 43.68 44.40 42.16 41.82 41.08 39.58 39.08 40.38 39.90 41.86 41.82 40.94 40.90 41.38 40.11 39.20 38.32 38.76 39.27 39.89 39.53 39.36 39.92 40.45 41.05 41.48 41.54 41.61 41.88 42.71 42.40 42.29
49.58 48.71 47.49 46.13 43.99 43.47 42.50 42.21 43.01 41.31 39.97 39.55 38.29 37.21 37.66 40.31 38.74 36.86 35.36 35.85 34.47 35.82 36.30 35.76 36.37 36.72 37.32 37.94 38.04 38.12 38.39 39.44 40.23 40.62 40.27 39.38 39.01 39.98
45.52 44.96 44.65 44.30 42.46 42.10 43.06 40.58 40.29 36.18 34.94 34.04 32.69 35.36 35.37 36.56 34.55 34.42 31.49 32.88 33.83 34.84 34.75 35.48 35.83 35.44 35.52 36.07 36.35 36.86 36.98 37.24 38.52 40.31 40.21 39.12 37.97 38.30
39.56 39.01 37.44 36.67 35.64 35.32 34.65 34.21 35.08 33.33 32.43 31.72 33.67 31.99 32.21 32.08 32.46 31.74 31.08 29.71 28.72 35.44 32.75 31.91 33.97 33.19 35.23 36.24 35.25 34.79 34.56 35.76 36.99 38.65 39.68 38.82 38.27 37.81
36.32 34.92 33.81 33.14 33.77 31.28 30.48 30.11 29.99 29.48 29.09 30.43 29.76 30.49 30.59 31.95 31.35 30.03 29.89 29.58 29.69 32.85 32.04 29.93 33.88 32.87 35.43 35.43 35.10 34.79 34.91 35.22 35.92 36.71 37.58 37.62 37.75 37.36
34.00 33.04 31.64 30.93 30.55 29.39 28.17 27.43 28.26 28.91 29.64 29.52 31.22 32.28 31.84 31.99 31.64 31.43 31.27 31.05 31.61 32.59 33.37 28.22 33.09 32.27 35.17 35.97 35.14 35.48 35.20 35.32 36.23 36.77 36.87 36.99 36.89 35.84
30.06 30.54 29.87 29.16 29.60 29.72 28.13 27.57 27.58 27.92 28.88 28.02 27.69 27.32 27.11 27.45 28.47 30.28 28.89 27.72 27.17 28.70 31.27 29.55 31.41 31.33 32.96 33.76 35.92 35.39 34.52 34.23 34.87 36.34 36.53 35.79 35.87 35.63
27.41 27.63 28.40 28.32 28.88 28.69 28.49 27.77 26.65 27.40 27.40 27.04 27.23 26.77 26.65 27.45 25.84 27.98 27.10 24.98 25.19 25.39 32.19 28.50 29.28 29.05 27.53 33.47 35.06 36.10 36.06 34.21 33.40 34.31 35.84 35.55 36.18 36.37
25.42 25.03 26.93 28.30 29.24 28.00 27.63 28.14 26.12 26.53 24.11 24.48 24.38 25.06 25.39 25.07 24.97 25.34 25.41 24.69 23.97 24.64 28.71 27.98 26.94 27.15 26.62 27.47 31.74 34.03 34.91 35.00 34.01 36.06 34.79 35.39 33.54 33.88
24.86 25.35 27.21 28.33 28.10 26.27 26.36 24.86 22.96 23.59 24.83 23.69 22.26 21.94 21.95 22.12 23.14 23.39 23.65 23.91 25.45 24.49 26.29 26.45 24.67 24.78 24.42 24.44 26.86 32.30 33.94 34.78 34.95 34.53 34.75 32.80 31.66 31.71
27.45 26.82 26.84 27.54 25.90 25.04 24.06 22.76 22.26 24.11 22.52 21.02 20.27 20.69 21.43 22.22 22.18 22.16 22.24 22.86 23.15 23.83 24.11 24.72 24.81 25.42 25.25 23.81 26.32 30.18 29.89 32.14 33.62 33.41 33.54 33.16 32.81 33.47
25.89 25.92 25.89 25.38 24.64 24.04 24.28 23.58 23.73 23.00 20.77 20.08 20.08 20.49 20.88 20.17 19.76 20.50 18.70 19.65 18.61 20.25 23.62 24.81 25.29 25.74 24.58 27.63 28.52 30.43 30.85 29.21 33.23 32.60 32.97 33.22 33.29 33.39
25.92 25.76 24.91 24.15 23.33 23.14 22.80 21.71 22.15 21.29 19.88 19.77 19.06 18.89 18.37 17.91 17.55 18.38 17.29 17.50 15.89 16.43 18.48 21.97 24.46 25.26 26.13 27.08 29.75 30.55 29.96 30.51 32.53 32.06 30.88 30.26 31.85 33.00
24.68 23.63 22.39 21.64 20.73 20.33 20.46 20.22 20.19 18.74 18.97 18.07 17.69 17.16 15.73 14.94 15.02 15.96 15.98 15.58 14.37 15.49 16.39 19.40 20.71 21.54 25.02 29.25 32.85 30.71 30.10 30.53 31.39 31.43 31.09 29.21 29.54 32.75
22.86 22.27 21.25 20.52 19.53 19.32 18.99 18.40 17.48 17.62 16.52 15.71 15.18 14.90 13.85 13.66 12.88 13.66 14.13 14.21 13.85 14.63 16.03 17.96 18.43 18.73 18.50 19.57 29.65 32.16 30.95 30.82 30.79 30.53 30.89 30.43 29.56 31.21
21.13 20.09 19.08 18.81 18.50 17.63 17.22 16.53 15.78 15.49 14.72 13.95 13.63 13.09 12.00 11.88 11.59 11.90 12.56 11.84 12.37 13.02 13.26 16.59 17.51 18.37 16.66 15.90 17.90 26.40 31.63 30.84 30.47 29.91 29.91 31.39 31.57 27.07
18.32 18.09 18.19 17.62 16.91 16.12 15.67 14.75 13.87 13.12 12.10 11.52 11.46 10.71 10.75 10.57 10.37 10.87 11.07 9.26 9.16 11.16 11.97 13.35 16.43 16.87 18.15 19.61 19.70 22.87 30.37 31.04 32.00 31.00 30.35 29.06 27.85 28.08
15.39 15.01 14.88 14.54 13.91 13.45 13.16 12.77 12.16 11.66 10.82 10.50 10.17 10.17 10.46 10.31 9.30 9.17 9.53 9.44 9.99 11.07 11.84 14.18 16.15 17.70 17.90 16.02 17.68 24.26 27.61 29.87 29.83 28.61 29.35 29.31 28.25 24.49
12.10 11.97 11.76 11.48 11.33 11.00 10.54 9.92 9.02 8.71 8.46 8.11 8.32 8.66 8.59 8.19 8.86 9.30 10.06 10.11 10.04 10.13 10.39 11.16 13.91 16.17 16.05 15.82 17.16 20.52 27.98 27.13 29.03 28.68 29.88 26.97 27.75 28.05

GFSNE_sfc_wetblb_084.txt.gz
Wetbulb
62.59 62.16 60.84 61.06 60.86 59.70 57.52 55.00 49.86 44.82 46.95 48.54 49.41 51.00 51.15 51.28 50.81 50.98 51.91 46.48 44.28 43.71 43.93 45.00 45.89 46.83 48.02 49.04 49.69 49.83 49.35 49.07 48.96 49.67 50.45 50.18 49.50 49.49
62.49 61.13 59.88 60.14 59.15 57.71 54.83 53.47 51.82 50.38 48.03 51.51 49.13 50.33 52.44 51.77 48.52 50.36 50.38 46.15 43.42 42.45 42.21 42.75 43.48 44.30 45.20 45.80 46.20 46.55 46.49 46.83 47.45 47.96 48.53 49.13 48.41 48.23
60.91 58.58 58.97 58.13 53.58 52.68 53.71 51.26 50.50 50.88 48.75 48.57 49.82 48.77 49.53 50.03 48.69 46.18 48.96 49.06 49.64 42.83 41.65 41.41 41.47 41.86 42.65 43.20 43.46 43.64 43.73 44.01 44.56 45.33 45.97 46.99 47.75 48.03
56.88 56.37 54.79 53.82 52.82 51.87 51.14 49.15 48.20 49.86 47.49 44.70 43.68 43.09 44.54 45.41 45.23 46.09 46.17 48.21 48.26 44.64 41.66 40.65 40.42 40.47 40.51 40.62 40.71 41.16 41.40 41.63 41.75 42.08 42.69 43.33 44.39 45.64
57.83 54.89 53.90 51.76 50.81 50.77 50.00 48.58 47.45 46.40 43.83 42.24 40.13 42.34 42.16 42.54 42.36 44.93 44.56 47.33 46.30 43.20 39.20 38.35 38.50 39.11 39.48 39.77 38.97 39.21 39.46 39.80 39.32 38.82 39.77 40.88 42.27 42.90
56.09 54.98 53.16 50.11 49.40 47.60 45.71 46.60 44.16 42.82 41.41 41.03 40.20 39.17 39.12 41.38 41.35 40.93 42.65 44.68 42.37 40.76 39.10 37.02 37.01 37.48 37.65 37.95 38.13 38.60 38.22 38.11 37.93 37.81 37.49 36.95 38.85 40.77
51.94 50.16 48.11 47.37 44.74 44.61 45.33 43.98 42.56 39.64 39.41 36.74 34.37 34.48 35.55 36.30 37.60 41.80 39.66 39.33 39.25 39.79 38.97 39.34 39.25 38.96 38.57 38.18 37.85 37.58 37.62 36.13 35.85 35.80 36.14 36.97 37.85 39.69
41.93 40.51 38.94 39.07 37.38 36.06 35.67 35.30 37.90 37.10 34.07 33.90 34.32 33.25 35.48 37.18 38.51 37.94 36.66 35.08 33.59 39.89 37.35 36.42 37.53 36.21 37.50 38.70 37.44 35.93 35.72 35.88 35.83 35.88 36.01 36.21 36.90 38.83
37.16 36.47 34.75 33.87 33.25 31.80 31.64 31.19 30.86 30.61 30.78 33.93 33.88 34.61 34.53 36.90 36.97 35.41 35.04 34.68 33.78 36.58 36.17 33.78 37.30 36.25 38.54 38.31 36.82 36.43 36.15 36.01 36.08 35.99 35.97 36.14 36.49 36.41
35.01 34.06 32.70 31.78 31.67 31.01 29.72 29.19 29.21 29.62 29.66 29.50 31.75 33.06 34.82 35.82 35.33 34.69 34.39 34.23 34.50 35.03 35.90 31.89 36.07 35.11 37.32 38.46 37.07 36.84 36.24 36.16 35.99 35.84 35.98 36.07 36.51 36.78
31.54 31.79 31.88 31.44 31.08 31.42 29.42 28.49 28.08 28.63 29.21 28.54 27.96 27.17 27.09 27.35 28.32 30.79 29.74 30.35 30.09 31.61 35.26 32.23 32.72 33.76 35.41 35.06 36.53 36.41 36.33 35.65 35.29 35.19 34.41 35.83 36.62 36.25
29.45 29.31 29.99 29.70 28.76 29.97 29.92 29.61 29.09 31.15 31.04 31.21 31.25 29.18 27.95 30.12 26.98 28.52 30.24 27.53 27.49 27.63 34.12 30.41 30.97 30.61 29.14 34.93 35.72 35.69 36.72 35.74 35.30 34.60 34.50 34.48 35.34 36.78
26.96 26.82 28.30 29.57 29.26 29.02 29.76 30.75 29.54 30.62 26.27 28.49 29.11 30.07 29.88 30.12 30.10 30.14 29.48 27.79 25.96 26.47 31.26 29.57 28.56 28.50 28.29 28.55 31.74 33.62 34.63 36.31 36.48 36.48 35.81 35.25 34.97 34.87
26.15 27.71 28.51 29.26 27.84 27.15 28.18 25.09 23.90 25.44 29.25 28.17 27.55 27.28 27.18 26.79 27.66 28.11 28.21 27.84 28.15 26.71 28.52 27.63 25.13 26.01 25.96 25.49 25.79 30.67 32.75 36.82 36.70 34.82 36.24 35.65 33.89 34.08
29.11 28.54 28.62 28.08 26.41 26.10 24.77 23.32 23.58 28.14 26.90 25.60 25.39 25.09 25.71 26.18 26.20 25.79 27.00 27.11 26.55 26.78 25.94 25.84 24.64 24.91 25.49 24.82 25.50 27.26 29.35 31.99 35.81 34.72 35.06 35.19 34.05 33.89
27.65 28.82 28.53 28.11 26.36 26.79 26.04 25.99 28.19 26.72 24.20 23.70 24.13 25.10 25.84 25.01 24.56 25.38 23.78 23.74 22.60 23.03 25.58 25.66 25.22 25.30 24.30 25.76 26.55 26.81 28.92 30.28 34.68 34.54 34.80 34.43 34.47 34.63
29.31 29.25 29.39 29.16 28.30 27.81 27.09 25.93 25.99 25.35 23.90 23.93 22.73 21.86 21.79 22.24 21.96 23.11 22.17 22.06 20.17 20.94 22.01 24.38 26.12 26.42 26.16 25.47 24.54 26.36 28.94 31.69 34.61 34.35 33.38 32.29 33.74 34.49
28.43 27.47 26.15 25.86 25.07 24.16 23.81 23.28 23.85 22.68 22.37 21.13 20.23 19.87 19.30 19.22 19.37 20.49 20.26 20.02 19.01 19.94 20.46 22.08 22.74 22.51 23.68 26.27 28.66 28.96 30.89 31.83 33.92 33.72 33.63 31.08 30.63 33.15
26.06 24.82 23.96 23.25 22.73 22.29 21.94 21.22 20.56 21.06 20.42 19.37 18.86 18.59 18.31 17.78 17.27 17.43 18.13 18.30 18.07 19.22 20.07 21.01 20.36 19.73 18.06 17.92 25.25 27.76 24.26 30.08 32.39 32.37 32.28 31.52 30.84 31.85
23.43 22.28 21.51 21.37 21.11 20.43 19.92 19.22 18.73 18.46 17.75 17.31 16.35 16.06 15.84 15.27 14.70 14.89 15.87 15.46 16.03 16.62 16.83 18.59 19.70 19.92 17.96 17.15 18.02 22.75 24.37 23.22 29.46 31.29 31.00 32.44 32.37 28.07
20.43 20.27 20.06 19.03 18.35 17.99 17.81 17.41 16.89 16.14 15.76 15.20 14.93 14.22 14.54 13.87 13.24 13.62 14.11 12.97 13.05 14.19 14.40 16.18 18.99 19.37 19.91 20.47 18.06 21.03 25.61 28.26 28.66 31.73 31.15 30.12 29.23 29.88
17.51 17.34 17.29 16.95 16.30 16.06 15.70 15.34 14.78 14.30 13.69 13.28 12.93 12.93 13.14 12.98 11.96 12.05 12.42 11.84 12.56 13.16 13.77 16.32 18.48 19.07 18.45 17.19 16.69 19.57 20.79 24.77 31.29 28.90 29.29 30.01 30.42 26.58
15.51 15.55 15.40 15.34 15.20 14.78 14.26 13.58 12.54 12.34 11.92 11.56 11.63 11.75 11.77 10.58 11.48 11.84 12.01 12.26 12.41 12.45 12.97 13.29 15.29 16.84 16.76 16.49 17.20 18.33 18.04 20.56 29.30 28.56 30.08 27.72 28.64 28.61

GFSNE_sfc_wetblb_087.txt.gz
Wetbulb
63.65 63.18 62.33 62.57 62.69 61.72 60.32 58.69 54.65 49.91 49.32 52.03 49.71 52.41 52.32 52.81 51.47 50.63 50.91 48.60 45.95 45.53 45.65 46.20 47.46 48.07 48.15 48.51 48.77 49.27 49.43 49.64 49.67 49.77 49.59 49.57 49.70 49.86
62.97 62.87 62.38 62.65 62.34 62.00 61.35 59.02 55.23 52.23 48.22 51.97 50.83 52.35 51.45 51.93 51.08 52.06 52.48 48.81 45.23 43.91 43.42 43.49 44.34 45.37 46.13 46.08 46.06 46.14 46.26 46.50 46.88 47.26 47.54 48.04 48.65 49.04
62.32 61.98 61.65 62.39 61.24 61.11 57.95 55.74 54.16 52.37 49.70 51.32 53.35 52.29 49.48 50.11 46.60 48.35 49.28 49.35 50.21 43.84 42.87 42.40 42.11 42.18 42.70 43.01 43.21 43.25 43.15 43.34 43.56 43.83 44.47 45.17 45.94 46.74
61.35 60.97 60.32 59.96 59.02 57.52 54.96 53.11 51.83 52.19 50.80 50.21 50.22 47.38 46.49 46.47 45.24 45.84 46.29 47.63 46.91 46.32 43.83 42.35 41.67 40.87 40.46 40.18 40.39 40.40 40.71 40.90 40.30 39.99 39.88 40.48 41.12 41.89
60.74 60.48 59.24 57.67 56.63 55.42 52.23 51.70 50.92 50.00 49.72 46.00 41.15 42.52 41.93 42.75 42.27 43.70 43.96 44.68 46.70 45.79 41.07 39.89 39.96 40.22 39.42 39.09 39.54 39.70 39.36 38.97 38.87 39.04 38.44 38.43 38.40 39.21
60.51 58.97 58.42 56.89 55.58 54.35 50.80 49.70 46.95 44.82 42.74 42.53 40.78 39.24 39.70 41.43 41.31 40.03 40.24 42.86 43.08 45.27 43.59 39.28 39.06 39.45 39.37 38.89 38.17 38.31 38.47 38.97 38.39 38.02 37.47 36.35 36.21 36.82
58.09 56.02 52.89 51.49 47.22 47.87 47.59 46.00 44.55 42.40 41.30 38.68 36.56 36.35 35.77 36.01 36.73 37.82 36.81 38.48 40.61 43.19 41.27 41.07 41.30 41.09 40.53 38.67 38.27 39.09 38.95 38.78 38.33 37.21 36.63 36.23 36.07 36.33
45.13 40.87 39.90 40.08 37.87 37.67 37.23 37.14 40.72 39.88 36.75 35.52 34.37 33.98 34.97 36.37 36.84 36.06 36.32 36.53 35.04 42.08 39.90 38.44 40.32 38.71 39.13 39.82 38.84 38.11 36.86 36.87 36.73 36.64 36.65 36.32 36.26 35.95
38.60 36.71 35.50 35.09 35.21 34.32 33.95 33.66 33.26 33.34 32.31 35.37 34.29 34.50 34.05 35.79 35.83 35.56 36.14 36.24 35.46 38.31 37.42 35.26 38.32 36.89 38.95 39.34 38.52 38.05 37.38 36.66 36.43 36.45 36.16 36.18 35.73 35.58
35.13 34.46 33.60 32.87 32.77 32.64 31.34 30.13 30.04 30.47 30.57 30.52 31.90 32.90 33.42 35.10 36.02 35.66 34.88 34.32 35.27 35.99 36.25 31.33 35.94 35.45 38.06 38.81 38.02 38.27 37.58 37.02 36.62 36.54 36.36 35.86 35.44 35.38
32.62 33.06 32.98 31.96 32.08 32.98 30.21 28.75 28.29 28.36 30.01 29.89 29.22 28.42 28.03 28.10 28.16 29.13 29.41 29.75 29.98 31.71 36.37 33.78 34.43 33.52 33.82 35.93 36.45 36.17 36.33 36.62 36.74 36.37 36.15 35.82 35.69 35.07
29.81 30.11 31.05 29.95 30.16 31.23 30.16 29.96 28.70 29.30 30.53 31.07 31.47 29.48 28.15 30.16 27.78 28.01 28.25 27.47 27.73 27.45 32.82 28.96 30.34 31.05 28.26 32.78 34.32 36.35 35.19 35.41 36.04 36.02 36.30 36.36 35.72 35.10
28.00 27.90 29.36 29.51 29.56 30.27 30.68 29.97 26.87 31.21 29.28 29.33 29.90 30.70 31.51 31.62 31.72 31.71 31.29 28.78 26.20 25.94 30.81 29.32 27.08 27.70 27.28 26.76 29.97 32.69 33.60 33.23 33.86 35.25 36.62 36.49 35.88 35.35
26.85 28.20 29.18 28.71 28.17 28.87 26.82 25.24 25.49 27.59 29.58 28.99 28.72 28.60 29.18 29.22 29.65 29.77 29.51 28.95 29.32 27.48 28.53 28.50 26.07 24.70 24.31 24.10 24.30 29.07 31.06 33.01 33.55 33.43 35.83 36.52 35.64 35.39
29.63 29.48 28.77 27.72 26.80 26.59 25.01 24.05 25.35 28.47 27.82 26.84 26.44 26.64 27.65 28.35 28.14 27.70 28.51 28.58 28.20 28.27 28.04 28.37 26.79 25.34 25.00 23.11 23.33 25.81 26.73 29.91 32.12 32.07 34.35 35.30 34.73 34.33
28.77 29.75 28.81 28.17 25.58 27.00 26.64 26.92 28.21 27.12 25.08 24.73 25.28 25.46 26.05 25.80 24.91 25.83 24.35 24.04 23.51 24.14 26.69 28.48 27.69 26.40 23.74 24.54 24.71 24.85 27.55 25.87 30.41 31.67 32.75 35.08 35.67 35.46
29.48 29.45 29.40 29.08 28.40 28.16 27.98 27.45 27.23 26.11 24.51 24.72 22.78 22.25 22.27 22.22 22.15 23.50 22.42 21.85 20.29 20.47 22.03 24.96 26.78 26.63 26.09 24.71 22.64 24.34 25.07 26.43 29.12 30.52 31.41 31.67 34.14 35.10
29.27 28.11 27.20 26.46 25.19 24.71 24.32 23.73 23.99 23.25 22.76 21.51 21.15 20.87 19.71 19.37 19.34 20.02 20.34 19.59 18.88 19.35 20.00 21.66 22.47 21.99 22.54 24.02 26.35 24.29 25.97 27.21 28.97 27.45 27.24 31.04 31.37 34.56
26.35 25.42 24.76 23.82 23.47 23.16 22.57 21.65 20.64 21.08 21.10 20.28 19.24 18.50 18.01 17.52 17.33 16.68 17.12 17.52 17.08 17.94 18.39 19.97 19.48 18.37 15.72 14.63 23.25 26.96 22.59 22.33 22.63 23.16 23.58 32.34 31.50 32.35
23.74 22.82 22.08 21.91 21.37 20.71 20.31 19.37 19.13 19.04 18.48 17.75 16.86 16.76 16.34 15.56 14.73 14.30 14.86 14.75 14.72 14.81 15.23 17.05 17.77 18.08 15.56 14.49 15.36 19.62 22.84 20.93 21.76 22.23 23.80 31.85 31.57 29.43
20.51 20.31 20.42 19.77 19.31 18.71 18.40 17.88 17.39 16.83 16.14 15.75 15.55 14.94 14.86 13.86 13.12 13.44 13.55 13.18 13.36 13.05 12.60 14.06 16.82 18.86 19.68 19.99 16.17 17.78 22.58 25.22 25.23 23.66 24.09 24.30 28.42 28.98
18.39 18.44 18.46 18.36 17.55 17.10 16.89 16.51 15.97 15.36 14.81 14.38 13.76 13.69 13.79 13.64 12.27 11.98 12.35 12.09 12.04 13.26 13.69 15.76 17.65 17.81 17.05 15.64 14.50 15.89 18.96 22.89 25.12 24.67 26.31 29.43 30.30 26.55
16.46 16.13 16.44 16.52 16.47 15.88 15.55 14.64 13.58 13.37 13.26 12.91 12.72 12.76 12.67 11.08 12.00 12.41 12.57 12.83 12.55 12.46 13.06 13.72 15.46 16.22 14.75 14.80 14.86 15.95 16.77 19.17 20.70 20.74 27.20 29.07 29.22 29.20

GFSNE_sfc_wetblb_090.txt.gz
Wetbulb
59.22 59.16 58.68 58.23 57.88 57.60 56.96 56.02 53.55 50.44 50.18 51.50 53.53 54.22 53.82 52.58 52.12 50.82 49.35 47.48 46.53 46.19 46.30 47.20 48.43 49.41 49.43 49.88 49.84 49.96 50.15 50.34 50.60 50.63 50.61 50.73 50.68 50.60
59.83 59.42 58.67 58.81 58.49 58.63 57.96 56.42 55.49 54.32 51.53 51.42 52.38 52.37 52.10 53.21 52.69 50.81 49.25 49.09 46.07 45.12 44.87 45.21 45.77 46.87 47.31 47.64 47.89 48.26 47.70 47.53 47.53 47.66 47.94 48.23 48.64 48.95
59.17 58.26 58.24 58.87 58.28 57.83 57.73 57.86 56.03 54.84 52.60 54.19 52.38 52.02 50.71 50.73 51.28 48.89 49.27 48.15 46.32 44.43 43.53 43.45 43.23 43.57 44.05 44.12 44.17 44.55 44.56 44.75 45.01 45.20 45.53 45.91 46.27 46.58
57.89 57.45 57.75 58.47 57.64 57.77 57.31 55.78 54.88 54.93 53.40 51.55 51.59 49.81 50.29 49.10 49.10 47.04 47.69 48.47 48.02 45.16 44.17 43.69 42.97 42.09 41.86 41.49 41.15 41.17 41.26 41.49 41.14 41.21 40.81 40.67 40.98 41.18
57.67 57.30 57.29 57.02 56.66 57.26 55.49 55.08 54.18 53.24 52.33 51.11 47.33 42.46 42.13 42.91 42.59 43.68 44.42 44.46 46.02 46.57 44.37 42.44 41.93 42.10 41.50 40.94 40.46 39.83 39.96 39.82 39.68 39.00 39.03 38.77 38.21 38.68
57.59 57.45 56.99 55.83 54.88 54.51 54.33 54.29 53.04 50.50 48.17 45.14 41.36 39.90 40.06 41.29 41.06 40.26 39.85 42.64 42.47 45.11 44.69 41.93 41.44 41.20 41.01 39.81 38.95 39.33 39.23 39.00 38.63 38.48 38.07 37.47 37.00 36.53
56.01 54.99 48.14 44.82 43.96 48.04 51.99 50.35 47.71 45.89 41.94 40.13 37.59 36.64 35.77 36.08 36.51 37.85 36.62 37.25 38.23 39.52 39.37 39.59 38.99 38.34 36.51 38.66 38.88 39.53 39.23 39.03 39.07 38.91 38.50 37.10 36.37 36.52
46.56 40.57 39.22 38.60 37.85 37.96 37.67 36.71 39.52 40.97 37.56 36.07 34.08 34.15 34.45 35.70 36.29 35.23 34.87 33.70 32.04 38.94 37.65 35.35 35.40 33.65 35.99 36.93 38.57 38.36 38.75 39.12 39.07 38.96 37.82 36.98 36.67 36.34
39.67 37.71 36.33 36.28 36.05 35.19 34.83 33.89 33.35 33.22 32.06 35.65 33.94 33.56 32.66 33.44 33.64 32.39 32.33 32.55 32.56 35.47 33.82 31.15 33.68 33.24 35.15 37.47 37.88 38.52 38.78 38.42 37.91 37.43 36.88 36.33 36.02 35.57
36.65 35.24 33.74 33.26 33.77 33.15 31.97 30.91 31.05 31.36 31.46 32.48 31.61 31.12 31.34 31.82 32.94 32.94 31.44 30.97 30.85 31.99 33.18 27.69 29.87 29.88 31.69 34.10 37.81 37.65 37.29 37.32 37.69 37.19 36.75 36.48 35.97 35.73
33.83 33.62 33.22 32.31 33.28 34.06 31.27 30.03 28.78 28.69 30.91 31.38 30.59 29.78 29.06 28.89 28.40 27.44 26.40 26.06 24.35 26.80 30.69 29.11 27.64 27.17 27.98 28.51 32.00 35.80 35.81 35.14 35.53 36.35 36.96 36.80 36.49 35.81
30.19 30.48 31.26 30.93 31.88 31.67 29.98 29.54 28.07 28.07 28.97 29.47 28.68 28.97 28.81 29.64 28.19 27.69 26.63 25.25 24.29 22.14 27.10 24.60 25.07 25.11 23.06 26.93 27.65 27.69 27.82 32.12 34.29 34.35 34.33 34.56 34.80 33.93
28.61 28.00 29.28 30.74 30.06 29.28 28.23 26.70 26.61 28.34 28.52 27.78 28.07 28.89 29.15 29.49 28.85 28.07 28.19 25.61 23.52 22.56 27.14 25.86 23.20 22.35 21.71 21.83 24.47 25.56 26.32 27.00 28.01 29.49 33.36 34.43 34.42 35.12
27.62 27.69 28.18 29.42 28.03 27.10 26.12 27.37 28.34 28.63 28.05 27.21 26.92 26.15 25.65 25.26 25.85 25.48 25.61 25.06 25.11 24.51 25.89 25.17 21.15 21.68 20.57 19.69 19.07 23.19 23.99 25.24 26.47 27.01 28.25 31.36 33.02 34.31
28.44 28.56 28.92 28.41 27.26 26.09 26.90 27.68 27.55 26.05 24.11 22.72 23.11 23.29 22.87 23.54 24.56 24.77 25.38 25.65 25.13 24.97 26.20 25.50 24.26 23.68 22.77 20.92 19.68 20.50 20.51 22.96 25.17 25.90 27.79 28.88 29.66 31.73
28.54 28.83 28.41 27.49 27.36 25.89 26.35 27.41 26.08 24.26 23.06 22.67 21.44 20.89 21.57 21.85 21.19 22.01 20.90 21.11 19.94 20.10 23.62 23.89 23.95 23.82 22.64 23.61 22.84 21.20 21.61 19.38 22.73 23.88 25.36 26.15 27.35 29.81
27.77 28.44 28.13 27.62 26.27 25.65 25.39 24.96 24.40 23.74 21.38 20.39 19.32 19.27 19.36 19.15 18.60 19.64 18.43 17.43 15.36 15.68 16.80 20.16 22.31 22.73 22.20 21.53 18.76 19.83 19.68 20.26 22.22 23.49 25.16 24.77 25.01 28.38
28.15 25.42 24.02 23.83 22.76 22.54 21.81 21.18 21.31 20.10 19.17 19.22 17.21 17.54 16.15 15.49 15.48 15.90 15.94 14.24 12.91 13.94 14.71 16.62 16.85 15.69 16.71 18.61 22.06 18.58 19.74 19.91 18.96 19.94 20.41 19.70 20.25 23.62
23.55 22.47 21.33 20.96 20.48 20.30 19.42 18.66 17.35 17.90 18.59 16.41 14.70 13.77 13.70 13.90 12.93 12.79 12.74 12.84 12.03 12.45 12.86 14.09 13.53 12.76 11.37 10.33 15.09 21.18 15.62 16.85 17.42 17.35 19.52 20.09 20.77 23.74
21.22 19.36 18.36 18.39 17.98 17.21 16.72 15.98 15.76 15.12 14.12 13.38 11.46 10.34 8.34 11.54 10.66 10.91 11.34 9.10 9.97 11.01 11.44 13.44 13.21 13.36 10.74 9.40 10.01 14.11 21.29 17.18 17.51 17.88 18.47 21.70 23.59 25.26
17.87 17.34 17.13 16.39 15.57 15.43 13.93 12.41 10.27 8.40 8.21 6.84 8.79 7.96 3.32 9.67 8.82 10.08 9.55 8.18 8.31 10.45 9.58 10.37 13.27 16.63 16.00 16.06 10.63 10.97 15.03 21.12 20.74 18.26 19.17 19.19 18.82 19.85
15.27 15.21 15.19 14.79 13.27 13.14 9.48 7.75 7.57 7.23 7.67 7.31 3.65 2.44 3.03 6.22 6.94 7.31 7.97 8.01 9.28 9.75 10.55 12.38 14.48 14.97 13.99 12.06 9.91 9.84 12.10 15.56 19.88 22.35 24.24 22.68 20.06 20.86
13.08 13.18 12.38 11.55 10.89 9.53 11.42 8.81 7.03 2.85 6.28 5.74 6.01 6.80 1.01 2.65 8.00 8.13 8.29 9.08 9.42 9.01 9.32 9.91 12.08 12.30 11.45 11.87 10.90 10.72 11.13 12.55 15.34 16.44 19.71 24.26 27.17 27.61

GFSNE_sfc_wetblb_093.txt.gz
Wetbulb
56.74 56.52 55.72 55.90 55.86 55.22 54.59 53.62 51.53 47.71 48.52 50.27 52.48 54.04 55.97 54.74 53.35 52.61 52.35 49.19 47.76 47.55 47.74 48.84 50.28 51.12 51.33 51.50 51.28 51.68 51.99 52.07 51.55 51.43 51.66 51.77 51.62 51.50
57.58 56.78 56.78 56.41 55.86 55.66 55.14 55.14 55.12 54.47 51.13 52.90 53.06 52.44 52.62 53.68 52.81 52.46 51.45 50.11 47.17 46.02 46.00 46.48 47.49 48.86 48.94 48.95 49.25 49.55 49.79 49.35 48.98 48.78 48.74 48.80 48.88 49.10
56.99 56.26 57.18 56.16 56.71 56.12 56.06 56.47 55.62 54.94 52.65 53.34 52.95 50.98 51.21 50.37 51.51 51.67 51.47 50.37 50.41 45.59 44.91 44.87 44.74 45.31 45.77 45.93 45.98 46.55 46.65 46.34 45.81 46.23 46.65 47.06 47.37 47.54
56.66 55.51 56.74 56.81 55.64 56.71 56.18 56.11 55.72 55.86 53.77 51.60 50.58 50.62 49.25 48.20 50.19 49.10 49.84 49.89 48.68 45.93 44.79 44.37 43.59 43.15 42.95 42.82 42.97 42.68 42.65 42.64 42.51 42.47 42.16 42.10 42.83 42.82
56.93 55.90 56.48 55.64 55.85 56.11 54.98 55.58 55.30 54.09 53.99 53.45 53.04 44.86 44.17 43.76 43.29 44.28 45.06 44.97 46.45 46.18 44.54 43.18 42.98 42.93 42.58 41.97 41.87 41.80 41.48 40.96 39.92 39.75 39.77 39.70 39.00 38.95
56.67 56.33 56.65 55.62 55.65 54.95 54.25 53.88 53.66 53.08 52.40 51.33 44.98 40.60 40.52 41.41 41.27 40.71 40.45 42.48 42.62 45.15 44.54 43.21 42.13 42.25 42.30 41.78 41.26 41.02 39.86 40.00 39.63 39.10 38.34 37.66 37.77 38.27
55.30 52.22 45.49 43.70 41.65 44.75 50.84 51.68 51.21 49.29 44.42 42.79 38.41 37.11 36.04 36.51 36.72 37.82 36.48 36.55 38.34 40.09 40.13 40.08 40.28 40.57 40.73 40.54 40.41 40.21 40.00 39.63 39.49 39.18 38.83 38.10 37.49 37.66
46.96 41.11 39.61 39.01 37.64 37.43 37.20 36.44 40.45 42.54 38.59 36.95 35.14 33.98 34.45 34.79 35.26 34.23 34.07 32.77 32.70 38.98 36.15 35.06 36.05 34.55 36.17 36.98 38.39 38.71 38.95 39.26 39.47 39.41 39.08 38.71 38.21 37.12
42.56 38.50 36.99 36.89 36.38 35.70 34.83 34.54 34.21 33.90 33.21 36.11 33.93 32.79 32.21 32.60 33.21 32.30 32.09 32.06 32.27 35.56 34.48 30.22 32.40 32.07 35.18 36.61 37.24 37.59 37.97 38.36 37.96 37.75 37.71 37.49 37.23 36.23
37.42 36.52 34.80 34.35 34.71 34.23 33.19 32.01 32.07 32.46 32.70 33.06 32.26 32.11 32.45 33.09 32.72 30.91 30.01 28.98 29.71 30.58 32.15 24.36 27.19 26.47 29.24 31.10 34.54 36.12 36.50 35.25 34.74 34.90 35.39 36.69 36.47 35.85
34.41 33.88 33.49 32.62 34.00 35.00 31.57 29.40 28.52 29.10 32.04 32.42 32.14 31.12 30.26 29.48 28.97 26.74 25.56 25.44 24.20 25.68 27.09 25.54 24.61 24.43 25.63 25.51 28.23 31.50 31.15 31.05 31.54 32.02 32.62 33.40 33.48 33.91
30.72 31.02 31.92 31.49 31.84 32.05 30.33 28.77 26.58 27.04 28.47 29.24 29.23 29.94 30.19 29.55 29.26 27.32 25.86 23.73 23.15 20.05 24.59 21.94 23.20 21.31 18.79 24.00 23.94 25.62 25.61 28.30 29.11 29.84 30.39 30.66 31.41 31.66
28.66 28.71 29.66 30.16 30.02 29.62 29.58 28.67 28.16 29.37 28.81 28.49 27.71 26.93 26.39 26.14 25.78 25.78 25.26 23.34 21.65 20.91 23.81 21.42 20.98 20.48 19.83 20.47 22.06 22.92 23.34 23.86 24.77 25.61 28.00 28.92 29.74 29.94
27.49 27.70 27.98 28.52 29.28 29.44 28.87 29.00 28.27 27.66 27.29 26.51 24.90 23.19 22.70 22.53 23.70 24.03 24.53 24.13 24.42 22.91 23.92 23.42 19.27 20.07 19.35 18.51 17.87 21.97 22.96 23.42 22.91 22.95 23.97 27.05 28.50 28.54
28.51 28.81 29.35 29.27 29.22 28.81 28.51 27.41 26.33 25.77 24.88 22.59 20.91 20.13 21.11 22.67 22.90 22.49 22.91 22.21 21.72 21.99 23.08 22.18 20.84 20.82 20.00 18.69 18.27 19.01 19.64 22.11 23.33 22.47 22.59 22.81 23.40 25.13
29.12 28.88 27.72 27.37 27.42 27.51 26.85 26.28 25.30 23.58 21.79 20.76 20.37 20.93 21.35 20.35 19.50 19.54 17.52 17.48 16.86 17.07 20.48 21.36 21.21 19.57 16.48 16.85 16.92 16.15 17.97 16.64 19.88 20.99 20.85 20.21 22.26 23.05
27.21 27.59 26.99 26.15 24.88 23.96 23.59 23.12 21.99 20.88 19.93 19.58 18.54 18.05 17.48 17.33 16.83 17.52 16.41 14.97 13.01 13.12 13.87 16.94 18.51 18.01 17.35 16.91 13.63 15.90 16.50 15.78 17.15 17.44 18.04 17.43 19.66 21.73
25.87 23.39 22.09 21.89 20.99 20.55 19.54 18.81 18.61 18.46 18.17 17.55 16.19 15.90 14.31 13.68 13.70 14.27 14.29 12.71 11.00 11.38 11.30 12.79 13.33 13.02 14.30 16.12 18.79 14.21 14.05 13.32 15.37 16.89 17.87 16.33 17.08 21.00
21.47 19.89 18.65 18.29 17.65 17.71 17.00 15.86 14.71 15.47 16.19 14.51 13.22 11.55 12.36 12.37 11.70 11.61 11.53 10.53 9.56 9.97 10.41 11.97 11.73 10.42 7.34 4.83 12.39 18.76 13.41 14.23 14.48 14.33 16.09 16.21 15.77 18.73
18.85 17.05 15.73 15.60 15.68 15.07 14.78 13.93 13.38 12.63 11.84 12.47 10.17 7.94 5.42 10.21 9.19 9.27 9.00 1.74 7.36 8.96 9.62 11.28 10.69 10.67 8.16 7.19 8.77 12.57 18.93 14.18 12.83 12.17 13.44 16.28 18.26 22.05
15.60 14.53 14.22 14.35 13.96 13.37 11.48 10.57 8.13 7.89 6.19 3.76 5.42 4.06 -4.08 4.77 2.61 6.43 6.38 4.65 4.96 8.69 7.71 8.38 10.73 14.07 14.03 13.61 7.52 8.36 12.30 18.47 17.68 14.45 14.82 14.27 15.02 17.94
13.60 13.39 13.01 12.31 11.51 10.60 6.86 4.31 5.27 3.71 2.73 2.27 -5.89 -7.52 -8.06 -1.80 -1.46 0.84 0.99 4.28 7.10 7.61 8.03 9.81 12.16 12.31 9.94 9.10 7.05 7.08 9.72 12.56 16.86 19.35 20.64 19.62 15.87 13.78
9.49 10.39 9.10 8.10 8.40 6.77 6.94 2.67 -0.08 -9.33 0.39 1.26 -1.09 0.13 -10.06 -1.64 3.34 2.90 2.58 5.57 6.26 6.78 7.57 7.03 8.41 9.32 8.98 9.03 8.03 8.21 8.79 10.41 12.65 14.18 16.70 21.09 22.43 23.76